[[{"header":{"parameterUnit":"m.s-1","parameterCategory":1,"la1":30.6,"la2":29.2853,"lo1":-89.7004,"lo2":-87.6739,"dx":0.0162,"dy":0.0183,"nx":112,"ny":82,"refTime":"2022-11-29T18:00:00:Z","depth":0,"parameterNumber":2,"parameterNumberName":"U-component_of_WINDS"},"data":[0.0,0.0,0.0,0.0,0.0,0.0,0.0,0.0,0.0,0.0,0.0,0.0,0.0,0.0,0.0,0.0,0.0,0.0,0.0,0.0,0.0,0.0,0.0,0.0,0.0,0.0,0.0,0.0,0.0,0.0,0.0,0.0,0.0,0.0,0.0,0.0,0.0,0.0,0.0,0.0,0.0,0.0,0.0,0.0,0.0,0.0,0.0,0.0,0.0,0.0,0.0,0.0,0.0,0.0,0.0,0.0,0.0,0.0,0.0,0.0,0.0,0.0,0.0,0.0,0.0,0.0,0.0,0.0,0.0,0.0,0.0,0.0,0.0,0.0,0.0,0.0,0.0,0.0,0.0,0.0,0.0,0.0,0.0,0.0,0.0,0.0,0.0,0.0,0.0,0.0,-2.2358,-2.5343,-2.6828,-2.7304,-2.6547,-2.6275,-2.4552,-2.073,0.0,0.0,0.0,0.0,0.0,0.0,0.0,0.0,0.0,0.0,0.0,0.0,0.0,0.0,0.0,0.0,0.0,0.0,0.0,0.0,0.0,0.0,0.0,0.0,0.0,0.0,0.0,0.0,0.0,0.0,0.0,0.0,0.0,0.0,0.0,0.0,0.0,0.0,0.0,0.0,0.0,0.0,0.0,0.0,0.0,0.0,0.0,0.0,0.0,0.0,0.0,0.0,0.0,0.0,0.0,0.0,0.0,0.0,0.0,0.0,0.0,0.0,0.0,0.0,0.0,0.0,0.0,0.0,0.0,0.0,0.0,0.0,0.0,0.0,0.0,0.0,0.0,0.0,0.0,0.0,0.0,0.0,0.0,0.0,0.0,0.0,0.0,0.0,0.0,0.0,0.0,0.0,0.0,0.0,0.0,0.0,0.0,0.0,0.0,0.0,0.0,0.0,0.0,0.0,-2.2471,-2.6864,-2.8084,-2.8232,-2.7304,-2.7047,-2.5082,-2.0763,0.0,0.0,0.0,0.0,0.0,0.0,0.0,0.0,0.0,0.0,0.0,0.0,0.0,0.0,0.0,0.0,0.0,0.0,0.0,0.0,0.0,0.0,0.0,0.0,0.0,0.0,0.0,0.0,0.0,0.0,0.0,0.0,0.0,0.0,0.0,0.0,0.0,0.0,0.0,0.0,0.0,0.0,0.0,0.0,0.0,0.0,0.0,0.0,0.0,0.0,0.0,0.0,0.0,0.0,0.0,0.0,0.0,0.0,0.0,0.0,0.0,0.0,0.0,0.0,0.0,0.0,0.0,0.0,0.0,0.0,0.0,0.0,0.0,0.0,0.0,0.0,0.0,0.0,0.0,0.0,0.0,0.0,0.0,0.0,0.0,0.0,0.0,0.0,0.0,0.0,0.0,0.0,0.0,0.0,0.0,0.0,0.0,0.0,0.0,0.0,0.0,0.0,0.0,-2.2618,-2.4347,-2.6983,-2.7885,-2.7894,-2.6889,-2.6532,-2.4706,-2.0841,-1.9579,0.0,0.0,0.0,0.0,0.0,0.0,0.0,0.0,0.0,0.0,0.0,0.0,0.0,0.0,0.0,0.0,0.0,0.0,0.0,0.0,0.0,0.0,0.0,0.0,0.0,0.0,0.0,0.0,0.0,0.0,0.0,0.0,0.0,0.0,0.0,0.0,0.0,0.0,0.0,0.0,0.0,0.0,0.0,0.0,0.0,0.0,0.0,0.0,0.0,0.0,0.0,0.0,0.0,0.0,0.0,0.0,0.0,0.0,0.0,0.0,0.0,0.0,0.0,0.0,0.0,0.0,0.0,0.0,0.0,0.0,0.0,0.0,0.0,0.0,0.0,0.0,0.0,0.0,0.0,0.0,0.0,0.0,0.0,0.0,0.0,0.0,0.0,0.0,0.0,0.0,0.0,0.0,0.0,0.0,0.0,0.0,0.0,0.0,0.0,0.0,0.0,0.0,-2.448,-2.6178,-2.6688,-2.7496,-2.7535,-2.6335,-2.5933,-2.4224,-2.074,-1.9391,0.0,0.0,0.0,0.0,0.0,0.0,0.0,0.0,0.0,0.0,0.0,0.0,0.0,0.0,0.0,0.0,0.0,0.0,0.0,0.0,0.0,0.0,0.0,0.0,0.0,0.0,0.0,0.0,0.0,0.0,0.0,0.0,0.0,0.0,0.0,0.0,0.0,0.0,0.0,0.0,0.0,0.0,0.0,0.0,0.0,0.0,0.0,0.0,0.0,0.0,0.0,0.0,0.0,0.0,0.0,0.0,0.0,0.0,0.0,0.0,0.0,0.0,0.0,0.0,0.0,0.0,0.0,0.0,0.0,0.0,0.0,0.0,0.0,0.0,0.0,0.0,0.0,0.0,0.0,0.0,0.0,0.0,0.0,0.0,0.0,0.0,0.0,0.0,0.0,0.0,0.0,0.0,0.0,0.0,0.0,0.0,0.0,0.0,0.0,0.0,0.0,0.0,-2.4463,-2.6919,-2.6401,-2.7511,-2.7687,-2.6229,-2.5925,-2.4141,-2.0302,-1.9088,0.0,0.0,0.0,0.0,0.0,0.0,0.0,0.0,0.0,0.0,0.0,0.0,0.0,0.0,0.0,0.0,0.0,0.0,0.0,0.0,0.0,0.0,0.0,0.0,0.0,0.0,0.0,0.0,0.0,0.0,0.0,0.0,0.0,0.0,0.0,0.0,0.0,0.0,0.0,0.0,0.0,0.0,0.0,0.0,0.0,0.0,0.0,0.0,0.0,0.0,0.0,0.0,0.0,0.0,0.0,0.0,0.0,0.0,0.0,0.0,0.0,0.0,0.0,0.0,0.0,0.0,0.0,0.0,0.0,0.0,0.0,0.0,0.0,0.0,0.0,0.0,0.0,0.0,0.0,0.0,0.0,0.0,0.0,0.0,0.0,0.0,0.0,0.0,0.0,0.0,0.0,0.0,0.0,0.0,0.0,0.0,0.0,0.0,0.0,0.0,0.0,0.0,-2.3655,-2.5437,-2.5757,-2.6752,-2.6971,-2.6001,-2.5771,-2.4305,-2.1091,0.0,0.0,0.0,0.0,0.0,0.0,0.0,0.0,0.0,0.0,0.0,0.0,0.0,0.0,0.0,0.0,0.0,0.0,0.0,0.0,0.0,0.0,0.0,0.0,0.0,0.0,0.0,0.0,0.0,0.0,0.0,0.0,0.0,0.0,0.0,0.0,0.0,0.0,0.0,0.0,0.0,0.0,0.0,0.0,0.0,0.0,0.0,0.0,0.0,0.0,0.0,0.0,0.0,0.0,0.0,0.0,0.0,0.0,0.0,0.0,0.0,0.0,0.0,0.0,0.0,0.0,0.0,0.0,0.0,0.0,0.0,0.0,0.0,0.0,0.0,0.0,0.0,0.0,0.0,0.0,0.0,0.0,0.0,0.0,0.0,0.0,0.0,0.0,0.0,0.0,0.0,0.0,0.0,0.0,0.0,0.0,0.0,0.0,0.0,0.0,0.0,0.0,-2.181,-2.3782,-2.5233,-2.5839,-2.6433,-2.6504,-2.5785,-2.5614,-2.4322,-2.1516,0.0,0.0,0.0,0.0,0.0,0.0,0.0,0.0,0.0,0.0,0.0,0.0,0.0,0.0,0.0,0.0,0.0,0.0,0.0,0.0,0.0,0.0,0.0,0.0,0.0,0.0,0.0,0.0,0.0,0.0,0.0,0.0,0.0,0.0,0.0,0.0,0.0,0.0,0.0,0.0,0.0,0.0,0.0,0.0,0.0,0.0,0.0,0.0,0.0,0.0,0.0,0.0,0.0,0.0,0.0,0.0,0.0,0.0,0.0,0.0,0.0,0.0,0.0,0.0,0.0,0.0,0.0,0.0,0.0,0.0,0.0,0.0,0.0,0.0,0.0,0.0,0.0,0.0,0.0,0.0,0.0,0.0,0.0,0.0,0.0,0.0,0.0,0.0,0.0,0.0,0.0,0.0,0.0,0.0,0.0,0.0,0.0,0.0,0.0,0.0,0.0,0.0,-2.2647,-2.5133,-2.6806,-2.6806,-2.6806,-2.6492,-2.5697,-2.5475,-2.4216,0.0,0.0,0.0,0.0,0.0,0.0,0.0,0.0,0.0,0.0,0.0,0.0,0.0,0.0,0.0,0.0,0.0,0.0,0.0,0.0,0.0,0.0,0.0,0.0,0.0,0.0,0.0,0.0,0.0,0.0,0.0,0.0,0.0,0.0,0.0,0.0,0.0,0.0,0.0,0.0,0.0,0.0,0.0,0.0,0.0,0.0,0.0,0.0,0.0,0.0,0.0,0.0,0.0,0.0,0.0,0.0,0.0,0.0,0.0,0.0,0.0,0.0,0.0,0.0,0.0,0.0,0.0,0.0,0.0,0.0,0.0,0.0,0.0,0.0,0.0,0.0,0.0,0.0,0.0,0.0,0.0,0.0,0.0,0.0,0.0,0.0,0.0,0.0,0.0,0.0,0.0,0.0,0.0,0.0,0.0,0.0,0.0,0.0,0.0,0.0,0.0,0.0,0.0,-2.2062,-2.45,-2.6083,-2.6083,-2.653,-2.6707,-2.6477,-2.6411,-2.5563,-2.3644,0.0,0.0,0.0,0.0,0.0,0.0,0.0,0.0,0.0,0.0,0.0,0.0,0.0,0.0,0.0,0.0,0.0,0.0,0.0,0.0,0.0,0.0,0.0,0.0,0.0,0.0,0.0,0.0,0.0,0.0,0.0,0.0,0.0,0.0,0.0,0.0,0.0,0.0,0.0,0.0,0.0,0.0,0.0,0.0,0.0,0.0,0.0,0.0,0.0,0.0,0.0,0.0,0.0,0.0,0.0,0.0,0.0,0.0,0.0,0.0,0.0,0.0,0.0,0.0,0.0,0.0,0.0,0.0,0.0,0.0,0.0,0.0,0.0,0.0,0.0,0.0,0.0,0.0,0.0,0.0,0.0,0.0,0.0,0.0,0.0,0.0,0.0,0.0,0.0,0.0,0.0,0.0,0.0,0.0,0.0,0.0,0.0,0.0,0.0,0.0,0.0,0.0,-2.2585,-2.4762,-2.6399,-2.6907,-2.6864,-2.6895,-2.7142,-2.6857,-2.6185,-2.5024,0.0,0.0,0.0,0.0,0.0,0.0,0.0,0.0,0.0,0.0,0.0,0.0,0.0,0.0,0.0,0.0,0.0,0.0,0.0,0.0,0.0,0.0,0.0,0.0,0.0,0.0,0.0,0.0,0.0,0.0,0.0,0.0,0.0,0.0,0.0,0.0,0.0,0.0,0.0,0.0,0.0,0.0,0.0,0.0,0.0,0.0,0.0,0.0,0.0,0.0,0.0,0.0,0.0,0.0,0.0,0.0,0.0,0.0,0.0,0.0,0.0,0.0,0.0,0.0,0.0,0.0,0.0,0.0,0.0,0.0,0.0,0.0,0.0,0.0,0.0,0.0,0.0,0.0,0.0,0.0,0.0,0.0,0.0,0.0,0.0,0.0,0.0,0.0,0.0,0.0,0.0,0.0,0.0,0.0,0.0,0.0,0.0,0.0,0.0,0.0,0.0,0.0,-2.3731,-2.5614,-2.7244,-2.8491,-2.7532,-2.7041,-2.7652,-2.698,-2.6292,-2.5715,0.0,0.0,0.0,0.0,0.0,0.0,0.0,0.0,0.0,0.0,0.0,0.0,0.0,0.0,0.0,0.0,0.0,0.0,0.0,0.0,0.0,0.0,0.0,0.0,0.0,0.0,0.0,0.0,0.0,0.0,0.0,0.0,0.0,0.0,0.0,0.0,0.0,0.0,0.0,0.0,0.0,0.0,0.0,0.0,0.0,0.0,0.0,0.0,0.0,0.0,0.0,0.0,0.0,0.0,0.0,0.0,0.0,0.0,0.0,0.0,-1.9684,0.0,0.0,0.0,0.0,0.0,0.0,0.0,0.0,0.0,0.0,0.0,0.0,0.0,0.0,0.0,0.0,0.0,0.0,0.0,0.0,0.0,0.0,0.0,0.0,0.0,0.0,0.0,0.0,0.0,0.0,0.0,0.0,0.0,0.0,0.0,0.0,0.0,0.0,0.0,0.0,0.0,-2.3789,-2.5614,-2.7084,-2.7811,-2.7244,-2.7041,-2.7652,-2.7115,-2.6613,-2.6323,-2.5693,0.0,0.0,0.0,0.0,0.0,0.0,0.0,0.0,0.0,0.0,0.0,0.0,0.0,0.0,0.0,0.0,0.0,0.0,0.0,0.0,0.0,0.0,0.0,0.0,0.0,0.0,0.0,0.0,0.0,0.0,0.0,0.0,0.0,0.0,0.0,0.0,0.0,0.0,0.0,0.0,0.0,0.0,0.0,0.0,0.0,0.0,0.0,0.0,0.0,0.0,0.0,0.0,0.0,0.0,0.0,0.0,0.0,0.0,0.0,0.0,-1.9558,0.0,0.0,0.0,0.0,0.0,0.0,0.0,0.0,0.0,0.0,0.0,0.0,0.0,0.0,0.0,0.0,0.0,0.0,0.0,0.0,0.0,0.0,0.0,0.0,0.0,0.0,0.0,0.0,0.0,0.0,0.0,0.0,0.0,0.0,0.0,0.0,0.0,0.0,0.0,0.0,-2.3891,-2.5614,-2.7142,-2.8086,-2.7621,-2.749,-2.8129,-2.7607,-2.7072,-2.6674,-2.6196,0.0,0.0,0.0,0.0,0.0,0.0,0.0,0.0,0.0,0.0,0.0,0.0,0.0,0.0,0.0,0.0,0.0,0.0,0.0,0.0,0.0,0.0,0.0,0.0,0.0,0.0,0.0,0.0,0.0,0.0,0.0,0.0,0.0,0.0,0.0,0.0,0.0,0.0,0.0,0.0,0.0,0.0,0.0,0.0,0.0,0.0,0.0,0.0,0.0,0.0,0.0,0.0,0.0,-2.3909,-2.4064,-2.3225,-2.3776,-2.4602,-2.5459,-2.3111,-2.2547,-2.3127,-2.0835,0.0,0.0,0.0,0.0,0.0,0.0,0.0,0.0,0.0,0.0,0.0,0.0,0.0,0.0,0.0,0.0,0.0,0.0,0.0,0.0,0.0,0.0,0.0,0.0,-2.471,-2.5299,-2.2969,0.0,0.0,0.0,0.0,0.0,0.0,0.0,0.0,0.0,0.0,0.0,-2.4345,-2.5847,-2.7345,-2.8405,-2.8042,-2.7913,-2.8463,-2.7926,-2.7345,-2.6849,-2.6527,-2.5878,0.0,0.0,0.0,0.0,0.0,0.0,0.0,0.0,0.0,0.0,0.0,0.0,0.0,0.0,0.0,0.0,0.0,0.0,0.0,0.0,0.0,0.0,0.0,0.0,0.0,0.0,0.0,0.0,0.0,0.0,0.0,0.0,-1.7473,-1.8266,0.0,0.0,0.0,0.0,0.0,0.0,0.0,0.0,0.0,0.0,0.0,0.0,0.0,-2.2525,-2.2604,-2.4063,-2.5061,-2.5543,-2.6847,-2.7359,-2.7237,-2.7331,-2.7469,-2.7576,-2.6739,0.0,-2.4694,-2.3259,0.0,0.0,0.0,0.0,0.0,0.0,0.0,0.0,0.0,0.0,0.0,0.0,0.0,0.0,0.0,0.0,0.0,0.0,0.0,0.0,0.0,0.0,-2.6168,-2.6093,-2.6731,-2.724,0.0,-2.438,-2.2215,-2.2105,-2.1969,0.0,0.0,0.0,0.0,0.0,0.0,0.0,-2.5808,-2.6803,-2.7637,-2.7811,-2.7753,-2.7739,-2.7811,-2.7273,-2.6866,-2.682,-2.6753,-2.6303,-2.5312,-2.4663,0.0,0.0,0.0,0.0,0.0,0.0,0.0,0.0,0.0,0.0,0.0,0.0,0.0,0.0,0.0,0.0,0.0,0.0,0.0,0.0,0.0,0.0,0.0,0.0,0.0,0.0,0.0,0.0,0.0,-1.6905,-1.7837,-1.9721,-1.8827,-1.806,0.0,0.0,0.0,0.0,0.0,0.0,0.0,0.0,0.0,-2.3927,-2.4474,-2.5203,-2.6146,-2.6933,-2.7409,-2.7617,-2.7997,-2.7961,-2.7603,-2.7727,-2.7793,-2.7754,-2.7528,-2.7073,-2.6391,-2.5048,-2.417,-2.3504,0.0,0.0,0.0,0.0,-2.2037,-2.2146,-2.2888,-2.3132,-2.3191,-2.354,0.0,0.0,0.0,0.0,0.0,0.0,0.0,0.0,0.0,0.0,-2.6692,-2.7076,-2.739,-2.76,-2.76,-2.6422,-2.5239,0.0,-2.4357,-2.4407,-2.5388,0.0,0.0,0.0,0.0,-2.6677,-2.6082,-2.6698,-2.7331,-2.7666,-2.7695,-2.7695,-2.7695,-2.7449,-2.7157,-2.6835,-2.6686,-2.6409,-2.5914,-2.4829,-2.3717,0.0,0.0,0.0,0.0,0.0,0.0,0.0,0.0,0.0,0.0,0.0,0.0,0.0,0.0,0.0,0.0,0.0,0.0,0.0,0.0,0.0,0.0,0.0,0.0,0.0,0.0,0.0,0.0,-1.8696,-1.9677,-2.2015,-2.1692,-2.1173,0.0,0.0,0.0,0.0,0.0,0.0,-2.3882,-2.3772,-2.4508,-2.6352,-2.6876,-2.7725,-2.8963,-2.8919,-2.8828,-2.8676,-2.8295,-2.785,-2.7391,-2.7534,-2.7675,-2.777,-2.7635,-2.766,-2.7695,-2.6324,-2.575,-2.5592,-2.4385,-2.4177,-2.4547,-2.4266,-2.417,-2.4296,-2.5035,-2.5282,-2.5357,-2.5825,-2.5646,-2.5259,-2.5141,0.0,0.0,0.0,0.0,-2.5154,-2.5839,-2.6434,-2.6986,-2.748,-2.76,-2.76,-2.76,-2.76,-2.7425,0.0,-2.6301,-2.6401,-2.7758,0.0,0.0,0.0,-2.7521,-2.701,-2.655,-2.68,-2.72,-2.7652,-2.7695,-2.7637,-2.7478,-2.7463,-2.726,-2.6741,-2.6578,-2.6418,-2.626,-2.5295,-2.4459,-2.3785,0.0,0.0,0.0,0.0,0.0,0.0,0.0,0.0,0.0,0.0,0.0,0.0,0.0,0.0,0.0,0.0,0.0,0.0,0.0,0.0,0.0,0.0,0.0,0.0,0.0,0.0,0.0,0.0,0.0,-2.5863,-2.5551,0.0,0.0,0.0,0.0,-2.3992,-2.4557,-2.5453,-2.6629,-2.7155,-2.8282,-3.017,-2.9832,-2.9669,-2.9745,-2.8818,-2.8336,-2.8314,-2.7854,-2.7635,-2.759,-2.761,-2.7845,-2.8231,-2.7795,-2.7845,-2.817,-2.7031,-2.6542,-2.6443,-2.5622,-2.5322,-2.5426,-2.602,-2.6252,-2.6342,-2.7161,-2.745,-2.745,-2.748,-2.748,-2.7425,-2.7289,-2.6778,0.0,0.0,-2.6763,-2.6485,-2.7305,-2.7525,-2.7555,-2.7585,-2.76,-2.76,-2.76,-2.76,-2.7585,0.0,-2.7525,-2.7489,-2.7457,0.0,-2.7833,-2.734,-2.7489,-2.7692,-2.7796,-2.7731,-2.7666,-2.7695,-2.7695,-2.7463,-2.6881,-2.6837,-2.6756,-2.6537,-2.651,-2.6392,-2.6111,-2.6055,-2.538,-2.4014,-2.2816,0.0,0.0,0.0,0.0,0.0,0.0,0.0,0.0,0.0,0.0,0.0,0.0,0.0,0.0,0.0,0.0,0.0,0.0,0.0,0.0,0.0,0.0,0.0,0.0,0.0,0.0,0.0,0.0,-2.5451,-2.5979,0.0,-2.5725,-2.6497,-2.708,-2.725,-2.8295,-2.9115,-2.9448,-2.9048,-2.888,-2.9088,-2.8638,-2.8519,-2.8834,-2.8198,-2.8559,-2.9972,-2.9162,-2.9345,-3.0417,-2.9713,-2.9485,-2.9637,-2.9094,-2.8978,-2.9074,-2.822,-2.7619,-2.7225,-2.6936,-2.7091,-2.7424,-2.724,-2.7449,-2.7793,-2.7634,-2.76,-2.76,-2.76,-2.76,-2.76,-2.7524,-2.736,-2.721,-2.7464,-2.736,-2.725,-2.754,-2.7539,-2.7463,-2.7463,-2.7412,-2.7386,-2.7463,-2.7412,-2.7386,-2.7463,-2.7463,-2.768,-2.8394,-2.7945,-2.7727,-2.8331,-2.7759,-2.726,-2.7299,-2.7193,-2.7128,-2.7128,-2.7128,-2.7026,-2.6835,-2.6806,-2.6712,-2.651,-2.651,-2.6392,-2.6111,-2.5729,-2.5439,-2.5231,-2.4449,-2.3893,0.0,0.0,0.0,0.0,0.0,0.0,0.0,0.0,0.0,0.0,0.0,0.0,0.0,0.0,0.0,0.0,0.0,0.0,0.0,0.0,0.0,0.0,0.0,0.0,0.0,-2.4655,-2.6218,-2.619,-2.729,-2.7777,-2.7095,-2.8225,-2.9092,-2.932,-3.0416,-3.0877,-3.0386,-3.0053,-2.9665,-2.9195,-2.9028,-2.9138,-2.95,-2.9046,-2.9434,-3.068,-2.985,-3.0072,-3.1176,-3.0454,-3.0221,-3.0335,-2.9818,-2.9672,-2.9773,-2.894,-2.8323,-2.7914,-2.769,-2.7869,-2.8203,-2.7764,-2.7884,-2.8188,-2.775,-2.76,-2.76,-2.76,-2.76,-2.76,-2.76,-2.76,-2.76,-2.76,-2.7575,-2.7524,-2.7524,-2.7463,-2.7401,-2.7401,-2.7473,-2.7595,-2.778,-2.7813,-2.7856,-2.7976,-2.7621,-2.7565,-2.8328,-2.773,-2.7497,-2.853,-2.7688,-2.7085,-2.7508,-2.7135,-2.6866,-2.7084,-2.691,-2.6806,-2.6806,-2.7198,-2.7263,-2.6802,-2.6962,-2.684,-2.6354,-2.6357,-2.6326,-2.6217,-2.5617,-2.529,-2.5299,0.0,0.0,0.0,0.0,0.0,0.0,0.0,0.0,0.0,0.0,0.0,0.0,0.0,0.0,0.0,0.0,0.0,0.0,0.0,0.0,0.0,0.0,0.0,-2.5764,-2.6894,-2.7959,-2.8485,-2.9688,-3.0443,-3.0359,-3.0613,-3.0571,-3.0109,-3.0676,-3.0579,-2.9493,-3.0354,-3.0865,-3.0911,-3.1331,-3.1636,-3.1837,-3.1308,-3.0804,-3.0319,-2.9875,-2.9678,-2.972,-2.9693,-2.9932,-3.035,-2.9867,-2.9905,-3.0252,-2.9102,-2.8622,-2.8562,-2.7869,-2.76,-2.763,-2.76,-2.76,-2.76,-2.76,-2.76,-2.76,-2.76,-2.76,-2.76,-2.76,-2.76,-2.76,-2.76,-2.7529,-2.7431,-2.7431,-2.7446,-2.7461,-2.7461,-2.7895,-2.8367,-2.8569,-2.8874,-2.9098,-2.9098,-2.8095,-2.724,-2.724,-2.7125,-2.724,-2.7825,-2.7321,0.0,-2.8549,-2.7634,-2.7084,-2.7666,-2.7215,-2.6864,-2.6864,-2.7997,-2.8293,-2.7367,-2.784,-2.7741,-2.6807,-2.7973,-2.8054,-2.6835,-2.6241,-2.5944,-2.5932,0.0,0.0,0.0,0.0,0.0,0.0,0.0,0.0,0.0,0.0,0.0,0.0,0.0,0.0,0.0,0.0,0.0,0.0,0.0,0.0,0.0,-2.6561,-2.7964,-2.7246,-2.8641,-2.9669,-2.9464,-2.9767,-2.9853,-2.9483,-2.9908,-3.0576,-3.138,-3.2064,-3.2466,-3.2559,-3.2495,-3.2039,-3.1078,-3.0844,-3.0567,-3.0252,-3.0094,-3.0391,-3.1105,-3.0987,-3.1351,-3.22,-3.1801,-3.1707,-3.1774,-3.1225,-3.1042,-3.105,-2.9828,-2.9337,-2.9217,-2.8049,-2.7899,-2.8263,-2.7779,-2.76,-2.76,-2.76,-2.76,-2.76,-2.76,-2.76,-2.76,-2.76,-2.76,-2.76,-2.76,-2.7934,-2.8245,-2.8096,-2.8346,-2.8609,-2.8515,-2.8537,-2.8627,-2.8779,-2.8801,-2.8834,-2.8933,-2.8585,-2.8296,-2.8296,-2.8269,-2.8299,-2.8474,-2.8315,0.0,-2.8665,-2.8404,-2.8231,-2.8405,-2.8287,-2.8186,-2.8186,-2.8505,-2.8349,-2.7519,-2.7524,-2.7157,-2.6339,-2.6962,-2.7156,-2.6816,-2.713,-2.7001,0.0,0.0,0.0,0.0,0.0,0.0,0.0,0.0,0.0,0.0,0.0,0.0,0.0,0.0,0.0,0.0,0.0,0.0,0.0,0.0,0.0,0.0,-2.8457,-2.9365,-2.894,-2.9799,-3.0405,-3.0135,-3.037,-3.0462,-3.0158,-3.0748,-3.1481,-3.2352,-3.2789,-3.2943,-3.2788,-3.2714,-3.2233,-3.1258,-3.115,-3.0994,-3.0785,-3.0758,-3.101,-3.143,-3.143,-3.1821,-3.2489,-3.2176,-3.2007,-3.1994,-3.164,-3.1346,-3.0987,-2.9998,-2.9415,0.0,0.0,0.0,0.0,0.0,-2.76,-2.76,-2.76,-2.76,-2.7645,-2.7929,-2.8034,-2.8079,-2.8349,-2.8438,-2.8438,-2.8438,-2.8618,-2.8768,-2.8672,-2.8817,-2.9016,-2.8905,-2.9025,-2.9215,-2.9371,-2.9434,-2.9537,-2.9652,-2.9595,0.0,-2.9508,-2.9058,-2.8796,-2.9029,-2.884,-2.8796,-2.9029,-2.9073,-2.8971,-2.8738,-2.8927,-2.8956,-2.8723,-2.9203,0.0,0.0,0.0,-2.8326,-2.7726,-2.7384,0.0,0.0,0.0,0.0,0.0,0.0,0.0,0.0,-2.5602,-2.5106,0.0,0.0,0.0,0.0,0.0,0.0,0.0,0.0,0.0,0.0,0.0,0.0,0.0,0.0,0.0,0.0,-3.0051,-3.0621,-3.0621,-3.0621,-3.0621,-3.0621,-3.1283,-3.1714,-3.1714,-3.2315,-3.2774,-3.2975,-3.2991,-3.2588,-3.165,0.0,0.0,0.0,0.0,-3.219,-3.2299,-3.2287,-3.2035,-3.1511,-3.1511,-3.1511,-3.1511,-3.1511,-3.1511,-3.1511,-3.1511,-3.1152,-3.0567,-2.9939,-2.9295,-2.8652,-2.7974,-2.7764,-2.7824,-2.7824,-2.7824,-2.7824,-2.7824,0.0,0.0,-2.8517,-2.8712,-2.8816,-2.94,-2.9579,-2.9579,-2.9579,-2.9419,-2.9243,-2.9215,-2.9178,-2.9139,-2.9111,-2.9505,-2.9944,-3.0132,-3.0397,-3.0642,-3.0762,-3.0672,-3.0598,-3.0598,-2.9668,-2.9116,-2.961,-2.9247,-2.9102,-2.9624,-2.9697,-2.9523,-2.8985,0.0,0.0,-2.9044,-3.0133,-3.0451,-2.9593,-2.9939,-3.0092,-2.9813,-2.86,-2.8186,-2.8705,-2.7621,-2.6968,-2.6919,-2.5838,-2.588,-2.6933,-2.7077,-2.6587,0.0,0.0,0.0,0.0,0.0,0.0,0.0,0.0,0.0,0.0,0.0,0.0,0.0,0.0,0.0,-2.9247,-3.048,-3.1383,-3.1383,-3.1383,-3.1383,-3.1383,-3.205,-3.2481,-3.2481,-3.2619,-3.2774,-3.2975,-3.2991,-3.2946,-3.2872,-3.294,-3.2745,-3.2225,-3.2292,-3.2121,-3.1697,-3.1668,-3.1611,-3.1511,0.0,0.0,-3.1511,-3.1511,-3.1511,-3.1511,-3.1511,-3.1436,-3.1256,-3.0612,-2.9953,-2.9352,-2.8667,-2.8727,-2.9217,-2.9217,-2.9217,-2.9217,-2.9217,-2.9217,-2.9232,-2.934,-2.9427,-2.9415,-2.9357,-2.9374,0.0,-2.9374,-2.969,-3.0035,-2.9937,-3.0292,-3.0617,-3.0338,-3.0351,-3.0453,-3.0483,-3.054,-3.0598,-3.0642,-3.0612,-3.0598,-3.0598,-3.0409,-3.0278,-3.0409,-3.0322,-3.0278,-3.0409,-3.0423,-3.0365,-3.0249,-3.0771,-3.1105,-3.0988,-3.17,-3.1642,-3.0436,-2.9421,-2.903,-2.931,-2.8919,-2.8744,-2.8872,-2.8519,-2.8108,-2.7622,-2.738,-2.7394,-2.7579,-2.7115,-2.6512,0.0,0.0,0.0,0.0,0.0,0.0,0.0,0.0,0.0,0.0,0.0,-2.5937,-2.7729,0.0,-2.9518,-3.0314,-3.1113,-3.1598,-3.1598,-3.2227,-3.2564,-3.2199,-3.2554,-3.2859,-3.2859,-3.2917,-3.2991,-3.3086,-3.3118,-3.3006,-3.2799,-3.2788,-3.2532,-3.1966,-3.1966,-3.1796,-3.1511,-3.1511,-3.1511,-3.1511,-3.1511,-3.1511,-3.1511,-3.1511,-3.1511,-3.1511,-3.1511,-3.1316,-3.0943,-3.0313,-3.0043,-3.0013,-2.9684,-2.9564,-2.9606,-2.9606,-2.9606,-2.9606,-2.9606,-2.9606,-2.9651,-2.9939,-3.0043,-3.0076,-3.0335,-3.0397,-3.0397,-3.0312,-3.0493,-3.0673,-3.0499,-3.0646,-3.0791,-3.0642,-3.0598,-3.0598,-3.0598,-3.0598,-3.0598,-3.0598,-3.0598,-3.0598,-3.0598,-3.0598,-3.0598,-3.0598,-3.0598,-3.0598,-3.0598,-3.0843,-3.0916,-3.0641,-3.1134,-3.1395,-3.1076,-3.1351,-3.1264,-3.0641,-2.9551,-2.9059,-2.9302,-2.881,-2.8522,-2.8449,-2.8375,-2.816,-2.7805,-2.7805,-2.7805,-2.7791,-2.7453,-2.713,0.0,0.0,0.0,0.0,0.0,0.0,0.0,-2.465,-2.4676,-2.7466,-2.7458,-2.7529,-2.9486,-2.9599,-2.988,-3.1368,-3.1714,-3.1863,-3.2012,-3.3061,-3.3624,-3.3176,-3.3275,-3.3372,-3.3372,-3.3487,-3.3485,-3.3381,-3.3355,-3.3082,-3.2437,-3.2398,-3.212,-3.1524,-3.1511,-3.1511,-3.1511,-3.1511,-3.1511,-3.1511,-3.1511,-3.157,-3.169,-3.169,-3.169,-3.169,-3.157,-3.1182,-3.0672,-3.0163,-3.0253,-3.0702,-3.0702,-3.0402,-2.9968,-2.9968,-2.9968,-2.9968,-2.9968,-2.9968,-3.0043,-3.0537,-3.0702,-3.0778,-3.1302,-3.1453,-3.1395,-3.1292,-3.1161,-3.0984,-3.0821,-3.0732,-3.0642,-3.0598,-3.0598,-3.0598,-3.0598,-3.0598,-3.0598,-3.0598,-3.0598,-3.0598,-3.0598,-3.0598,-3.0598,-3.0598,-3.0598,-3.0598,-3.0598,-3.1018,-3.1134,-3.0656,-3.1134,-3.1366,-3.1019,-3.0859,-3.0786,-3.0786,-3.0072,-2.9622,-2.9593,-2.8943,-2.8539,-2.8423,-2.8364,-2.8306,-2.8186,-2.8157,-2.8157,-2.8157,-2.8157,-2.803,-2.3951,-2.3783,-2.4196,-2.4747,-2.538,-2.6465,0.0,-2.8505,-2.8343,-2.9987,-3.0662,-3.0841,-3.0488,-3.1401,-3.21,-3.1681,-3.215,-3.2796,-3.3458,-3.369,-3.4005,-3.4584,-3.4669,-3.4695,-3.4695,-3.469,-3.4505,-3.4034,-3.4009,-3.3533,-3.2453,-3.2398,-3.212,-3.1524,-3.1511,-3.1511,-3.1511,-3.1511,-3.1511,-3.1511,-3.1511,-3.1809,-3.2378,-3.2378,-3.2378,-3.2333,-3.1765,-3.1466,-3.1376,-3.1316,-3.1331,-3.1391,-3.1391,-3.1346,-3.1286,-3.1286,-3.1286,-3.1286,-3.1286,-3.1286,-3.1301,-3.1376,-3.1391,-3.1377,-3.1321,-3.1234,-3.1146,-3.1132,-3.0984,-3.0821,-3.0791,-3.0791,-3.0762,-3.0642,-3.0598,-3.0598,-3.0598,-3.0598,-3.0598,-3.0598,-3.0598,-3.0598,-3.0598,-3.0598,-3.0598,-3.0598,-3.0598,-3.0598,-3.0598,-3.067,-3.067,-3.0612,-3.1134,-3.1698,-3.2251,-3.1758,-3.1409,-3.1409,-3.0814,-3.0406,-3.0211,-3.0109,-2.999,-2.9866,-2.9685,-2.961,-2.9579,-2.9454,-2.9406,-2.9406,-2.9406,-2.8816,-2.7281,-2.6784,-2.6552,-2.8181,-2.8199,-2.8301,-3.004,-2.9831,-2.9691,-3.1145,-3.1591,-3.1622,-3.1307,-3.2044,-3.2602,-3.2299,-3.2862,-3.3442,-3.3756,-3.417,-3.4551,-3.4866,-3.4899,-3.478,-3.4472,-3.3825,-3.3361,-3.314,-3.2792,-3.2398,-3.191,-3.1881,-3.1768,-3.1511,-3.1869,-3.2079,-3.2079,-3.2452,-3.2677,-3.2677,-3.2677,-3.2617,-3.2512,-3.2512,-3.2273,-3.1899,-3.163,-3.1511,-3.1511,-3.1511,-3.1511,-3.1511,-3.1511,-3.1438,-3.138,-3.1467,-3.1511,-3.1511,-3.1511,-3.1438,-3.138,-3.138,-3.1336,-3.1249,-3.119,-3.1132,-3.1087,-3.0955,-3.0866,-3.0791,-3.0702,-3.0672,-3.0672,-3.0598,-3.0598,-3.0598,-3.0598,-3.0598,-3.0598,-3.0598,-3.0598,-3.0598,-3.0598,-3.0598,-3.0598,-3.0598,-3.0598,-3.0598,-3.0598,-3.0598,-3.0598,-3.0598,-3.0814,-3.109,-3.1366,-3.1134,-3.0974,-3.0974,-3.0622,-3.0387,-3.0282,-3.0249,-3.0097,-2.9929,-2.9853,-2.9761,-2.9682,-2.9634,-2.9602,-2.9602,-2.9602,-2.9336,-2.9477,-2.9152,-2.8889,-3.0342,-3.0058,-2.9738,-3.074,-3.0549,-3.0426,-3.1498,-3.1612,-3.1558,-3.1774,-3.2287,-3.2768,-3.2984,-3.3607,-3.4087,-3.4087,-3.4433,-3.4667,-3.4667,-3.4667,-3.4521,-3.4151,-3.3481,-3.3018,-3.2873,-3.2586,-3.2244,-3.1768,-3.2048,-3.2096,-3.178,-3.2437,-3.2781,-3.2781,-3.326,-3.3499,-3.3499,-3.3499,-3.3245,-3.2781,-3.2572,-3.2228,-3.1765,-3.1585,-3.1511,-3.1511,-3.1511,-3.1511,-3.1511,-3.1467,-3.138,-3.1307,-3.1351,-3.1395,-3.1395,-3.1395,-3.1336,-3.1263,-3.1292,-3.1234,-3.1161,-3.1161,-3.1132,-3.1043,-3.0866,-3.0762,-3.0732,-3.0642,-3.0728,-3.0843,-3.0843,-3.0974,-3.1105,-3.1105,-3.1105,-3.1105,-3.1105,-3.1105,-3.1105,-3.1105,-3.1105,-3.1105,-3.1105,-3.1105,-3.1019,-3.0656,-3.0598,-3.0598,-3.0598,-3.0598,-3.0598,-3.0598,-3.0598,-3.0598,-3.0598,-3.0447,-3.0357,-3.0235,-3.0189,-3.0021,-2.9808,-2.9808,-2.9761,-2.9665,-2.9634,-2.9602,-2.9602,-2.9602,-2.9701,-2.9796,-3.0238,-3.0732,-3.009,-3.0538,-3.114,-3.119,-3.1075,-3.0978,-3.1029,-3.0868,-3.0941,-3.1674,-3.2287,-3.2934,-3.3663,-3.4386,-3.4866,-3.4866,-3.4431,-3.4126,-3.4126,-3.4126,-3.4126,-3.4101,-3.4546,-3.4618,-3.4101,-3.4521,-3.4093,-3.2465,-3.347,-3.3606,-3.2512,-3.3125,-3.3469,-3.3469,-3.3484,-3.3499,-3.3499,-3.3499,-3.3484,-3.344,-3.2811,-3.2497,-3.2422,-3.178,-3.1511,-3.1511,-3.1511,-3.1511,-3.1511,-3.1351,-3.1307,-3.1278,-3.1161,-3.1102,-3.1102,-3.1102,-3.1117,-3.1132,-3.1263,-3.1307,-3.1278,-3.1278,-3.122,-3.1043,-3.0866,-3.0702,-3.0598,-3.0598,-3.1032,-3.1451,-3.1451,-3.1959,-3.2423,-3.2423,-3.2423,-3.2423,-3.2423,-3.2423,-3.2423,-3.2423,-3.2423,-3.2423,-3.2423,-3.2423,-3.2004,-3.0772,-3.0598,-3.0598,-3.0598,-3.0598,-3.0598,-3.0598,-3.0598,-3.0598,-3.0598,-3.0598,-3.0462,-3.0111,-3.0249,-3.0129,-2.9808,-2.9808,-2.9808,-2.9777,-2.9651,-2.9602,-2.9602,-2.9602,-2.9926,-3.058,-3.0757,-3.1086,-3.1401,-3.134,-3.119,-3.119,-3.1171,-3.1112,-3.1015,-3.1021,-3.11,-3.1292,-3.1843,-3.2471,-3.3221,-3.3801,-3.4336,-3.4833,-3.4739,-3.4618,-3.4618,-3.4618,-3.4618,-3.4618,-3.4472,-3.4134,-3.3553,-3.3747,-3.3474,-3.2518,-3.3286,-3.3561,-3.3201,-3.3799,-3.4174,-3.4174,-3.4592,-3.4831,-3.4816,-3.3918,-3.326,-3.2826,-3.2123,-3.1839,-3.1824,-3.16,-3.1438,-3.138,-3.138,-3.1322,-3.1249,-3.1292,-3.1486,-3.1767,-3.1871,-3.2046,-3.2129,-3.1457,-3.1161,-3.1117,-3.1161,-3.1383,-3.1602,-3.1481,-3.1696,-3.1999,-3.1968,-3.1905,-3.1859,-3.1859,-3.2019,-3.2147,-3.2147,-3.2353,-3.2481,-3.2481,-3.2481,-3.2481,-3.2481,-3.2481,-3.2481,-3.2481,-3.2481,-3.2481,-3.2481,-3.2481,-3.2367,-3.1917,-3.1859,-3.1859,-3.1859,-3.1467,-3.1206,-3.1206,-3.0814,-3.0598,-3.0598,-3.0477,-3.0357,-3.0249,-3.0189,-3.0052,-2.9808,-2.9808,-2.9761,-2.9651,-2.9634,-2.9602,-2.9617,-3.0024,-3.0301,-3.1365,-3.1422,-3.155,-3.1833,-3.1565,-3.119,-3.1151,-3.1131,-3.1092,-3.0975,-3.0858,-3.0827,-3.1055,-3.1382,-3.201,-3.3291,-3.3674,-3.4137,-3.5148,-3.4904,-3.4618,-3.4618,-3.4415,-3.439,-3.4626,-3.433,-3.3978,-3.3577,-3.3857,-3.371,-3.2886,-3.3683,-3.4044,-3.3874,-3.4502,-3.4846,-3.4846,-3.528,-3.5385,-3.5115,-3.3784,-3.2916,-3.2497,-3.1809,-3.1467,-3.1438,-3.1438,-3.1485,-3.1545,-3.1545,-3.1634,-3.1766,-3.1796,-3.1987,-3.2263,-3.2323,-3.2524,-3.2601,-3.203,-3.1735,-3.1629,-3.1645,-3.1893,-3.2092,-3.1968,-3.2227,-3.2576,-3.2513,-3.2481,-3.2481,-3.2481,-3.2687,-3.2861,-3.2861,-3.3035,-3.3162,-3.3162,-3.3162,-3.3162,-3.3162,-3.3162,-3.3162,-3.3162,-3.3162,-3.3162,-3.3162,-3.3162,-3.3003,-3.2539,-3.2481,-3.2481,-3.2481,-3.2104,-3.1843,-3.1843,-3.1232,-3.087,-3.087,-3.0517,-3.0251,-3.0129,-3.0311,-3.0202,-2.9744,-2.9956,-2.9907,-2.9602,-2.9827,-2.994,-2.9954,-3.0586,-3.0979,-3.2072,-3.2158,-3.209,-3.136,-3.119,-3.1171,-3.1035,-3.0995,-3.0975,-3.0912,-3.0422,-3.0223,-3.0906,-3.0979,-3.1607,-3.3754,-3.3937,-3.4286,-3.5744,-3.4889,-3.4117,-3.4149,-3.3617,-3.3503,-3.4202,-3.4242,-3.4274,-3.4274,-3.4844,-3.4707,-3.3606,-3.4653,-3.5079,-3.4563,-3.516,-3.5504,-3.5504,-3.5474,-3.51,-3.4399,-3.311,-3.2467,-3.2407,-3.178,-3.1424,-3.1337,-3.1337,-3.159,-3.2029,-3.2029,-3.2428,-3.2941,-3.2769,-3.272,-3.275,-3.262,-3.2585,-3.2646,-3.282,-3.2745,-3.2544,-3.2643,-3.272,-3.275,-3.275,-3.2747,-3.2776,-3.2632,-3.2582,-3.2582,-3.2582,-3.3064,-3.3547,-3.3547,-3.3978,-3.4414,-3.4414,-3.4414,-3.4414,-3.4414,-3.4414,-3.4414,-3.4414,-3.4414,-3.4414,-3.4414,-3.4414,-3.3978,-3.2742,-3.2582,-3.2582,-3.2582,-3.2553,-3.2571,-3.2571,-3.1818,-3.1363,-3.1363,-3.0758,-3.0246,-2.9938,-3.066,-3.0622,-2.9715,-3.0277,-3.0291,-2.9701,-3.0259,-3.054,-3.0554,-3.1232,-3.185,-3.159,-3.1458,-3.1427,-3.1241,-3.119,-3.1171,-3.1035,-3.0995,-3.0955,-3.0794,-3.0435,-3.0185,-3.0274,-3.0712,-3.1412,-3.2545,-3.3331,-3.4121,-3.5048,-3.4562,-3.4253,-3.4729,-3.4282,-3.4218,-3.4884,-3.4992,-3.501,-3.501,-3.5164,-3.4972,-3.428,-3.502,-3.5396,-3.5235,-3.5415,-3.5504,-3.5504,-3.4996,-3.4158,-3.3006,-3.2677,-3.2198,-3.1589,-3.1425,-3.153,-3.181,-3.181,-3.2088,-3.252,-3.252,-3.2574,-3.264,-3.2674,-3.2998,-3.3454,-3.3566,-3.3856,-3.4149,-3.4215,-3.3539,-3.2643,-3.2674,-3.3027,-3.3422,-3.3339,-3.3609,-3.3954,-3.3935,-3.3935,-3.3935,-3.3935,-3.4051,-3.4167,-3.4167,-3.4298,-3.4414,-3.4414,-3.4414,-3.4414,-3.4414,-3.4414,-3.4414,-3.4414,-3.4414,-3.4414,-3.4414,-3.4414,-3.4264,-3.3964,-3.3935,-3.3935,-3.3935,-3.3499,-3.3256,-3.3256,-3.2611,-3.2171,-3.2171,-3.1884,-3.1688,-3.1593,-3.1654,-3.1507,-3.1174,-3.133,-3.1279,-3.1007,-3.1176,-3.1246,-3.126,-3.1878,-3.2258,-3.1718,-3.1464,-3.1258,-3.152,-3.1348,-3.1139,-3.1314,-3.0858,-3.0456,-3.0731,-2.9738,-2.8988,-2.9576,-3.002,-3.0798,-3.2412,-3.3315,-3.417,-3.523,-3.484,-3.471,-3.5346,-3.4939,-3.4978,-3.5971,-3.5642,-3.5461,-3.5769,-3.5537,-3.5255,-3.4953,-3.5295,-3.5504,-3.5504,-3.5504,-3.5504,-3.5504,-3.4247,-3.338,-3.2946,-3.2333,-3.1796,-3.1322,-3.1575,-3.1767,-3.1924,0.0,-3.2608,-3.3048,-3.3048,-3.3158,-3.334,-3.3438,-3.3675,-3.4028,-3.4127,-3.4343,-3.4563,-3.4563,-3.4083,-3.3456,-3.3456,-3.3704,-3.3995,-3.391,-3.4124,-3.4414,-3.4414,-3.4414,-3.4414,-3.4414,-3.4414,-3.4414,-3.4414,-3.4414,-3.4414,-3.4414,-3.4414,-3.4414,-3.4414,-3.4414,-3.4414,-3.4414,-3.4414,-3.4414,-3.4414,-3.4414,-3.4414,-3.4414,-3.4414,-3.4414,-3.4414,-3.4095,-3.3877,-3.3877,-3.3231,-3.2804,-3.2804,-3.2432,-3.2145,-3.1982,-3.2207,-3.2089,-3.1636,-3.1857,-3.1838,-3.1485,-3.1766,-3.1893,-3.1907,-3.2511,-3.2806,-3.2107,-3.1769,-3.134,-3.1944,-3.1554,-3.1103,-3.1487,-3.0514,-2.9703,-3.0389,-2.8662,-2.744,-2.8799,-2.9131,-3.0038,-3.2596,-3.3364,-3.4154,-3.5644,-3.5248,-3.5044,-3.5671,-3.5305,-3.5476,-3.6726,-3.5968,-3.5646,-3.6244,-3.5797,-3.5504,-3.5504,-3.5504,-3.5504,-3.5504,-3.5504,-3.5415,-3.525,-3.3514,-3.2841,-3.3215,-3.2049,-3.1453,-3.1412,-3.1916,-3.2105,-3.2065,-3.2604,-3.3121,-3.3667,-3.3634,-3.392,-3.4414,-3.4414,-3.4414,-3.4414,-3.4414,-3.4414,-3.4414,-3.4414,-3.4414,-3.4414,-3.4414,-3.4414,-3.4414,-3.4414,-3.4414,-3.4414,-3.4414,-3.4414,-3.4414,-3.4414,-3.4414,-3.4414,-3.4414,-3.4414,-3.4414,-3.4414,-3.4414,-3.4443,-3.453,-3.4545,-3.4545,-3.4545,-3.4545,-3.4501,-3.4428,-3.4414,-3.4414,-3.4414,-3.4414,-3.4414,-3.4414,-3.4414,-3.4414,-3.4414,-3.3772,-3.3355,-3.3355,-3.2836,-3.237,-3.2014,-3.2687,-3.2629,-3.1819,-3.2292,-3.2306,-3.1738,-3.2258,-3.2525,-3.2539,-3.3073,-3.329,-3.2107,-3.1769,-3.134,-3.1944,-3.1554,-3.0871,-3.0427,-2.9697,-2.8995,-2.8658,-2.787,-2.7342,-2.7604,-2.8459,-2.9658,-3.1297,-3.2315,-3.3415,-3.4883,-3.4603,-3.4293,-3.4489,-3.4469,-3.4594,-3.4912,-3.5284,-3.5516,-3.5636,-3.5554,-3.5504,-3.5504,-3.5504,-3.5504,-3.5504,-3.5504,-3.4981,-3.3858,-3.3499,-3.2841,-3.1839,-3.1484,-3.1516,-3.1869,-3.185,-3.242,-3.3366,-3.3369,0.0,-3.447,-3.4321,-3.4312,-3.4414,-3.4414,-3.4414,-3.4414,-3.4414,-3.4414,-3.4414,-3.4414,-3.4414,-3.4414,-3.4414,-3.4414,-3.4414,-3.4414,-3.4414,-3.4414,-3.4414,-3.4414,-3.4414,-3.4414,-3.4414,-3.4414,-3.4414,-3.4414,-3.4414,-3.4414,-3.4414,-3.4559,-3.5131,-3.5232,-3.5232,-3.5232,-3.5232,-3.5058,-3.4486,-3.4414,-3.4414,-3.4414,-3.4414,-3.4414,-3.4414,-3.4414,-3.4414,-3.4414,-3.4279,-3.4187,-3.4187,-3.3936,-3.3763,-3.3695,-3.3722,-3.3565,-3.3259,-3.3358,-3.3254,-3.3002,-3.3066,-3.3122,-3.3136,-3.3234,-3.329,-3.256,-3.1996,-3.1325,-3.237,-3.1716,-3.0692,-3.007,-2.9116,-2.8112,-2.7406,-2.6175,-2.5367,-2.5819,-2.6608,-2.7785,-2.9484,-3.0967,-3.2405,-3.376,-3.3775,-3.3876,-3.4579,-3.4443,-3.462,-3.5411,-3.5462,-3.5579,-3.5943,-3.5683,-3.5504,-3.5504,-3.5504,-3.5504,-3.5504,-3.4816,-3.4322,-3.4008,-3.2991,-3.2303,-3.2019,-3.1857,-3.1841,-3.203,-3.2537,-3.3086,-3.3602,-3.3837,-3.4205,-3.4549,-3.4448,-3.4414,-3.4414,-3.4414,-3.4414,-3.4414,-3.4414,-3.4414,-3.4414,-3.4414,-3.4414,-3.4414,-3.4414,-3.4414,-3.4414,-3.4414,-3.4414,-3.4414,-3.4414,-3.4414,-3.4414,-3.4414,-3.4414,-3.4414,-3.4414,-3.4414,-3.4414,-3.4414,-3.4675,-3.5029,-3.5334,-3.5654,-3.5851,-3.5851,-3.5851,-3.5749,-3.5444,-3.5401,-3.5401,-3.5401,-3.5111,-3.4777,-3.4443,-3.4414,-3.4414,-3.4414,-3.4414,-3.4414,-3.4414,-3.4312,-3.4196,-3.4094,-3.404,-3.3917,-3.3744,-3.3744,-3.364,-3.3466,-3.3466,-3.3396,-3.329,-3.329,-3.329,-3.2777,-3.2086,-3.1295,-3.2517,-3.1742,-3.0497,-2.9697,-2.8382,-2.7054,-2.6085,-2.4301,-2.3138,-2.3848,-2.4545,-2.5623,-2.7481,-2.9312,-3.1078,-3.2659,-3.2942,-3.3413,-3.4549,-3.435,-3.4553,-3.5678,-3.5427,-3.5508,-3.6181,-3.5765,-3.5504,-3.5504,-3.5504,-3.5429,-3.5295,-3.4397,-3.3963,-3.4053,-3.2662,-3.2108,-3.2422,-3.2258,-3.2224,-3.2395,-3.3267,-3.3693,-3.3769,-3.4196,-3.4414,-3.4448,-3.4414,-3.4414,-3.4414,-3.4414,-3.4414,-3.4414,-3.4414,-3.4414,-3.4414,-3.4414,-3.4414,-3.4414,-3.4414,-3.4414,-3.4414,-3.4414,-3.4414,-3.4414,-3.4414,-3.4414,-3.4414,-3.4414,-3.4414,-3.4414,-3.4414,-3.4414,-3.4443,-3.4588,-3.5043,-3.5479,-3.5755,-3.6185,-3.6519,-3.6519,-3.6519,-3.6475,-3.633,-3.6301,-3.6301,-3.6301,-3.588,-3.5407,-3.4864,-3.4574,-3.4414,-3.4414,-3.4414,-3.4414,-3.4414,-3.4414,-3.4346,-3.4162,-3.4162,-3.4166,-3.4151,-3.4023,-3.3905,-3.3873,-3.3746,-3.357,-3.3361,-3.3361,-3.3361,-3.2032,-3.1621,-3.1157,-3.1771,-3.1291,-3.0265,-2.8638,-2.7158,-2.5722,-2.4176,-2.2697,-2.1719,-2.1934,-2.2818,-2.4003,-2.5521,-2.724,-2.9284,-3.1846,-3.2247,-3.2554,-3.3293,-3.3443,-3.3546,-3.3743,-3.4268,-3.4851,-3.5542,-3.5537,-3.5504,-3.5504,-3.5504,-3.522,-3.4623,-3.5055,-3.4472,-3.2706,-3.3095,-3.2945,-3.2228,-3.2092,-3.2557,-3.356,-3.3543,-3.3922,-3.4576,-3.4467,-3.4481,0.0,-3.4481,-3.4414,-3.4414,-3.4414,-3.4414,-3.4414,-3.4414,-3.4414,-3.4414,-3.4414,-3.4414,-3.4414,-3.4414,-3.4414,-3.4414,-3.4414,-3.4414,-3.4414,-3.4414,-3.4414,-3.4414,-3.4414,-3.4414,-3.4414,-3.4414,-3.4414,-3.4574,-3.5189,-3.5363,-3.5741,-3.6896,-3.7172,-3.7215,-3.7215,-3.7215,-3.7012,-3.6402,-3.6301,-3.6301,-3.6301,-3.6257,-3.6199,-3.6141,-3.5096,-3.4414,-3.4414,-3.4414,-3.4414,-3.4414,-3.4414,-3.438,-3.438,-3.438,-3.4573,-3.4977,-3.4396,-3.4278,-3.4696,-3.4154,-3.3793,-3.357,-3.357,-3.3466,-3.1842,-3.1444,-3.1016,-3.1792,-3.0762,-2.9095,-2.7344,-2.5907,-2.4199,-2.1605,-2.0635,-2.0161,-1.9886,-2.0516,-2.1678,-2.3517,-2.5323,-2.7419,-3.0091,-3.1155,-3.1922,-3.2621,-3.2785,-3.302,-3.347,-3.3724,-3.4337,-3.5429,-3.5504,-3.5504,-3.5504,-3.5504,-3.5385,-3.51,-3.4577,-3.3918,-3.311,-3.284,-3.2541,-3.2198,-3.275,-3.3333,-3.388,-3.3981,-3.4282,-3.4698,-3.4481,-3.4448,0.0,-3.4414,-3.4414,-3.4414,-3.4414,-3.4414,-3.4414,-3.4414,-3.4414,-3.4414,-3.4414,-3.4414,-3.4414,-3.4414,-3.4414,-3.4414,-3.4414,-3.4414,-3.4414,-3.4414,-3.4414,-3.4414,-3.4414,-3.4414,-3.4501,-3.4893,-3.498,-3.5154,-3.5793,-3.6257,-3.6693,-3.7201,-3.7593,-3.7839,-3.7839,-3.7839,-3.7752,-3.7491,-3.7447,-3.7447,-3.7447,-3.7128,-3.691,-3.691,-3.6098,-3.5546,-3.5546,-3.5198,-3.498,-3.498,-3.4617,-3.4588,-3.5,-3.4906,-3.5076,-3.5625,-3.5253,-3.4975,-3.4811,-3.4568,-3.4219,-3.3793,-3.364,-3.357,-3.1704,-3.1366,-3.0874,-3.131,-2.996,-2.8062,-2.6298,-2.4679,-2.2757,-1.9961,-1.9221,-1.8974,-1.8636,-1.9096,-2.0139,-2.2017,-2.3867,-2.5914,-2.8376,-3.0036,-3.1342,-3.2228,-3.2609,-3.3066,-3.3724,-3.3978,-3.4487,-3.5429,-3.5504,-3.5504,-3.5504,-3.5504,-3.5415,-3.5205,-3.4472,-3.3857,-3.3438,-3.3063,-3.2837,-3.2745,-3.3473,-3.3986,-3.4271,-3.4412,-3.4563,-3.4698,-3.4481,-3.4414,0.0,-3.4414,-3.4414,-3.4414,-3.4414,-3.4414,-3.4414,-3.4414,-3.4414,-3.4414,-3.4414,-3.4414,-3.4414,-3.4414,-3.4414,-3.4414,-3.4414,-3.4414,-3.4414,-3.4414,-3.4545,-3.4704,-3.4704,-3.4835,-3.5082,-3.5532,-3.5683,-3.5857,-3.646,-3.6983,-3.736,-3.7535,-3.7912,-3.8202,-3.8202,-3.8202,-3.8202,-3.8202,-3.8202,-3.8202,-3.8202,-3.7601,-3.7178,-3.7178,-3.6696,-3.6347,-3.6323,-3.6083,-3.5973,-3.5973,-3.5691,-3.5735,-3.622,-3.6071,-3.6252,-3.6835,-3.6294,-3.5725,-3.5101,-3.5101,-3.4689,-3.3909,-3.4129,-3.4179,-3.1429,-3.1369,-3.0735,-3.001,-2.8866,-2.7453,-2.5608,-2.3555,-2.1512,-1.9764,-1.8829,-1.835,-1.8472,-1.8992,-1.983,-2.1182,-2.3024,-2.4967,-2.6854,-2.8967,-3.0776,-3.2041,-3.2943,-3.3739,-3.4429,-3.5085,-3.5489,-3.5504,-3.5504,0.0,-3.5504,-3.5504,-3.519,-3.4533,-3.513,-3.475,-3.3207,-3.4065,-3.4299,-3.3979,-3.414,-3.4448,-3.4887,-3.475,-3.4698,-3.4698,-3.4481,-3.4414,0.0,-3.4414,-3.4414,-3.4414,-3.4414,-3.4414,-3.4414,-3.4414,-3.4414,-3.4414,-3.4414,-3.4414,-3.4414,-3.4414,-3.4414,-3.4414,-3.4414,-3.4414,-3.4414,-3.4414,-3.4864,-3.5392,-3.5392,-3.5807,-3.6286,-3.6301,-3.6301,-3.6475,-3.7143,-3.7302,-3.7491,-3.8072,-3.8202,-3.8202,-3.8202,-3.8202,-3.8202,-3.8202,-3.8202,-3.8202,-3.8202,-3.7438,-3.6883,-3.6883,-3.6658,-3.6446,-3.6317,-3.691,-3.7288,-3.7288,-3.7839,-3.8159,-3.8173,-3.8173,-3.835,-3.874,-3.7466,-3.6459,-3.5805,-3.5843,-3.5176,-3.393,-3.5129,-3.5514,-2.8603,-2.8774,-2.8834,-2.8236,-2.6729,-2.5124,-2.4182,-2.1993,-1.9727,-1.8215,-1.734,-1.7051,-1.7636,-1.7903,-1.9067,-2.2193,-2.348,-2.5,-2.7564,-2.9599,-3.0891,-3.1033,-3.2496,-3.3574,-3.3784,-3.4831,-3.5504,-3.5504,-3.5504,-3.5504,-3.5504,-3.5504,-3.54,-3.519,-3.4825,-3.445,-3.4095,-3.4114,-3.4154,-3.414,-3.4419,-3.4397,-3.4153,-3.4399,-3.4264,-3.3914,-3.4264,-3.4414,-3.4414,-3.4414,-3.4414,-3.4414,-3.4414,-3.4414,-3.4414,-3.4414,-3.4045,-3.3589,-3.3589,-3.3241,-3.284,-3.284,-3.3157,-3.3556,-3.3412,-3.3839,-3.4414,-3.4414,-3.4878,-3.5392,-3.5392,-3.5836,-3.6417,-3.6881,-3.6997,-3.7157,-3.7781,-3.7926,-3.782,-3.7372,-3.7323,-3.7116,-3.6543,-3.6425,-3.6425,-3.6425,-3.6425,-3.6425,-3.6425,-3.6674,-3.6688,-3.6068,-3.7405,-3.8086,-3.7461,-3.7554,-3.7915,-3.8556,-3.8347,-3.8405,-3.887,-3.877,-3.8642,-3.8549,-3.8595,-3.8079,-3.6986,-3.7035,-3.6316,-3.4916,-3.4872,-3.4737,-2.6845,-2.7152,-2.7174,-2.658,-2.492,-2.3288,-2.2712,-2.0656,-1.8567,-1.7417,-1.6677,-1.6432,-1.7198,-1.7522,-1.8826,-2.2241,-2.347,-2.4868,-2.7443,-2.9479,-3.0953,-3.157,-3.2946,-3.3858,-3.3858,-3.4861,-3.5504,-3.5504,-3.5504,-3.5504,-3.5504,-3.5504,-3.5472,-3.5392,-3.4877,-3.4589,-3.4654,-3.454,-3.446,-3.4478,-3.4758,-3.452,-3.3796,-3.3982,-3.3845,-3.3506,-3.3811,-3.4113,0.0,-3.4414,-3.423,-3.3928,-3.3928,-3.3791,-3.3534,-3.3534,-3.3206,-3.2791,-3.2791,-3.247,-3.211,-3.211,-3.2398,-3.2836,-3.3125,-3.3643,-3.4122,-3.4122,-3.461,-3.5141,-3.5141,-3.558,-3.6146,-3.6557,-3.6656,-3.6755,-3.7147,-3.7232,-3.7078,-3.6517,-3.6399,-3.6241,-3.5695,-3.5615,-3.5615,-3.5615,-3.5615,-3.5615,-3.5615,-3.6068,-3.6082,-3.5237,-3.6838,-3.7959,-3.7782,-3.8561,-3.9293,-3.9876,-3.9755,-3.9857,-4.0278,-4.0159,-3.9957,-3.9631,-3.9825,-3.9072,-3.736,-3.6502,-3.5778,-3.5252,-3.4445,-3.396,0.0,-2.6068,-2.5568,-2.4913,-2.34,-2.1903,-2.126,-1.9618,0.0,-1.7403,-1.675,-1.6488,-1.7156,-1.7856,-1.9182,-2.1772,-2.3246,-2.4776,-2.6912,-2.8908,-3.0952,-3.317,-3.4008,-3.4459,-3.4503,-3.51,-3.5504,-3.5504,-3.5504,-3.5504,-3.5504,-3.5504,-3.5392,-3.5213,-3.5225,-3.5174,-3.4994,-3.5096,-3.5063,-3.4927,-3.5027,-3.4549,-3.361,-3.3514,-3.3444,0.0,-3.3178,-3.3589,0.0,-3.4264,-3.3791,-3.3108,-3.3108,-3.2684,-3.211,-3.211,-3.2074,-3.2015,-3.2055,-3.2032,-3.1996,-3.2069,-3.2086,-3.2283,-3.3297,-3.3632,-3.3644,-3.3684,-3.4182,-3.4708,-3.4708,-3.5154,-3.5615,-3.5615,-3.5615,-3.5615,-3.5615,-3.5615,-3.5574,-3.5548,-3.5494,-3.5494,-3.5413,-3.5413,-3.5413,-3.5413,-3.5413,-3.5413,-3.5413,-3.5467,-3.521,-3.445,-3.5417,-3.6505,-3.7487,-3.963,-4.0987,-4.1068,-4.1662,-4.1953,-4.1912,-4.1912,-4.1773,-4.1437,-4.0745,-3.9305,-3.7136,-3.4825,-3.4081,-3.4899,-3.3845,-3.3116,-2.1344,0.0,-2.3099,-2.2399,-2.1444,-2.0625,0.0,-1.9278,-1.8158,-1.8013,-1.7432,-1.7171,-1.7853,-1.8883,-2.064,-2.365,-2.4907,-2.6404,-2.9013,-2.9987,-3.0975,-3.2542,-3.332,-3.3918,-3.4459,-3.51,-3.5504,-3.5504,-3.5504,-3.5504,-3.5504,-3.5359,-3.5261,-3.518,-3.5555,-3.5788,-3.5889,-3.4854,-3.4554,-3.4969,-3.4236,-3.3162,-3.1842,-3.2645,-3.2837,-3.2434,-3.2362,-3.2791,-3.3451,-3.2875,-3.2519,-3.2362,-3.2362,-3.2254,-3.211,-3.211,-3.1709,-3.1246,-3.1657,-3.1421,-3.1035,-3.16,-3.1967,-3.2267,-3.2725,-3.2979,-3.3155,-3.3576,-3.4182,-3.4708,-3.4708,-3.5154,-3.5615,-3.5615,-3.5615,-3.5615,-3.5615,-3.5615,-3.5427,-3.4827,-3.4662,-3.4454,-3.3797,-3.367,-3.367,-3.367,-3.367,-3.367,-3.367,-3.4259,-3.4512,-3.4081,-3.5867,-3.711,-3.714,-3.8667,-3.9965,-4.0647,-4.0887,-4.0617,-3.9927,-3.9883,-3.9533,-3.8734,-3.8347,-3.7643,-3.6608,-3.5745,-3.4908,-3.4138,-3.3154,-3.257,-1.9396,-2.0349,-2.1266,-2.0885,-2.024,-1.9701,-1.9701,-1.892,-1.8201,-1.8201,-1.8143,-1.8187,-1.855,-2.0438,-2.2469,-2.4123,-2.5852,-2.7851,-3.0233,-3.0996,-3.1707,-3.2706,-3.3483,-3.4114,0.0,-3.51,-3.5504,-3.5504,-3.5504,-3.5504,-3.5504,-3.5326,-3.518,-3.518,-3.5737,-3.5893,-3.5605,-3.4828,-3.4525,-3.4679,-3.378,-3.2668,-3.1438,-3.2057,-3.2073,-3.1563,-3.1563,-3.2001,-3.2648,-3.2254,-3.1892,-3.1563,-3.1563,-3.1355,-3.1046,-3.1046,-3.0915,-3.0804,-3.1112,-3.1091,-3.104,-3.1441,-3.1688,-3.1958,-3.2628,-3.2717,-3.2712,-3.326,-3.3706,-3.3955,-3.3955,-3.4206,-3.447,-3.447,-3.447,-3.447,-3.447,-3.447,-3.4317,-3.3894,-3.3823,-3.3654,-3.3197,-3.3124,-3.3124,-3.3124,-3.3124,-3.3124,-3.3124,-3.3865,-3.4192,-3.3626,-3.5487,-3.6711,-3.6603,-3.7793,-3.8944,-3.9899,-3.9942,-3.9724,-3.9197,-3.921,-3.8944,-3.8464,-3.7521,-3.6851,-3.648,-3.5007,-3.3742,-3.2676,-3.1661,-3.0905,-1.8998,-1.9641,-2.0184,-1.9981,-1.9575,-1.9261,-1.9261,-1.9014,-1.8753,-1.8651,-1.9203,-1.9682,-1.972,-2.2177,-2.4274,-2.45,-2.6832,-2.9197,-3.0791,-3.1753,-3.2555,-3.318,-3.3974,0.0,-3.4653,-3.516,-3.5504,-3.5504,-3.5472,-3.5439,-3.5439,-3.5228,-3.5192,-3.5362,-3.5817,-3.5726,-3.4996,-3.4875,-3.459,-3.4189,-3.3471,-3.2528,-3.1539,-3.1617,-3.1369,-3.0895,0.0,0.0,-3.1892,-3.1796,-3.1355,-3.072,-3.072,-3.0343,-2.9792,-2.9792,-3.0143,-3.062,-3.0708,-3.1135,-3.1612,-3.1449,-3.1512,-3.1813,-3.2679,-3.2667,-3.2441,-3.2943,-3.3124,-3.3124,-3.3124,-3.3124,-3.3124,-3.3124,-3.3124,-3.3124,-3.3124,-3.3124,-3.3124,-3.3124,-3.3124,-3.3124,-3.3124,-3.3124,-3.3124,-3.3124,-3.3124,-3.3124,-3.3124,-3.3738,-3.3933,-3.328,-3.4776,-3.5846,-3.6012,-3.6968,-3.7933,-3.872,-3.8899,-3.8944,-3.8765,-3.8751,-3.8711,-3.8586,-3.7123,-3.627,-3.609,-3.3652,-3.2062,-3.1369,-3.0313,-2.9436,-1.9949,-2.0587,-2.0518,-1.945,-1.9566,-1.9943,-1.9943,-2.0712,-2.1249,-2.0683,-2.1489,-2.2374,-2.2542,-2.3722,-2.5276,-2.7065,-2.9206,-3.0643,-3.0589,-3.1676,-3.2706,-3.3379,0.0,-3.4728,-3.5295,-3.5444,-3.5504,-3.5504,-3.5326,-3.5261,-3.5261,-3.4964,-3.5181,-3.603,-3.5658,-3.5461,-3.5497,-3.498,-3.4406,-3.3861,-3.299,-3.1975,-3.0767,-3.1248,-3.1264,-3.0857,0.0,-3.0381,-3.1044,-3.0394,-3.0075,-2.9972,-2.9972,-2.9895,-2.9792,-2.9792,-3.0143,-3.067,-3.1122,-3.1951,-3.2667,-3.17,-3.2039,-3.2767,-3.2441,-3.2629,-3.2968,-3.3056,-3.3124,-3.3124,-3.3124,-3.3124,-3.3124,-3.3124,-3.3124,-3.3124,-3.3124,-3.3124,-3.3124,-3.3124,-3.3124,-3.3124,-3.3124,-3.3124,-3.3124,-3.3124,-3.3124,-3.3124,-3.3124,-3.3197,-3.3417,-3.3721,-3.447,-3.5082,-3.5549,-3.6214,-3.6675,-3.6803,-3.7579,-3.7671,-3.6849,-3.6803,-3.6506,-3.5806,-3.5545,-3.4861,-3.3747,-3.2983,-3.2352,-3.1806,-3.1162,-3.047,-1.9262,-1.99,-2.0243,-1.9979,-2.0757,-2.1707,-2.2062,-2.2599,-2.2831,-2.2156,-2.3316,-2.4408,-2.4159,-2.5714,-2.7606,-2.9397,-3.0031,-3.0631,-3.156,-3.2301,-3.3133,-3.4142,0.0,-3.516,-3.5474,-3.5504,-3.5439,-3.5359,-3.5261,-3.5148,-3.5034,-3.4817,-3.4942,-3.5472,-3.5361,-3.5125,-3.4733,-3.4695,-3.4313,-3.3581,-3.273,-3.1883,-3.1047,-3.1286,-3.0983,-3.0279,0.0,-2.9998,-3.0279,-2.9934,-2.9967,-3.0206,-2.9905,-2.998,-3.0269,-3.0557,-3.0821,-3.111,-3.165,-3.2378,-3.2943,-3.2102,-3.2403,-3.3074,-3.2754,-3.2867,-3.3124,-3.3124,-3.3124,-3.3124,-3.3124,-3.3124,-3.3124,-3.3124,-3.3124,-3.3124,-3.3124,-3.3124,-3.3124,-3.3124,-3.3124,-3.3124,-3.3124,-3.3124,-3.3124,-3.3124,-3.3124,-3.3124,-3.3124,-3.3124,-3.3169,-3.3432,-3.4211,-3.4781,-3.5031,-3.5868,-3.6405,-3.6405,-3.6815,-3.6862,-3.6405,-3.6081,-3.5759,-3.5381,-3.4645,-3.3962,-3.3365,-3.2822,-3.2278,-3.1734,-3.1499,-3.0954,-1.8719,-1.9425,-2.0344,-2.1727,-2.2603,-2.3302,-2.3963,-2.4457,-2.4602,-2.3954,-2.5125,-2.6166,-2.5887,-2.7754,-2.9664,-3.0661,-3.0411,-3.0672,-3.2313,-3.2956,-3.361,-3.4614,-3.5157,-3.5439,-3.5439,-3.5246,-3.5067,-3.4902,-3.4639,-3.4457,-3.4308,-3.4167,-3.4286,-3.4733,-3.4691,-3.4511,-3.4152,-3.4247,-3.3995,-3.3313,-3.2714,-3.2114,-3.1587,-3.1587,-3.0997,-2.998,-2.998,-2.998,-2.998,-2.9842,-3.0193,-3.0746,-3.0193,-3.0319,-3.0846,-3.1248,-3.1474,-3.165,-3.2064,-3.2591,-3.298,-3.2403,-3.2604,-3.3124,-3.3124,-3.3124,-3.3124,-3.3124,-3.3124,-3.3124,-3.3124,-3.3124,-3.3124,-3.3124,-3.3124,-3.3124,-3.3124,-3.3124,-3.3124,-3.3124,-3.3124,-3.3124,-3.3124,-3.3124,-3.3124,-3.3124,-3.3124,-3.3124,-3.3124,-3.3124,-3.3124,-3.3124,-3.3947,-3.4575,-3.4668,-3.5491,-3.5981,-3.5981,-3.6094,-3.6169,-3.6169,-3.5642,-3.5245,-3.5119,-3.4145,-3.3513,-3.3433,-3.2847,-3.2352,-3.1944,-3.1901,-3.1466,-1.936,-2.0265,-2.1498,-2.5187,-2.4941,-2.3992,-2.4607,-2.6129,-2.7246,-2.6634,-2.7084,-2.7779,-2.8468,-2.9739,-3.0514,-3.0046,-3.0939,-3.1729,-3.1998,0.0,-3.4029,-3.4231,-3.4842,-3.5213,-3.5213,-3.4543,-3.4041,-3.3934,-3.3045,-3.25,-3.25,-3.2349,-3.2896,-3.4197,-3.3298,-3.3409,-3.4639,-3.37,-3.3197,-3.3124,-3.3074,-3.2717,-3.2152,-3.2152,-3.1574,-3.0557,-3.0557,-3.0557,-3.052,-3.0005,-3.0407,-3.1286,-3.0758,-3.0871,-3.1336,-3.1373,-3.1712,-3.2152,-3.2202,-3.2591,-3.298,-3.2403,-3.2604,-3.3124,-3.3124,-3.3124,-3.3124,-3.3124,-3.3124,-3.3124,-3.3124,-3.3124,-3.3124,-3.3124,-3.3124,-3.3124,-3.3124,-3.3124,-3.3124,-3.3124,-3.3124,-3.3124,-3.3124,-3.3124,-3.3124,-3.3124,-3.3124,-3.3124,-3.3124,-3.3124,-3.3124,-3.3124,-3.3608,-3.4161,-3.4675,-3.4801,-3.4839,-3.4839,-3.527,-3.5558,-3.5558,-3.5031,-3.4537,-3.4022,-3.3935,-3.3646,-3.3131,-3.3093,-3.3013,-3.2975,-3.2747,-3.232,-1.9045,-2.0512,-2.2161,-2.3581,-2.4681,-2.5675,-2.6793,-2.7313,-2.7514,-2.7391,-2.7508,-2.7739,-2.8036,-2.9513,-3.0596,-3.033,-3.1022,-3.1941,-3.282,-3.3428,-3.398,-3.4471,-3.4393,-3.4322,-3.4322,-3.3616,-3.3066,-3.2869,-3.25,-3.2249,-3.2169,-3.2146,-3.2519,-3.3362,-3.287,-3.3006,-3.3898,-3.3356,-3.3124,-3.3124,-3.3124,-3.2767,-3.2215,-3.2215,-3.1625,-3.062,-3.062,-3.0419,-3.0093,-2.988,-3.0419,-3.1399,-3.1549,-3.1524,-3.1436,-3.1775,-3.2039,-3.2265,-3.2629,-3.2893,-3.3043,-3.2817,-3.2893,-3.3124,-3.3124,-3.3124,-3.3124,-3.3124,-3.3124,-3.3124,-3.3124,-3.3124,-3.3124,-3.3124,-3.3124,-3.3124,-3.3124,-3.3124,-3.3124,-3.3124,-3.3124,-3.3124,-3.3124,-3.3124,-3.3124,-3.3124,-3.3124,-3.3124,-3.3124,-3.3124,-3.3124,-3.3124,-3.3571,-3.4123,-3.4675,-3.468,-3.468,-3.468,-3.4868,-3.4994,-3.4994,-3.45,-3.411,-3.3897,-3.3558,-3.3282,-3.3124,-3.2939,-3.2853,-3.2853,-3.2636,-3.2321,-1.8759,-2.0563,-2.2535,-2.2766,-2.4079,-2.5778,-2.7432,-2.7779,-2.7838,-2.8211,-2.8421,-2.8396,-2.7992,-2.9723,-3.1034,-3.0541,-3.1198,-3.1994,-3.2668,-3.3006,-3.3378,-3.3891,-3.3575,-3.3353,-3.3353,-3.2621,-3.2069,-3.1852,-3.1646,-3.1489,-3.1368,-3.1368,-3.171,-3.2409,-3.2289,-3.2572,-3.3313,-3.3154,-3.3124,-3.3124,-3.3124,-3.2867,-3.2491,-3.2491,-3.1888,-3.0859,-3.0859,-3.0557,-3.0043,-2.9867,-3.0419,-3.1461,-3.2202,-3.2252,-3.1964,-3.2353,-3.2491,-3.2541,-3.2943,-3.3124,-3.3124,-3.3124,-3.3124,-3.3124,-3.3124,-3.3124,-3.3124,-3.3124,-3.3124,-3.3124,-3.3124,-3.3124,-3.3124,-3.3124,-3.3206,-3.3332,-3.3332,-3.347,-3.3545,-3.337,-3.3332,-3.3282,-3.3106,-3.3124,-3.3124,-3.3124,-3.3124,-3.3124,-3.3124,-3.3124,-3.3124,-3.3124,-3.342,-3.3796,-3.4173,-3.4198,-3.4198,-3.4198,-3.4198,-3.4274,-3.4462,-3.3935,-3.3633,-3.3633,-3.3269,-3.3124,-3.3124,-3.2896,-3.2766,-3.2711,-3.255,-3.2344,-1.8648,-2.0422,-2.2609,-2.347,-2.3518,-2.3889,-2.6005,-2.7355,-2.8446,-2.939,-3.007,-3.0108,-2.8825,-3.0728,-3.204,-3.0618,-3.148,-3.2027,-3.1241,-3.1671,-3.2146,-3.2285,-3.2285,-3.2285,-3.2285,-3.1609,-3.1106,-3.0895,0.0,0.0,0.0,-2.9792,-3.0294,-3.1361,-3.1399,-3.1938,-3.3111,-3.3124,-3.3124,-3.3124,-3.3124,-3.3124,-3.3124,-3.3124,-3.2466,-3.1386,-3.1399,-3.1097,-3.057,-3.003,-3.0432,-3.1512,-3.2641,-3.3124,-3.3124,-3.3124,-3.3124,-3.3124,-3.3124,-3.3124,-3.3124,-3.3124,-3.3124,-3.3124,-3.3124,-3.3124,-3.3124,-3.3124,-3.3124,-3.3124,-3.3124,-3.3124,-3.3124,-3.3124,-3.3508,-3.3909,-3.3909,-3.4336,-3.4517,-3.401,-3.3909,-3.3734,-3.3224,-3.3124,-3.3124,-3.3124,-3.3124,-3.3124,-3.3124,-3.3124,-3.3124,-3.3124,-3.3124,-3.3124,-3.3124,-3.3124,-3.3124,-3.3124,-3.3124,-3.3319,-3.3872,-3.337,-3.3124,-3.3124,-3.3124,-3.3124,-3.3124,-3.3124,-3.2939,-3.2711,-3.2711,-3.2593,-1.9451,-2.126,-2.318,-2.3207,-2.3944,-2.4865,-2.5508,-2.603,-2.6568,-2.7277,-2.8598,-2.9246,-2.7936,-2.9437,-3.0733,-3.0253,-3.0891,-3.1553,-3.1762,-3.1965,-3.211,-3.2132,-3.1659,-3.1315,-3.1315,-3.0658,0.0,0.0,0.0,0.0,0.0,-3.0168,-3.0683,-3.1361,-3.1763,-3.2328,-3.3111,-3.3124,-3.3124,-3.3124,-3.3124,-3.3124,-3.3124,-3.3124,-3.2466,-3.1411,-3.18,-3.1235,-3.008,-3.067,-3.1336,-3.2039,-3.278,-3.3124,-3.3124,-3.3124,-3.3124,-3.3124,-3.3124,-3.3124,-3.3124,-3.3124,-3.3124,-3.3156,-3.3533,-3.3658,-3.3658,-3.3658,-3.3658,-3.3658,-3.3658,-3.3658,-3.3658,-3.3658,-3.394,-3.425,-3.443,-3.442,-3.4437,-3.4467,-3.4474,-3.4424,-3.4261,-3.3909,-3.3658,-3.3658,-3.3319,-3.3124,-3.3124,-3.3124,-3.3124,-3.3124,-3.3124,-3.3124,-3.3124,-3.3124,-3.3124,-3.3124,-3.3124,-3.3156,-3.3319,-3.3169,-3.3124,-3.3124,-3.3124,-3.3124,-3.3124,-3.2896,-3.2766,-3.2711,-3.255,-3.2344,-2.0467,-2.2254,-2.3914,-2.3347,-2.3998,-2.4851,-2.5207,-2.5831,-2.6438,-2.6747,-2.8135,-2.9053,-2.8174,-2.9623,-3.0739,-3.0168,-3.0619,-3.1053,-3.1167,-3.1182,-3.1182,-3.1182,-3.0746,-3.0444,0.0,0.0,0.0,0.0,0.0,0.0,0.0,-3.0105,-3.0633,-3.1361,-3.1712,-3.2265,-3.3111,-3.3124,-3.3124,-3.3124,-3.3124,-3.3124,-3.3124,-3.3124,-3.2579,-3.1712,-3.1625,-3.1022,-3.0181,-3.1035,-3.1587,-3.1989,-3.3006,-3.3269,-3.3149,-3.3319,-3.3269,-3.3124,-3.3124,-3.3124,-3.3124,-3.3124,-3.3124,-3.3144,-3.347,-3.3571,-3.3571,-3.3571,-3.3633,-3.3765,-3.3765,-3.4,-3.423,-3.4095,-3.4379,-3.4686,-3.4869,-3.4952,-3.4993,-3.4998,-3.5006,-3.4931,-3.4718,-3.4449,-3.4223,-3.4223,-3.3935,-3.3658,-3.3432,-3.3407,-3.3319,-3.3106,-3.3124,-3.3124,-3.3124,-3.3124,-3.3124,-3.3124,-3.3124,-3.3124,-3.3124,-3.3124,-3.3124,-3.3124,-3.3124,-3.3124,-3.3124,-3.2939,-3.2797,-3.2711,-3.2593,-3.2388,-2.1369,-2.3077,-2.4556,-2.3712,-2.3758,-2.4249,-2.5222,-2.6464,-2.7416,-2.7309,-2.8315,-2.9164,-2.9097,-3.0635,-3.1476,-3.0181,-3.0433,-3.0582,-2.9895,-2.9792,-2.9792,-2.9792,-2.9792,0.0,0.0,0.0,0.0,0.0,0.0,0.0,0.0,-2.9842,-3.0331,-3.1361,-3.1436,-3.1989,-3.3111,-3.3124,-3.3124,-3.3124,-3.3124,-3.3124,-3.3124,-3.3124,-3.2754,-3.2152,-3.1085,-3.0645,-3.0721,-3.1198,-3.1424,-3.1625,-3.3206,-3.352,-3.3174,-3.3633,-3.3508,-3.3124,-3.3124,-3.3124,-3.3124,-3.3124,-3.3124,-3.3124,-3.3174,-3.3156,-3.3156,-3.3206,-3.3364,-3.3573,-3.3623,-3.4197,-3.4733,-3.4412,-3.4814,-3.5223,-3.5282,-3.5668,-3.5914,-3.5624,-3.5571,-3.5374,-3.4919,-3.4735,-3.4685,-3.468,-3.468,-3.4537,-3.4035,-3.3972,-3.3784,-3.3282,-3.3275,-3.3275,-3.3275,-3.3181,-3.3156,-3.3156,-3.3149,-3.3124,-3.3124,-3.3124,-3.3124,-3.3124,-3.3124,-3.3124,-3.3124,-3.3124,-3.2939,-3.2711,-3.2711,-3.2593,-2.0517,-2.2092,-2.357,-2.3717,-2.3874,-2.4411,-2.6045,-2.6758,-2.714,-2.7291,-2.7864,-2.8491,-2.8885,-2.9668,-3.019,-2.9885,-2.9961,-2.996,-2.983,-2.9792,-2.9792,0.0,0.0,0.0,0.0,0.0,0.0,0.0,0.0,0.0,-2.9792,-3.0206,-3.0733,-3.1373,-3.1813,-3.2365,-3.3111,-3.3124,-3.3124,0.0,-3.3124,-3.3124,-3.3124,-3.3124,-3.2754,-3.2152,-3.1085,-3.0846,-3.1235,-3.1348,-3.165,-3.2114,-3.293,-3.3181,-3.3093,-3.3206,-3.3224,-3.3124,-3.3124,-3.3124,-3.3124,-3.3124,-3.3124,-3.3156,-3.3596,-3.3589,-3.3488,-3.3923,-3.3954,-3.397,-3.4401,-3.4684,-3.4785,-3.4708,-3.509,-3.5591,-3.5794,-3.5928,-3.6013,-3.616,-3.6066,-3.5839,-3.5727,-3.5201,-3.4675,-3.4413,-3.4577,-3.4675,-3.4562,-3.455,-3.45,-3.4387,-3.4374,-3.4374,-3.4374,-3.3972,-3.3721,-3.3721,-3.3319,-3.3124,-3.3124,-3.3124,-3.3124,-3.3124,-3.3124,-3.3124,-3.3124,-3.3124,-3.2939,-3.2711,-3.2711,-3.2463,-2.0377,-2.1692,-2.2867,-2.3869,-2.4008,-2.4311,-2.5833,-2.6441,-2.6879,-2.7427,-2.8036,-2.8674,-2.9239,-2.9591,-2.9792,-2.9792,-2.9792,-2.9792,-2.9792,-2.9792,0.0,0.0,0.0,0.0,0.0,0.0,0.0,0.0,0.0,-2.9792,-2.9792,-3.0068,-3.0583,-3.1361,-3.1675,-3.2227,-3.3111,-3.3124,-3.3124,-3.3124,-3.3124,-3.3124,-3.3124,-3.3124,-3.2754,-3.2164,-3.1348,-3.1107,-3.1276,-3.1276,-3.156,-3.2109,-3.2671,-3.2982,-3.3124,-3.3124,-3.3124,-3.3124,-3.3124,-3.3124,-3.3081,-3.2939,-3.2896,-3.2946,-3.3115,-3.307,-3.3032,-3.3316,-3.3408,-3.3497,-3.3928,-3.4047,-3.4103,-3.4196,-3.474,-3.5287,-3.5382,-3.5429,-3.555,-3.5941,-3.5908,-3.5812,-3.5812,-3.5482,-3.5139,-3.495,-3.5053,-3.5046,-3.4785,-3.4761,-3.4649,-3.4388,-3.4363,-3.4363,-3.4363,-3.4102,-3.3973,-3.4107,-3.3756,-3.355,-3.3683,-3.3683,-3.3477,-3.3124,-3.3124,-3.3124,-3.3124,-3.3124,-3.3025,-3.2896,-3.2766,-3.2593,-2.0018,-2.1408,-2.2484,-2.4004,-2.4073,-2.4104,-2.5293,-2.5983,-2.6688,-2.7644,-2.8375,-2.9025,-2.9679,-2.9792,-2.9792,-2.974,-2.9753,-2.9792,-2.974,0.0,0.0,0.0,0.0,0.0,0.0,0.0,0.0,0.0,0.0,-2.9792,-2.9792,-2.988,-3.0382,-3.1361,-3.1486,-3.2026,-3.3111,-3.3124,-3.3124,-3.3124,-3.3124,-3.3124,-3.3124,-3.3124,-3.2704,-3.2051,-3.1687,-3.1313,-3.0947,-3.1187,-3.1535,-3.1953,-3.2543,-3.2896,-3.3124,-3.3124,-3.3068,-3.3025,-3.3025,-3.3025,-3.2952,-3.2723,-3.2636,-3.2636,-3.2431,-3.2344,-3.2369,-3.2455,-3.2589,-3.2819,-3.3142,-3.3341,-3.3439,-3.3562,-3.4184,-3.4715,-3.4715,-3.4836,-3.508,-3.5534,-3.5572,-3.5524,-3.5524,-3.5524,-3.5572,-3.5572,-3.562,-3.5508,-3.5053,-3.5004,-3.4878,-3.4468,-3.4373,-3.4373,-3.4419,-3.4333,-3.4317,-3.4487,-3.423,-3.4135,-3.4351,-3.4293,-3.3973,-3.3326,-3.3226,-3.3126,-3.2995,-3.2995,-3.2952,-3.2896,-3.268,-3.255,-1.8207,-2.0641,-2.2801,-2.3667,-2.3854,-2.4071,-2.5106,-2.59,-2.6688,-2.7761,-2.8334,-2.8899,-2.9653,-2.9792,-2.9702,-2.9509,-2.965,-2.9702,0.0,0.0,0.0,0.0,0.0,0.0,0.0,0.0,0.0,0.0,-2.9792,-2.9792,-2.9792,-3.0244,-3.0771,-3.1373,-3.1851,-3.2416,-3.3111,-3.3124,-3.3124,-3.3124,-3.3124,-3.3124,-3.3124,-3.3124,-3.2503,-3.1524,-3.1926,-3.1439,-3.0425,-3.1589,-3.1984,-3.1995,-3.2727,-3.3068,-3.3124,-3.3124,-3.2939,-3.2754,-3.2754,-3.2636,-3.2475,-3.2431,-3.2431,-3.2431,-3.2388,-3.2257,-3.2135,-3.2642,-3.2656,-3.2656,-3.3148,-3.3608,-3.3872,-3.3647,-3.4044,-3.4468,-3.4468,-3.4988,-3.5534,-3.5608,-3.5416,-3.5271,-3.5271,-3.5271,-3.532,-3.5572,-3.5812,-3.5943,-3.5868,-3.5856,-3.5914,-3.6063,-3.5874,-3.5839,-3.605,-3.5612,-3.5303,-3.5349,-3.4657,-3.4396,-3.4635,-3.4441,-3.4231,-3.4127,-3.3667,-3.3107,-3.2475,-3.2475,-3.2388,-3.2169,-3.2125,-3.1981,-1.7691,-2.0017,-2.1855,-2.3733,-2.3977,-2.3998,-2.4699,-2.5346,-2.6106,-2.7295,-2.7934,-2.8517,-2.9279,-2.9495,-2.9482,-2.9275,-2.9326,0.0,0.0,0.0,0.0,0.0,0.0,0.0,0.0,0.0,0.0,0.0,-2.9792,-2.9792,-2.9792,-3.0319,-3.0859,-3.1373,-3.1926,-3.2491,-3.3111,-3.3124,-3.3124,-3.3124,-3.2939,-3.2939,-3.3068,-3.2939,-3.2489,-3.1863,-3.1989,-3.1617,-3.0959,-3.144,-3.1864,-3.2228,-3.2562,-3.2779,-3.2896,-3.2896,-3.2723,-3.2519,-3.2519,-3.2475,-3.24,-3.2213,-3.2169,-3.2169,-3.2025,-3.1937,-3.1898,-3.2128,-3.234,-3.2596,-3.2904,-3.3317,-3.3608,-3.3599,-3.3891,-3.4184,-3.4184,-3.4556,-3.4966,-3.5114,-3.5175,-3.5223,-3.5223,-3.532,-3.5464,-3.5572,-3.5716,-3.5764,-3.5764,-3.5764,-3.5812,-3.5943,-3.586,-3.5812,-3.5943,-3.5732,-3.5643,-3.5784,-3.5172,-3.4989,-3.5422,-3.5177,-3.4807,-3.4348,-3.4082,-3.3744,-3.3297,-3.3297,-3.3252,-3.3118,-3.2982,-3.2835,-1.6938,-1.8765,-2.0171,-2.297,-2.3492,-2.3478,-2.4172,-2.4843,-2.5576,0.0,-2.7185,-2.7756,-2.8319,-2.8903,-2.9275,-2.9052,0.0,0.0,0.0,0.0,0.0,0.0,0.0,0.0,0.0,0.0,0.0,0.0,-2.9702,-2.9702,-2.9702,-3.0392,-3.0997,-3.1386,-3.2064,-3.2641,-3.3124,-3.3124,-3.3081,-3.2995,-3.281,-3.2766,-3.2909,-3.2723,-3.2487,-3.2272,-3.2144,-3.1858,-3.1449,-3.1467,-3.1846,-3.24,-3.24,-3.2519,-3.2667,-3.2636,-3.2463,-3.2313,-3.2313,-3.2257,-3.2213,-3.1981,-3.1937,-3.1893,-3.1761,-3.1813,-3.1922,-3.1922,-3.2274,-3.2741,-3.2911,-3.3218,-3.3523,-3.3651,-3.3956,-3.4186,-3.4186,-3.4342,-3.4606,-3.4848,-3.5078,-3.5223,-3.538,-3.5524,-3.562,-3.5668,-3.5716,-3.5716,-3.5716,-3.5716,-3.5716,-3.5812,-3.5668,-3.5668,-3.58,-3.5764,-3.5812,-3.6098,-3.5656,-3.5608,-3.6098,-3.586,-3.5376,-3.4734,-3.4647,-3.4361,-3.3827,-3.3827,-3.3827,-3.3827,-3.3642,-3.3353,-1.5182,-1.6353,-1.777,-2.0659,-2.1624,-2.2228,-2.3544,-2.459,-2.5324,-2.5384,-2.5973,-2.6502,-2.6526,-2.7941,-2.9052,0.0,0.0,0.0,0.0,0.0,0.0,0.0,0.0,0.0,0.0,0.0,0.0,0.0,-2.9419,-2.9419,-2.9419,-3.0638,-3.1361,-3.1386,-3.2466,-3.3086,-3.3124,-3.3124,-3.2982,-3.2711,-3.2723,-3.2593,-3.2444,-3.2431,-3.2419,-3.2394,-3.2599,-3.213,-3.1272,-3.2012,-3.2363,-3.24,-3.24,-3.2519,-3.268,-3.2475,-3.2257,-3.2038,-3.2038,-3.1893,-3.1705,-3.1705,-3.1705,-3.1705,-3.1705,-3.2034,-3.2454,-3.2454,-3.2839,-3.3248,-3.3248,-3.3621,-3.3958,-3.3994,-3.4402,-3.4739,-3.4739,-3.4787,-3.4848,-3.5114,-3.5175,-3.5368,-3.5872,-3.5764,-3.5668,-3.5968,-3.5968,-3.5968,-3.5968,-3.5968,-3.6098,-3.631,-3.5895,-3.58,-3.631,-3.6146,-3.6098,-3.6358,-3.6098,-3.6098,-3.6358,-3.6146,-3.5847,-3.5523,-3.5547,-3.4806,-3.3331,-3.3331,-3.3331,-3.3331,-3.3331,-3.2735,-1.373,-1.4908,-1.6187,-1.8816,-2.0054,-2.084,-2.1576,-2.232,-2.3058,-2.3741,-2.4086,-2.4547,-2.5451,-2.6673,0.0,0.0,0.0,0.0,0.0,0.0,0.0,0.0,0.0,0.0,0.0,0.0,0.0,0.0,0.0,-2.9028,-2.8585,-3.0248,-3.0989,-3.0509,-3.1559,-3.2133,-3.2133,-3.2624,-3.281,-3.2711,-3.2376,-3.23,-3.2388,-3.2213,-3.2125,-3.2169,-3.2213,-3.2059,-3.1726,-3.1909,-3.2025,-3.2125,-3.2125,-3.2213,-3.2245,-3.2169,-3.1981,-3.1805,-3.1805,-3.1761,-3.1765,-3.2082,-3.2202,-3.2262,-3.2599,-3.2851,-3.3008,-3.3008,-3.3368,-3.3765,-3.3765,-3.4114,-3.4498,-3.4498,-3.4643,-3.4775,-3.4775,-3.4932,-3.5078,-3.5175,-3.532,-3.5524,-3.5716,-3.5668,-3.562,-3.5716,-3.5716,-3.5716,-3.5716,-3.5716,-3.5764,-3.5895,-3.586,-3.586,-3.5895,-3.5955,-3.5656,-3.4933,-3.4593,-3.4227,-3.3787,-3.3563,-3.3388,-3.3289,-3.3289,-3.3621,-3.427,-3.3573,-3.3233,-3.3221,-3.2525,-3.1971,-1.2022,-1.2982,-1.4119,-1.6782,-1.8265,-1.9329,-2.0354,-2.1138,-2.1852,-2.2429,-2.2827,-2.3279,-2.3939,-2.4717,0.0,0.0,0.0,0.0,0.0,0.0,0.0,0.0,0.0,0.0,0.0,0.0,0.0,0.0,0.0,0.0,-2.7614,-2.923,-3.0109,-2.9942,-3.0714,-3.1258,-3.148,-3.1977,-3.2351,-3.2593,-3.1837,-3.156,-3.1649,-3.1137,-3.1059,-3.1383,-3.1383,-3.1572,-3.1893,-3.1761,-3.1805,-3.1981,-3.195,-3.1937,-3.1994,-3.1937,-3.1805,-3.1741,-3.1922,-3.1994,-3.2034,-3.2587,-3.2767,-3.2839,-3.3176,-3.3404,-3.3537,-3.3537,-3.3909,-3.421,-3.3801,-3.4014,-3.4372,-3.4726,-3.4775,-3.4677,-3.4323,-3.4677,-3.5078,-3.5175,-3.532,-3.5464,-3.5572,-3.562,-3.562,-3.562,-3.5307,-3.5211,-3.556,-3.5271,-3.5211,-3.5572,-3.5668,-3.5716,-3.562,-3.5668,-3.5259,-3.4091,-3.3845,-3.3327,-3.2342,-3.2151,-3.2061,-3.2022,-3.2022,-3.2588,-3.3709,-3.3001,-3.2639,-3.265,-3.1931,-3.1421,0.0,0.0,0.0,-1.4586,-1.6232,-1.7685,-1.996,-2.1215,-2.1822,-2.1498,-2.2208,-2.2697,-2.1907,0.0,0.0,0.0,0.0,0.0,0.0,0.0,0.0,0.0,0.0,0.0,0.0,0.0,0.0,0.0,-2.7435,-2.7139,-2.6483,-2.7603,-2.8729,-2.9727,-3.0011,-3.0418,-3.1078,-3.119,-3.1593,-3.23,-3.1048,-3.0351,-3.0125,-2.9143,-2.9235,-3.0215,-3.017,-3.0734,-3.1661,-3.1661,-3.1749,-3.1893,-3.1705,-3.1761,-3.195,-3.1761,-3.1717,-3.1813,-3.231,-3.2515,-3.2611,-3.314,-3.3308,-3.3308,-3.3332,-3.3634,-3.3971,-3.3971,-3.433,-3.447,-3.3461,-3.3201,-3.3411,-3.447,-3.4726,-3.4421,-3.3362,-3.3967,-3.4775,-3.5078,-3.5175,-3.5223,-3.5512,-3.5524,-3.5524,-3.5464,-3.4605,-3.4299,-3.5368,-3.4605,-3.4397,-3.5416,-3.532,-3.532,-3.556,-3.532,-3.4811,-3.3993,-3.3895,-3.3365,-3.223,-3.218,-3.209,-3.1869,-3.1869,-3.1768,-3.1524,-3.1524,-3.1524,-3.1524,-3.1524,-3.0908,-0.9804,0.0,0.0,0.0,0.0,0.0,-1.7314,-1.8689,-1.9614,-1.9696,-2.0392,-2.0962,0.0,0.0,0.0,0.0,0.0,0.0,0.0,0.0,0.0,0.0,0.0,0.0,0.0,0.0,0.0,0.0,-2.5902,-2.5975,-2.5294,-2.6368,-2.7541,-2.8694,-2.8623,-2.8612,-2.8786,-2.9361,-2.9738,-2.9932,-2.9418,-2.9189,-2.9096,-2.8819,-2.9235,-3.017,-2.9418,-2.9704,-3.0633,-3.0633,-3.0215,-2.9704,-3.0351,-3.0633,-3.0767,-3.1427,-3.197,-3.2286,-3.2442,-3.2755,-3.3152,-3.3669,-3.3837,-3.3897,-3.4282,-3.3943,-3.3401,-3.3401,-3.2998,-3.26,-3.3101,-3.2639,-3.2286,-3.34,-3.3051,-3.2387,-3.2083,-3.2297,-3.2789,-3.3857,-3.4054,-3.4054,-3.4152,-3.4005,-3.3598,-3.2839,-3.2437,-3.2387,-3.2689,-3.3139,-3.3549,-3.3857,-3.4665,-3.5126,-3.503,-3.4409,-3.3549,-3.2336,-3.1502,-3.0535,-2.946,-2.9408,-2.9355,-2.9313,-2.9313,-2.927,-2.9217,-2.9984,-3.039,-3.0338,-2.9576,-2.9059,-0.9703,-0.9868,-1.0346,-1.1623,0.0,0.0,-1.6064,-1.7502,-1.864,0.0,-2.0053,-2.0566,0.0,0.0,0.0,0.0,0.0,0.0,0.0,0.0,0.0,0.0,0.0,0.0,0.0,-2.5579,-2.5453,-2.4584,-2.4946,-2.503,-2.4584,-2.5461,-2.6322,-2.7098,-2.7248,-2.7474,-2.7746,-2.8215,-2.8598,-2.9004,-2.8355,-2.8075,-2.8075,-2.7626,-2.7992,-2.8912,-2.8355,-2.8402,-2.8958,-2.8958,-2.8866,-2.8773,-2.9326,-2.9567,-2.9681,-3.0411,-3.0882,-3.131,-3.2172,-3.2665,-3.3102,-3.4055,-3.4018,-3.3726,-3.4021,-3.34,-3.2538,-3.2538,-3.1728,-3.1154,-3.2235,-3.1728,-3.1154,-3.2286,-3.2033,-3.1472,-3.1011,-3.0908,-3.1257,-3.2538,-3.2789,-3.2789,-3.2789,-3.2639,-3.2336,-3.1677,-3.1216,-3.1062,-3.1524,-3.1717,-3.2022,-3.2488,-3.325,-3.3648,-3.3461,-3.3039,-3.2224,-3.0949,-3.0287,-2.9418,-2.8344,-2.8291,-2.8291,-2.8291,-2.8291,-2.8291,-2.8291,-2.89,-2.9207,-2.9207,-2.8601,-2.8291,-0.9813,-0.9767,-0.9951,-1.0717,-1.2009,0.0,-1.5593,-1.694,-1.8109,0.0,-2.0217,-2.0576,0.0,0.0,0.0,0.0,0.0,0.0,0.0,0.0,0.0,0.0,0.0,0.0,-2.4185,-2.4925,-2.5061,-2.433,-2.4339,-2.4326,-2.4227,-2.4756,-2.5241,-2.5493,-2.6074,-2.6726,-2.7352,-2.74,-2.7814,-2.8634,-2.7568,-2.7047,-2.6999,-2.61,-2.6235,-2.7179,-2.7094,-2.7136,-2.7272,-2.7177,-2.761,-2.8355,-2.8495,-2.8574,-2.8672,-2.9117,-2.9393,-2.9755,-3.16,-3.2233,-3.2555,-3.3962,-3.3808,-3.3001,-3.3001,-3.2286,-3.137,-3.1268,-3.0494,-2.9974,-3.1114,-3.0546,-3.0026,-3.1165,-3.1319,-3.0959,-2.9922,-2.9713,-3.0026,-3.1062,-3.1319,-3.1421,-3.1421,-3.1421,-3.137,-3.1268,-3.039,-3.0078,-3.1114,-3.0442,-3.0287,-3.1319,-3.1524,-3.1575,-3.1575,-3.1472,-3.0959,-2.9974,-2.9775,-2.9313,-2.8344,-2.8291,-2.8291,-2.8291,-2.8291,-2.8291,-2.8291,-2.8291,-2.8291,-2.8291,-2.8291,-2.8291,-1.053,-1.018,-1.0291,-1.0781,-1.1375,0.0,-1.3987,-1.505,-1.5993,0.0,-1.7885,-1.8354,0.0,0.0,0.0,0.0,0.0,0.0,0.0,0.0,0.0,0.0,0.0,0.0,-2.2411,-2.2577,-2.2717,-2.2863,-2.3199,-2.3638,-2.4182,-2.4427,-2.4861,-2.5493,-2.5748,-2.5927,-2.6062,-2.6062,-2.6149,-2.6332,-2.61,-2.6014,-2.6014,-2.5781,-2.6235,-2.7142,-2.6322,-2.6687,-2.7682,-2.6872,-2.6467,-2.638,-2.72,-2.7714,-2.8166,-2.9009,-2.9818,-3.0564,-3.0948,-3.1417,-3.181,-3.2101,-3.2083,-3.1931,-3.1931,-3.1114,-3.0026,-2.9217,-2.8804,-2.8857,-2.9932,-2.9418,-2.891,-2.9974,-2.9576,-2.8857,-2.8644,-2.8601,-2.8698,-2.891,-2.9618,-3.0235,-3.0235,-3.0235,-2.9932,-2.9059,-2.8751,-2.8698,-2.891,-2.9513,-2.9974,-3.0235,-3.1062,-3.1575,-3.1575,-3.0753,-3.013,-2.9922,-2.9112,-2.8495,-2.8291,-2.8291,-2.8291,-2.8291,-2.8291,-2.8291,-2.8291,-2.8291,-2.8291,-2.8291,-2.8291,-2.8291,-1.1531,-1.0596,-1.0032,-1.037,-1.0503,0.0,0.0,-1.3462,-1.435,-1.5804,-1.675,-1.7267,-1.722,0.0,0.0,0.0,0.0,0.0,0.0,0.0,0.0,0.0,0.0,0.0,0.0,-2.1758,-2.206,-2.248,-2.2705,-2.3061,-2.3624,-2.4118,-2.4568,-2.4933,-2.5439,-2.5693,-2.5693,-2.5693,-2.5693,-2.5693,-2.5693,-2.5693,-2.5693,-2.5693,-2.6084,-2.6749,-2.6241,-2.6596,-2.7412,-2.6665,-2.6387,-2.6417,-2.6883,-2.714,-2.726,-2.8173,-2.8826,-2.9352,-3.0123,-3.051,-3.0856,-3.1421,-3.1216,-3.0753,-3.0753,-2.9974,-2.9006,-2.8451,-2.8291,-2.8441,-2.8953,-2.8698,-2.8451,-2.8953,-2.8698,-2.8291,-2.8291,-2.8291,-2.8291,-2.8291,-2.8751,-2.9112,-2.9112,-2.9112,-2.89,-2.8398,-2.8291,-2.8291,-2.8291,-2.8751,-2.9112,-2.9112,-2.9628,-2.9932,-2.9932,-2.9418,-2.9112,-2.9112,-2.8601,-2.8291,-2.8291,-2.8291,-2.8291,-2.8291,-2.8291,-2.8291,-2.8291,-2.8291,-2.8291,-2.8291,-2.8291,-2.8291,-1.2478,-1.1142,-1.0083,-0.9977,-0.9844,-1.0058,0.0,0.0,0.0,0.0,0.0,0.0,0.0,0.0,0.0,0.0,0.0,0.0,0.0,0.0,0.0,0.0,0.0,0.0,0.0,-2.1765,-2.2256,-2.2266,-2.2725,-2.3008,-2.2974,-2.3861,-2.4414,-2.4414,-2.5235,-2.5693,-2.5693,-2.5693,-2.5693,-2.5693,-2.5693,-2.5693,-2.5693,-2.5771,-2.6055,-2.6396,-2.6475,-2.6699,-2.6992,-2.6738,-2.6787,-2.7012,-2.6924,-2.6787,-2.6719,-2.7464,-2.7767,-2.799,-2.9191,-2.9565,-2.9723,-3.065,-3.0338,-2.9565,-2.9565,-2.9006,-2.8291,-2.8291,-2.8291,-2.8291,-2.8291,-2.8291,-2.8291,-2.8291,-2.8291,-2.8291,-2.8291,-2.8291,-2.8291,-2.8291,-2.8291,-2.8291,-2.8291,-2.8291,-2.8291,-2.8291,-2.8291,-2.8291,-2.8291,-2.8291,-2.8291,-2.8291,-2.8291,-2.8291,-2.8291,-2.8291,-2.8291,-2.8291,-2.8291,-2.8291,-2.8291,-2.8291,-2.8291,-2.8291,-2.8291,-2.8291,-2.8291,-2.8291,-2.8291,-2.8291,-2.8291,-2.8291,-1.3046,-1.2149,-1.1639,-1.0106,-0.9973,-1.0213,-1.0237,0.0,-1.0507,-1.119,0.0,0.0,0.0,0.0,0.0,0.0,0.0,0.0,-1.4328,0.0,0.0,0.0,0.0,0.0,0.0,0.0,-2.2969,-2.1453,-2.3486,-2.4141,-2.2666,-2.375,-2.4414,-2.4414,-2.5235,-2.5693,-2.5693,-2.5693,-2.5693,-2.5693,-2.5693,-2.5693,-2.5703,-2.6143,-2.6338,-2.6406,-2.6787,-2.6973,-2.7041,-2.7383,-2.7314,-2.6982,-2.6602,-2.6894,-2.7581,-2.7679,-2.7953,-2.8286,-2.8432,-2.8495,-2.8495,-2.8654,-2.8601,-2.8495,-2.8495,-2.8398,-2.8291,-2.8291,-2.8291,-2.8291,-2.8291,-2.8291,-2.8291,-2.8291,-2.8291,-2.8291,-2.8291,-2.8291,-2.8291,-2.8291,-2.8291,-2.8291,-2.8291,-2.8291,-2.8291,-2.8291,-2.8291,-2.8291,-2.8291,-2.8291,-2.8291,-2.8291,-2.8291,-2.8291,-2.8291,-2.8291,-2.8291,-2.8291,-2.8291,-2.8291,-2.8291,-2.8291,-2.8291,-2.8291,-2.8291,-2.8291,-2.8291,-2.8291,-2.8291,-2.8291,-2.8291,-2.8291,-1.5145,-1.3699,-1.2533,-1.1554,-1.0481,-0.9676,-0.9802,0.0,-0.9036,0.0,0.0,0.0,0.0,0.0,0.0,0.0,-1.2024,0.0,0.0,0.0,0.0,0.0,0.0,0.0,0.0,0.0,0.0,0.0,0.0,-2.3735,-2.2886,-2.3812,-2.4414,-2.4414,-2.5235,-2.5693,-2.5693,-2.5693,-2.5693,-2.5693,-2.5693,-2.582,-2.6123,-2.6309,-2.666,-2.7139,-2.7314,-2.7529,-2.7754,-2.7748,-2.7705,-2.7715,-2.7295,-2.7395,-2.7748,-2.7939,-2.8144,-2.8291,-2.8291,-2.8291,-2.8291,-2.8291,-2.8291,-2.8291,-2.8291,-2.8291,-2.8291,-2.8291,-2.8291,-2.8291,-2.8291,-2.8291,-2.8291,-2.8291,-2.8291,-2.8291,-2.8291,-2.8291,-2.8291,-2.8291,-2.8291,-2.8291,-2.8291,-2.8291,-2.8291,-2.8291,-2.8291,-2.8291,-2.8291,-2.8291,-2.8291,-2.8291,-2.8291,-2.8291,-2.8291,-2.8291,-2.8291,-2.8291,-2.8291,-2.8291,-2.8291,-2.8291,-2.8291,-2.8291,-2.8291,-2.8291,-2.8291,-2.8291,-2.8291,-2.8291,-2.8291,-2.8291,-1.6008,0.0,0.0,0.0,0.0,0.0,0.0,0.0,0.0,0.0,0.0,0.0,0.0,0.0,0.0,0.0,0.0,-1.0125,0.0,0.0,0.0,0.0,0.0,0.0,0.0,0.0,0.0,0.0,0.0,0.0,-2.2799,-2.3721,-2.4297,-2.4414,-2.5235,-2.5693,-2.5693,-2.5693,-2.5693,-2.5693,-2.5693,-2.5967,-2.6396,-2.6504,-2.6963,-2.7728,-2.7836,-2.7949,-2.8105,-2.792,-2.7949,-2.8105,-2.7963,-2.7832,-2.7881,-2.8174,-2.8291,-2.8291,-2.8291,-2.8291,-2.8291,-2.8291,-2.8291,-2.8291,-2.8291,-2.8291,-2.8291,-2.8291,-2.8291,-2.8291,-2.8291,-2.8291,-2.8291,-2.8291,-2.8291,-2.8291,-2.8291,-2.8291,-2.8291,-2.8291,-2.8291,-2.8291,-2.8291,-2.8291,-2.8291,-2.8291,-2.8291,-2.8291,-2.8291,-2.8291,-2.8291,-2.8291,-2.8291,-2.8291,-2.8291,-2.8291,-2.8291,-2.8291,-2.8291,-2.8291,-2.8291,-2.8291,-2.8291,-2.8291,-2.8291,-2.8291,-2.8291,-2.8291,-2.8291,-2.8291,-2.8291,-2.8291,0.0,0.0,0.0,-1.2569,0.0,0.0,0.0,0.0,-0.9793,0.0,0.0,0.0,0.0,0.0,0.0,0.0,0.0,0.0,0.0,0.0,0.0,0.0,0.0,0.0,0.0,0.0,0.0,0.0,0.0,0.0,-2.2041,-2.3125,-2.3994,-2.4404,-2.5235,-2.5693,-2.5693,-2.5693,-2.5693,-2.5693,-2.5693,-2.5967,-2.6396,-2.6807,-2.7236,-2.7738,-2.8096,-2.8047,-2.7767,-2.8115,-2.8047,-2.7777,-2.8125,-2.8271,-2.8271,-2.8291,-2.8291,-2.8291,-2.8291,-2.8291,-2.8291,-2.8291,-2.8291,-2.8291,-2.8291,-2.8291,-2.8291,-2.8291,-2.8291,-2.8291,-2.8291,-2.8291,-2.8291,-2.8291,-2.8291,-2.8291,-2.8291,-2.8291,-2.8291,-2.8291,-2.8291,-2.8291,-2.8291,-2.8291,-2.8291,-2.8291,-2.8291,-2.8291,-2.8291,-2.8291,-2.8291,-2.8291,-2.8291,-2.8291,-2.8291,-2.8291,-2.8291,-2.8291,-2.8291,-2.8291,-2.8291,-2.8291,-2.8291,-2.8291,-2.8291,-2.8291,-2.8291,-2.8291,-2.8291,-2.8291,-2.8291,-2.8291,0.0,0.0,-1.4743,-1.4123,0.0,0.0,0.0,0.0,0.0,0.0,0.0,0.0,0.0,0.0,0.0,0.0,0.0,0.0,0.0,0.0,0.0,0.0,0.0,0.0,0.0,0.0,0.0,0.0,0.0,0.0,0.0,-2.3096,-2.3857,-2.3994,-2.4844,-2.5439,-2.5684,-2.5693,-2.5693,-2.5693,-2.6025,-2.6387,-2.6816,-2.7246,-2.7676,-2.8086,-2.8232,-2.8213,-2.8096,-2.8232,-2.8203,-2.8096,-2.8232,-2.8291,-2.8291,-2.8291,-2.8291,-2.8291,-2.8291,-2.8291,-2.8291,-2.8291,-2.8291,-2.8291,-2.8291,-2.8291,-2.8291,-2.8291,-2.8291,-2.8291,-2.8291,-2.8291,-2.8291,-2.8291,-2.8291,-2.8291,-2.8291,-2.8291,-2.8291,-2.8291,-2.8291,-2.8291,-2.8291,-2.8291,-2.8291,-2.8291,-2.8291,-2.8291,-2.8291,-2.8291,-2.8291,-2.8291,-2.8291,-2.8291,-2.8291,-2.8291,-2.8291,-2.8291,-2.8291,-2.8291,-2.8291,-2.8291,-2.8291,-2.8291,-2.8291,-2.8291,-2.8291,-2.8291,-2.8291,-2.8291,-2.8291,-2.8291,-1.6473,-1.5683,0.0,-1.4951,-1.4406,0.0,-1.3641,0.0,-1.2078,0.0,0.0,0.0,0.0,0.0,0.0,0.0,0.0,0.0,0.0,-0.688,0.0,0.0,0.0,0.0,0.0,0.0,0.0,0.0,0.0,0.0,0.0,0.0,-2.3408,-2.3564,-2.4587,-2.5205,-2.5498,-2.5615,-2.5693,-2.5693,-2.6025,-2.6455,-2.7021,-2.7305,-2.7744,-2.8291,-2.8291,-2.8291,-2.8291,-2.8291,-2.8291,-2.8291,-2.8291,-2.8291,-2.8291,-2.8291,-2.8291,-2.8291,-2.8291,-2.8291,-2.8291,-2.8291,-2.8291,-2.8291,-2.8291,-2.8291,-2.8291,-2.8291,-2.8291,-2.8291,-2.8291,-2.8291,-2.8291,-2.8291,-2.8291,-2.8291,-2.8291,-2.8291,-2.8291,-2.8291,-2.8291,-2.8291,-2.8291,-2.8291,-2.8291,-2.8291,-2.8291,-2.8291,-2.8291,-2.8291,-2.8291,-2.8291,-2.8291,-2.8291,-2.8291,-2.8291,-2.8291,-2.8291,-2.8291,-2.8291,-2.8291,-2.8291,-2.8359,-2.8516,-2.8369,-2.8369,-2.8516,-2.8369,-2.8291,-2.8291,-2.8291,-2.8291]},{"header":{"parameterUnit":"m.s-1","parameterCategory":1,"la1":30.6,"la2":29.2853,"lo1":-89.7004,"lo2":-87.6739,"dx":0.0162,"dy":0.0183,"nx":112,"ny":82,"refTime":"2022-11-29T18:00:00:Z","depth":0,"parameterNumber":3,"parameterNumberName":"V-component_of_WINDS"},"data":[0.0,0.0,0.0,0.0,0.0,0.0,0.0,0.0,0.0,0.0,0.0,0.0,0.0,0.0,0.0,0.0,0.0,0.0,0.0,0.0,0.0,0.0,0.0,0.0,0.0,0.0,0.0,0.0,0.0,0.0,0.0,0.0,0.0,0.0,0.0,0.0,0.0,0.0,0.0,0.0,0.0,0.0,0.0,0.0,0.0,0.0,0.0,0.0,0.0,0.0,0.0,0.0,0.0,0.0,0.0,0.0,0.0,0.0,0.0,0.0,0.0,0.0,0.0,0.0,0.0,0.0,0.0,0.0,0.0,0.0,0.0,0.0,0.0,0.0,0.0,0.0,0.0,0.0,0.0,0.0,0.0,0.0,0.0,0.0,0.0,0.0,0.0,0.0,0.0,0.0,1.5366,1.754,1.8654,1.903,1.8545,1.8828,1.8501,1.7318,0.0,0.0,0.0,0.0,0.0,0.0,0.0,0.0,0.0,0.0,0.0,0.0,0.0,0.0,0.0,0.0,0.0,0.0,0.0,0.0,0.0,0.0,0.0,0.0,0.0,0.0,0.0,0.0,0.0,0.0,0.0,0.0,0.0,0.0,0.0,0.0,0.0,0.0,0.0,0.0,0.0,0.0,0.0,0.0,0.0,0.0,0.0,0.0,0.0,0.0,0.0,0.0,0.0,0.0,0.0,0.0,0.0,0.0,0.0,0.0,0.0,0.0,0.0,0.0,0.0,0.0,0.0,0.0,0.0,0.0,0.0,0.0,0.0,0.0,0.0,0.0,0.0,0.0,0.0,0.0,0.0,0.0,0.0,0.0,0.0,0.0,0.0,0.0,0.0,0.0,0.0,0.0,0.0,0.0,0.0,0.0,0.0,0.0,0.0,0.0,0.0,0.0,0.0,0.0,1.5954,1.8291,1.9032,1.9267,1.903,1.9292,1.8901,1.7461,0.0,0.0,0.0,0.0,0.0,0.0,0.0,0.0,0.0,0.0,0.0,0.0,0.0,0.0,0.0,0.0,0.0,0.0,0.0,0.0,0.0,0.0,0.0,0.0,0.0,0.0,0.0,0.0,0.0,0.0,0.0,0.0,0.0,0.0,0.0,0.0,0.0,0.0,0.0,0.0,0.0,0.0,0.0,0.0,0.0,0.0,0.0,0.0,0.0,0.0,0.0,0.0,0.0,0.0,0.0,0.0,0.0,0.0,0.0,0.0,0.0,0.0,0.0,0.0,0.0,0.0,0.0,0.0,0.0,0.0,0.0,0.0,0.0,0.0,0.0,0.0,0.0,0.0,0.0,0.0,0.0,0.0,0.0,0.0,0.0,0.0,0.0,0.0,0.0,0.0,0.0,0.0,0.0,0.0,0.0,0.0,0.0,0.0,0.0,0.0,0.0,0.0,0.0,1.6584,1.7893,1.9114,2.04,2.0782,1.9942,2.0221,1.9829,1.8358,1.7514,0.0,0.0,0.0,0.0,0.0,0.0,0.0,0.0,0.0,0.0,0.0,0.0,0.0,0.0,0.0,0.0,0.0,0.0,0.0,0.0,0.0,0.0,0.0,0.0,0.0,0.0,0.0,0.0,0.0,0.0,0.0,0.0,0.0,0.0,0.0,0.0,0.0,0.0,0.0,0.0,0.0,0.0,0.0,0.0,0.0,0.0,0.0,0.0,0.0,0.0,0.0,0.0,0.0,0.0,0.0,0.0,0.0,0.0,0.0,0.0,0.0,0.0,0.0,0.0,0.0,0.0,0.0,0.0,0.0,0.0,0.0,0.0,0.0,0.0,0.0,0.0,0.0,0.0,0.0,0.0,0.0,0.0,0.0,0.0,0.0,0.0,0.0,0.0,0.0,0.0,0.0,0.0,0.0,0.0,0.0,0.0,0.0,0.0,0.0,0.0,0.0,0.0,1.8531,1.9816,1.9884,2.1434,2.1952,2.0668,2.0953,2.0507,1.888,1.7925,0.0,0.0,0.0,0.0,0.0,0.0,0.0,0.0,0.0,0.0,0.0,0.0,0.0,0.0,0.0,0.0,0.0,0.0,0.0,0.0,0.0,0.0,0.0,0.0,0.0,0.0,0.0,0.0,0.0,0.0,0.0,0.0,0.0,0.0,0.0,0.0,0.0,0.0,0.0,0.0,0.0,0.0,0.0,0.0,0.0,0.0,0.0,0.0,0.0,0.0,0.0,0.0,0.0,0.0,0.0,0.0,0.0,0.0,0.0,0.0,0.0,0.0,0.0,0.0,0.0,0.0,0.0,0.0,0.0,0.0,0.0,0.0,0.0,0.0,0.0,0.0,0.0,0.0,0.0,0.0,0.0,0.0,0.0,0.0,0.0,0.0,0.0,0.0,0.0,0.0,0.0,0.0,0.0,0.0,0.0,0.0,0.0,0.0,0.0,0.0,0.0,0.0,1.9633,2.1031,2.0488,2.1446,2.1729,2.077,2.0994,2.0302,1.82,1.7877,0.0,0.0,0.0,0.0,0.0,0.0,0.0,0.0,0.0,0.0,0.0,0.0,0.0,0.0,0.0,0.0,0.0,0.0,0.0,0.0,0.0,0.0,0.0,0.0,0.0,0.0,0.0,0.0,0.0,0.0,0.0,0.0,0.0,0.0,0.0,0.0,0.0,0.0,0.0,0.0,0.0,0.0,0.0,0.0,0.0,0.0,0.0,0.0,0.0,0.0,0.0,0.0,0.0,0.0,0.0,0.0,0.0,0.0,0.0,0.0,0.0,0.0,0.0,0.0,0.0,0.0,0.0,0.0,0.0,0.0,0.0,0.0,0.0,0.0,0.0,0.0,0.0,0.0,0.0,0.0,0.0,0.0,0.0,0.0,0.0,0.0,0.0,0.0,0.0,0.0,0.0,0.0,0.0,0.0,0.0,0.0,0.0,0.0,0.0,0.0,0.0,0.0,1.9849,2.1249,2.1138,2.2447,2.3035,2.2305,2.2452,2.1693,1.9624,0.0,0.0,0.0,0.0,0.0,0.0,0.0,0.0,0.0,0.0,0.0,0.0,0.0,0.0,0.0,0.0,0.0,0.0,0.0,0.0,0.0,0.0,0.0,0.0,0.0,0.0,0.0,0.0,0.0,0.0,0.0,0.0,0.0,0.0,0.0,0.0,0.0,0.0,0.0,0.0,0.0,0.0,0.0,0.0,0.0,0.0,0.0,0.0,0.0,0.0,0.0,0.0,0.0,0.0,0.0,0.0,0.0,0.0,0.0,0.0,0.0,0.0,0.0,0.0,0.0,0.0,0.0,0.0,0.0,0.0,0.0,0.0,0.0,0.0,0.0,0.0,0.0,0.0,0.0,0.0,0.0,0.0,0.0,0.0,0.0,0.0,0.0,0.0,0.0,0.0,0.0,0.0,0.0,0.0,0.0,0.0,0.0,0.0,0.0,0.0,0.0,0.0,1.8792,2.081,2.2177,2.2314,2.3386,2.3864,2.3319,2.342,2.2631,2.0597,0.0,0.0,0.0,0.0,0.0,0.0,0.0,0.0,0.0,0.0,0.0,0.0,0.0,0.0,0.0,0.0,0.0,0.0,0.0,0.0,0.0,0.0,0.0,0.0,0.0,0.0,0.0,0.0,0.0,0.0,0.0,0.0,0.0,0.0,0.0,0.0,0.0,0.0,0.0,0.0,0.0,0.0,0.0,0.0,0.0,0.0,0.0,0.0,0.0,0.0,0.0,0.0,0.0,0.0,0.0,0.0,0.0,0.0,0.0,0.0,0.0,0.0,0.0,0.0,0.0,0.0,0.0,0.0,0.0,0.0,0.0,0.0,0.0,0.0,0.0,0.0,0.0,0.0,0.0,0.0,0.0,0.0,0.0,0.0,0.0,0.0,0.0,0.0,0.0,0.0,0.0,0.0,0.0,0.0,0.0,0.0,0.0,0.0,0.0,0.0,0.0,0.0,2.0616,2.2729,2.4083,2.4083,2.4083,2.3906,2.3444,2.36,2.283,0.0,0.0,0.0,0.0,0.0,0.0,0.0,0.0,0.0,0.0,0.0,0.0,0.0,0.0,0.0,0.0,0.0,0.0,0.0,0.0,0.0,0.0,0.0,0.0,0.0,0.0,0.0,0.0,0.0,0.0,0.0,0.0,0.0,0.0,0.0,0.0,0.0,0.0,0.0,0.0,0.0,0.0,0.0,0.0,0.0,0.0,0.0,0.0,0.0,0.0,0.0,0.0,0.0,0.0,0.0,0.0,0.0,0.0,0.0,0.0,0.0,0.0,0.0,0.0,0.0,0.0,0.0,0.0,0.0,0.0,0.0,0.0,0.0,0.0,0.0,0.0,0.0,0.0,0.0,0.0,0.0,0.0,0.0,0.0,0.0,0.0,0.0,0.0,0.0,0.0,0.0,0.0,0.0,0.0,0.0,0.0,0.0,0.0,0.0,0.0,0.0,0.0,0.0,1.9952,2.206,2.3485,2.3485,2.3835,2.4047,2.3893,2.3937,2.3476,2.2242,0.0,0.0,0.0,0.0,0.0,0.0,0.0,0.0,0.0,0.0,0.0,0.0,0.0,0.0,0.0,0.0,0.0,0.0,0.0,0.0,0.0,0.0,0.0,0.0,0.0,0.0,0.0,0.0,0.0,0.0,0.0,0.0,0.0,0.0,0.0,0.0,0.0,0.0,0.0,0.0,0.0,0.0,0.0,0.0,0.0,0.0,0.0,0.0,0.0,0.0,0.0,0.0,0.0,0.0,0.0,0.0,0.0,0.0,0.0,0.0,0.0,0.0,0.0,0.0,0.0,0.0,0.0,0.0,0.0,0.0,0.0,0.0,0.0,0.0,0.0,0.0,0.0,0.0,0.0,0.0,0.0,0.0,0.0,0.0,0.0,0.0,0.0,0.0,0.0,0.0,0.0,0.0,0.0,0.0,0.0,0.0,0.0,0.0,0.0,0.0,0.0,0.0,2.0335,2.2296,2.3717,2.4174,2.4135,2.4217,2.4439,2.4288,2.3837,2.3081,0.0,0.0,0.0,0.0,0.0,0.0,0.0,0.0,0.0,0.0,0.0,0.0,0.0,0.0,0.0,0.0,0.0,0.0,0.0,0.0,0.0,0.0,0.0,0.0,0.0,0.0,0.0,0.0,0.0,0.0,0.0,0.0,0.0,0.0,0.0,0.0,0.0,0.0,0.0,0.0,0.0,0.0,0.0,0.0,0.0,0.0,0.0,0.0,0.0,0.0,0.0,0.0,0.0,0.0,0.0,0.0,0.0,0.0,0.0,0.0,0.0,0.0,0.0,0.0,0.0,0.0,0.0,0.0,0.0,0.0,0.0,0.0,0.0,0.0,0.0,0.0,0.0,0.0,0.0,0.0,0.0,0.0,0.0,0.0,0.0,0.0,0.0,0.0,0.0,0.0,0.0,0.0,0.0,0.0,0.0,0.0,0.0,0.0,0.0,0.0,0.0,0.0,2.1368,2.3013,2.453,2.5597,2.4736,2.4347,2.4953,2.456,2.4039,2.3512,0.0,0.0,0.0,0.0,0.0,0.0,0.0,0.0,0.0,0.0,0.0,0.0,0.0,0.0,0.0,0.0,0.0,0.0,0.0,0.0,0.0,0.0,0.0,0.0,0.0,0.0,0.0,0.0,0.0,0.0,0.0,0.0,0.0,0.0,0.0,0.0,0.0,0.0,0.0,0.0,0.0,0.0,0.0,0.0,0.0,0.0,0.0,0.0,0.0,0.0,0.0,0.0,0.0,0.0,0.0,0.0,0.0,0.0,0.0,0.0,1.49,0.0,0.0,0.0,0.0,0.0,0.0,0.0,0.0,0.0,0.0,0.0,0.0,0.0,0.0,0.0,0.0,0.0,0.0,0.0,0.0,0.0,0.0,0.0,0.0,0.0,0.0,0.0,0.0,0.0,0.0,0.0,0.0,0.0,0.0,0.0,0.0,0.0,0.0,0.0,0.0,0.0,2.142,2.3013,2.4387,2.5097,2.453,2.4347,2.4953,2.4468,2.4121,2.4121,2.3594,0.0,0.0,0.0,0.0,0.0,0.0,0.0,0.0,0.0,0.0,0.0,0.0,0.0,0.0,0.0,0.0,0.0,0.0,0.0,0.0,0.0,0.0,0.0,0.0,0.0,0.0,0.0,0.0,0.0,0.0,0.0,0.0,0.0,0.0,0.0,0.0,0.0,0.0,0.0,0.0,0.0,0.0,0.0,0.0,0.0,0.0,0.0,0.0,0.0,0.0,0.0,0.0,0.0,0.0,0.0,0.0,0.0,0.0,0.0,0.0,1.5383,0.0,0.0,0.0,0.0,0.0,0.0,0.0,0.0,0.0,0.0,0.0,0.0,0.0,0.0,0.0,0.0,0.0,0.0,0.0,0.0,0.0,0.0,0.0,0.0,0.0,0.0,0.0,0.0,0.0,0.0,0.0,0.0,0.0,0.0,0.0,0.0,0.0,0.0,0.0,0.0,2.1511,2.3013,2.4439,2.5288,2.487,2.4753,2.5328,2.4857,2.4429,2.4229,2.4057,0.0,0.0,0.0,0.0,0.0,0.0,0.0,0.0,0.0,0.0,0.0,0.0,0.0,0.0,0.0,0.0,0.0,0.0,0.0,0.0,0.0,0.0,0.0,0.0,0.0,0.0,0.0,0.0,0.0,0.0,0.0,0.0,0.0,0.0,0.0,0.0,0.0,0.0,0.0,0.0,0.0,0.0,0.0,0.0,0.0,0.0,0.0,0.0,0.0,0.0,0.0,0.0,0.0,1.9232,1.9661,1.9661,2.0128,2.0236,1.998,1.8384,1.7458,1.7113,1.7252,0.0,0.0,0.0,0.0,0.0,0.0,0.0,0.0,0.0,0.0,0.0,0.0,0.0,0.0,0.0,0.0,0.0,0.0,0.0,0.0,0.0,0.0,0.0,0.0,2.0688,2.1322,1.9661,0.0,0.0,0.0,0.0,0.0,0.0,0.0,0.0,0.0,0.0,0.0,2.1824,2.3221,2.4622,2.5576,2.5249,2.5188,2.5628,2.5145,2.4622,2.4122,2.4361,2.4027,0.0,0.0,0.0,0.0,0.0,0.0,0.0,0.0,0.0,0.0,0.0,0.0,0.0,0.0,0.0,0.0,0.0,0.0,0.0,0.0,0.0,0.0,0.0,0.0,0.0,0.0,0.0,0.0,0.0,0.0,0.0,0.0,1.29,1.3271,0.0,0.0,0.0,0.0,0.0,0.0,0.0,0.0,0.0,0.0,0.0,0.0,0.0,1.824,1.8142,1.9226,1.9979,2.0409,2.0323,2.0291,2.0292,2.0362,2.0372,2.0359,2.0657,0.0,1.9468,1.8543,0.0,0.0,0.0,0.0,0.0,0.0,0.0,0.0,0.0,0.0,0.0,0.0,0.0,0.0,0.0,0.0,0.0,0.0,0.0,0.0,0.0,0.0,2.1958,2.1895,2.238,2.2807,0.0,2.0594,1.889,1.8838,1.8846,0.0,0.0,0.0,0.0,0.0,0.0,0.0,2.2883,2.4028,2.494,2.5097,2.5044,2.5031,2.5097,2.4557,2.4191,2.4096,2.4141,2.3997,2.3603,2.3353,0.0,0.0,0.0,0.0,0.0,0.0,0.0,0.0,0.0,0.0,0.0,0.0,0.0,0.0,0.0,0.0,0.0,0.0,0.0,0.0,0.0,0.0,0.0,0.0,0.0,0.0,0.0,0.0,0.0,1.3417,1.3874,1.527,1.511,1.5121,0.0,0.0,0.0,0.0,0.0,0.0,0.0,0.0,0.0,1.861,1.9337,1.9514,1.904,2.0112,2.0421,1.9973,2.0906,2.1214,2.0942,2.1614,2.191,2.1928,2.2242,2.212,2.1659,2.0648,2.0236,2.0207,0.0,0.0,0.0,0.0,1.9156,1.9209,1.9635,1.98,1.9851,2.0194,0.0,0.0,0.0,0.0,0.0,0.0,0.0,0.0,0.0,0.0,2.2397,2.2669,2.2932,2.3108,2.3108,2.2171,2.1272,0.0,2.0803,2.0984,2.2118,0.0,0.0,0.0,0.0,2.3758,2.3075,2.3881,2.4609,2.4966,2.4992,2.4992,2.4992,2.4769,2.4452,2.4109,2.4187,2.42,2.4218,2.4082,2.346,0.0,0.0,0.0,0.0,0.0,0.0,0.0,0.0,0.0,0.0,0.0,0.0,0.0,0.0,0.0,0.0,0.0,0.0,0.0,0.0,0.0,0.0,0.0,0.0,0.0,0.0,0.0,0.0,1.4805,1.5167,1.7123,1.6871,1.6804,0.0,0.0,0.0,0.0,0.0,0.0,1.8827,1.9121,1.9451,1.9812,2.0252,2.0189,1.9581,2.0771,2.0897,2.0033,2.1614,2.2153,2.1788,2.2698,2.3017,2.2841,2.3035,2.3005,2.2779,2.2137,2.1847,2.1762,2.0919,2.0832,2.1151,2.0909,2.078,2.0843,2.1241,2.1403,2.1466,2.1911,2.1759,2.143,2.1568,0.0,0.0,0.0,0.0,2.1342,2.1923,2.2279,2.2594,2.3007,2.3108,2.3108,2.3108,2.3108,2.3012,0.0,2.2315,2.2499,2.3917,0.0,0.0,0.0,2.4189,2.4001,2.3489,2.3972,2.4491,2.4953,2.4992,2.494,2.4796,2.4783,2.4599,2.4184,2.4247,2.4421,2.4649,2.4696,2.4459,2.3889,0.0,0.0,0.0,0.0,0.0,0.0,0.0,0.0,0.0,0.0,0.0,0.0,0.0,0.0,0.0,0.0,0.0,0.0,0.0,0.0,0.0,0.0,0.0,0.0,0.0,0.0,0.0,0.0,0.0,1.8194,1.7684,0.0,0.0,0.0,0.0,1.9127,1.9578,1.9797,1.957,1.897,1.8808,1.9128,1.9792,2.0106,2.0063,2.1373,2.2039,2.1973,2.2707,2.3035,2.2997,2.3065,2.275,2.2206,2.2811,2.275,2.2157,2.2233,2.2272,2.2238,2.1787,2.1627,2.1716,2.2223,2.2372,2.2448,2.2841,2.2982,2.2982,2.3007,2.3007,2.3012,2.3204,2.287,0.0,0.0,2.2857,2.2521,2.2912,2.3045,2.307,2.3095,2.3108,2.3108,2.3108,2.3108,2.3095,0.0,2.3045,2.3118,2.3398,0.0,2.4248,2.3714,2.4373,2.4879,2.4646,2.4806,2.4966,2.4992,2.4992,2.4783,2.4204,2.4164,2.4197,2.4263,2.4292,2.445,2.4778,2.478,2.4832,2.4922,2.479,0.0,0.0,0.0,0.0,0.0,0.0,0.0,0.0,0.0,0.0,0.0,0.0,0.0,0.0,0.0,0.0,0.0,0.0,0.0,0.0,0.0,0.0,0.0,0.0,0.0,0.0,0.0,0.0,1.9222,1.9136,0.0,2.0463,2.1124,2.1205,2.0535,2.1225,2.1299,2.0429,2.096,2.1224,2.1037,2.1678,2.1834,2.1385,2.2279,2.2262,2.128,2.2377,2.2619,2.2099,2.3006,2.3297,2.3103,2.3876,2.4047,2.3808,2.3523,2.3175,2.2794,2.2652,2.2833,2.3165,2.2959,2.3135,2.3424,2.3188,2.3108,2.3108,2.3108,2.3108,2.3108,2.3198,2.3059,2.2934,2.3148,2.3059,2.2916,2.3058,2.321,2.33,2.33,2.336,2.339,2.33,2.336,2.339,2.33,2.33,2.3588,2.4466,2.4239,2.4102,2.4628,2.4451,2.4278,2.4205,2.4324,2.4426,2.4426,2.4426,2.4334,2.4109,2.4083,2.4157,2.4292,2.4292,2.445,2.4778,2.5118,2.5218,2.5012,2.5317,2.485,0.0,0.0,0.0,0.0,0.0,0.0,0.0,0.0,0.0,0.0,0.0,0.0,0.0,0.0,0.0,0.0,0.0,0.0,0.0,0.0,0.0,0.0,0.0,0.0,0.0,1.7668,1.8231,1.9735,1.9691,1.9951,2.0932,2.1512,2.1724,2.1449,2.22,2.233,2.1574,2.1935,2.2001,2.1652,2.1875,2.1957,2.1929,2.2591,2.2535,2.1834,2.2956,2.318,2.265,2.358,2.3878,2.3701,2.4471,2.4678,2.4434,2.4123,2.3766,2.3371,2.3183,2.3333,2.3665,2.3246,2.3346,2.3653,2.3233,2.3108,2.3108,2.3108,2.3108,2.3108,2.3108,2.3108,2.3108,2.3108,2.3138,2.3198,2.3198,2.33,2.3403,2.3403,2.362,2.3777,2.3621,2.3913,2.4162,2.4053,2.3747,2.3752,2.4571,2.4158,2.4009,2.4965,2.4443,2.4122,2.4498,2.4272,2.4191,2.4387,2.423,2.4083,2.4083,2.4435,2.4655,2.4667,2.4869,2.5029,2.5174,2.5901,2.6154,2.5876,2.647,2.6188,2.497,0.0,0.0,0.0,0.0,0.0,0.0,0.0,0.0,0.0,0.0,0.0,0.0,0.0,0.0,0.0,0.0,0.0,0.0,0.0,0.0,0.0,0.0,0.0,1.9064,1.8832,1.8903,1.9623,1.9372,1.9208,1.9341,2.0311,2.1208,2.1825,2.2441,2.2834,2.2939,2.1652,2.0917,2.085,2.0249,2.0496,2.1677,2.2332,2.3055,2.3848,2.4463,2.4793,2.4773,2.4806,2.4455,2.3872,2.4566,2.4488,2.3902,2.399,2.4017,2.3966,2.3333,2.3108,2.3133,2.3108,2.3108,2.3108,2.3108,2.3108,2.3108,2.3108,2.3108,2.3108,2.3108,2.3108,2.3108,2.3108,2.3253,2.3428,2.3428,2.3441,2.3454,2.3454,2.3877,2.4227,2.4079,2.4716,2.5294,2.5294,2.4423,2.368,2.368,2.3841,2.4153,2.4671,2.4385,0.0,2.5649,2.4827,2.4387,2.4966,2.4504,2.4135,2.4135,2.5153,2.57,2.5409,2.5961,2.6153,2.5887,2.7013,2.7629,2.7547,2.814,2.7883,2.6736,0.0,0.0,0.0,0.0,0.0,0.0,0.0,0.0,0.0,0.0,0.0,0.0,0.0,0.0,0.0,0.0,0.0,0.0,0.0,0.0,0.0,1.8042,1.8862,1.877,1.8867,1.9221,1.9921,1.989,2.0042,2.0549,2.1235,2.1609,2.1617,2.214,2.2209,2.1653,2.1713,2.1866,2.2117,2.2409,2.2981,2.3902,2.4099,2.4229,2.4302,2.4483,2.4494,2.4319,2.4902,2.5052,2.4936,2.5682,2.5933,2.571,2.4918,2.4562,2.4462,2.3484,2.3358,2.3715,2.3258,2.3108,2.3108,2.3108,2.3108,2.3108,2.3108,2.3108,2.3108,2.3108,2.3108,2.3108,2.3108,2.3439,2.3858,2.3943,2.4371,2.4814,2.4952,2.5192,2.5327,2.5183,2.5425,2.5623,2.5541,2.5345,2.52,2.52,2.5231,2.5314,2.547,2.5383,0.0,2.5754,2.5519,2.5419,2.5576,2.5414,2.5323,2.5323,2.561,2.5638,2.5272,2.5498,2.5491,2.5104,2.5923,2.6396,2.6352,2.6953,2.7357,0.0,0.0,0.0,0.0,0.0,0.0,0.0,0.0,0.0,0.0,0.0,0.0,0.0,0.0,0.0,0.0,0.0,0.0,0.0,0.0,0.0,0.0,1.8613,1.9116,1.8839,1.8984,1.9231,1.9616,1.9864,2.0115,2.0534,2.0985,2.1435,2.1822,2.2116,2.2377,2.2535,2.2642,2.2886,2.3394,2.3473,2.3998,2.4985,2.5019,2.5111,2.5338,2.5338,2.5255,2.5099,2.5594,2.5804,2.5851,2.6314,2.6361,2.6059,2.5172,2.4682,0.0,0.0,0.0,0.0,0.0,2.3108,2.3108,2.3108,2.3108,2.3145,2.3384,2.3471,2.3509,2.3735,2.381,2.381,2.381,2.4173,2.457,2.4651,2.5051,2.5447,2.5573,2.5849,2.6018,2.5871,2.6213,2.6479,2.6349,2.6414,0.0,2.6511,2.6106,2.5871,2.6138,2.5968,2.5871,2.6138,2.6177,2.6086,2.5819,2.6046,2.6073,2.5806,2.6237,0.0,0.0,0.0,2.6357,2.6254,2.6272,0.0,0.0,0.0,0.0,0.0,0.0,0.0,0.0,2.5883,2.5604,0.0,0.0,0.0,0.0,0.0,0.0,0.0,0.0,0.0,0.0,0.0,0.0,0.0,0.0,0.0,0.0,1.8915,1.9181,1.9181,1.9181,1.9181,1.9181,1.9596,1.9865,1.9865,2.0193,2.093,2.219,2.2305,2.2925,2.4396,0.0,0.0,0.0,0.0,2.4202,2.5406,2.5453,2.5769,2.6499,2.6499,2.6499,2.6499,2.6499,2.6499,2.6499,2.6499,2.6197,2.5649,2.5121,2.4582,2.4042,2.3421,2.3246,2.3296,2.3296,2.3296,2.3296,2.3296,0.0,0.0,2.3929,2.4092,2.418,2.4669,2.482,2.482,2.482,2.5071,2.5365,2.5397,2.5588,2.578,2.5812,2.6162,2.6492,2.6367,2.6952,2.7469,2.7335,2.7436,2.749,2.749,2.6654,2.6158,2.6719,2.6334,2.6203,2.6732,2.6798,2.6582,2.6041,0.0,0.0,2.6151,2.7072,2.7478,2.6999,2.7374,2.7756,2.8168,2.7319,2.7101,2.766,2.7621,2.7086,2.5995,2.6007,2.5993,2.6009,2.6783,2.6529,0.0,0.0,0.0,0.0,0.0,0.0,0.0,0.0,0.0,0.0,0.0,0.0,0.0,0.0,0.0,1.8722,1.9185,1.9658,1.9658,1.9658,1.9658,1.9658,2.0027,2.0296,2.0296,2.0333,2.093,2.219,2.2305,2.2855,2.4103,2.4042,2.4341,2.512,2.5003,2.5379,2.6245,2.628,2.6349,2.6499,0.0,0.0,2.6499,2.6499,2.6499,2.6499,2.6499,2.6436,2.6285,2.5686,2.5134,2.4575,2.4054,2.4104,2.4462,2.4462,2.4462,2.4462,2.4462,2.4462,2.4474,2.4619,2.4637,2.4682,2.4963,2.5033,0.0,2.5033,2.5414,2.5823,2.5966,2.6391,2.6791,2.7077,2.7209,2.73,2.7267,2.7378,2.749,2.7469,2.7503,2.749,2.749,2.732,2.7203,2.732,2.7242,2.7203,2.732,2.7333,2.7281,2.7177,2.7706,2.8007,2.7902,2.8543,2.849,2.7465,2.6724,2.6659,2.7392,2.7323,2.7337,2.7458,2.76,2.7322,2.6616,2.6614,2.6628,2.6633,2.6299,2.577,0.0,0.0,0.0,0.0,0.0,0.0,0.0,0.0,0.0,0.0,0.0,1.8629,1.9102,0.0,1.963,1.9266,1.9536,1.9793,1.9793,2.0187,2.0348,2.012,2.0839,2.1339,2.1339,2.1891,2.2515,2.3167,2.3189,2.3652,2.466,2.4707,2.5075,2.5886,2.5886,2.6094,2.6499,2.6499,2.6499,2.6499,2.6499,2.6499,2.6499,2.6499,2.6499,2.6499,2.6499,2.6336,2.6021,2.5435,2.5209,2.5184,2.4908,2.4808,2.4788,2.4788,2.4788,2.4788,2.4788,2.4788,2.4825,2.5121,2.5209,2.5292,2.5681,2.579,2.579,2.5889,2.6159,2.6488,2.6688,2.6994,2.7302,2.7469,2.749,2.749,2.749,2.749,2.749,2.749,2.749,2.749,2.749,2.749,2.749,2.749,2.749,2.749,2.749,2.7771,2.7837,2.7529,2.8033,2.8268,2.7981,2.8229,2.815,2.7529,2.6842,2.6628,2.7027,2.6925,2.689,2.6938,2.7045,2.7016,2.6793,2.6793,2.6793,2.6779,2.6511,2.6199,0.0,0.0,0.0,0.0,0.0,0.0,0.0,1.6823,1.7198,1.8657,1.9048,1.9321,1.9888,1.9824,1.9684,1.9792,1.9865,1.9958,2.0052,2.0659,2.101,2.0731,2.1558,2.2193,2.2193,2.3069,2.372,2.3866,2.3902,2.4312,2.5229,2.5312,2.5664,2.6452,2.6499,2.6499,2.6499,2.6499,2.6499,2.6499,2.6499,2.6549,2.665,2.665,2.665,2.665,2.6549,2.6223,2.5737,2.531,2.5385,2.5762,2.5762,2.5511,2.5146,2.5146,2.5146,2.5146,2.5146,2.5146,2.5209,2.5624,2.5762,2.5883,2.6382,2.6568,2.6636,2.6726,2.6909,2.7113,2.7268,2.7369,2.7469,2.749,2.749,2.749,2.749,2.749,2.749,2.749,2.749,2.749,2.749,2.749,2.749,2.749,2.749,2.749,2.749,2.7928,2.8033,2.7542,2.8033,2.8242,2.7868,2.7725,2.7659,2.7659,2.7256,2.7025,2.7057,2.6754,2.6672,2.6796,2.6858,2.692,2.7101,2.7131,2.7131,2.7131,2.7131,2.7009,1.4966,1.4681,1.4755,1.5239,1.5515,1.606,0.0,1.7554,1.7668,1.8647,1.93,1.9601,1.9283,1.9812,2.0205,1.9844,2.0089,2.0493,2.0907,2.1052,2.1248,2.1611,2.1769,2.1838,2.1838,2.1993,2.2354,2.3065,2.3102,2.3754,2.5241,2.5312,2.5664,2.6452,2.6499,2.6499,2.6499,2.6499,2.6499,2.6499,2.6499,2.6751,2.7228,2.7228,2.7228,2.719,2.6713,2.6461,2.6386,2.6336,2.6348,2.6399,2.6399,2.6361,2.6311,2.6311,2.6311,2.6311,2.6311,2.6311,2.6323,2.6386,2.6399,2.6445,2.6633,2.6794,2.6956,2.6943,2.7113,2.7268,2.7302,2.7302,2.7335,2.7469,2.749,2.749,2.749,2.749,2.749,2.749,2.749,2.749,2.749,2.749,2.749,2.749,2.749,2.749,2.749,2.7555,2.7555,2.7503,2.8033,2.8603,2.9039,2.8595,2.8281,2.8281,2.7745,2.7498,2.7683,2.765,2.7722,2.7912,2.8048,2.8099,2.8131,2.8319,2.8397,2.8397,2.8397,2.7827,1.6636,1.6213,1.5954,1.6808,1.6777,1.6796,1.7961,1.7968,1.7973,1.8853,1.9359,1.9569,1.9373,1.9926,2.0323,2.0182,2.0534,2.0897,2.1093,2.1352,2.159,2.1787,2.1807,2.1997,2.244,2.3302,2.3961,2.4299,2.4767,2.5312,2.5955,2.599,2.6129,2.6499,2.6801,2.6977,2.6977,2.7291,2.7419,2.7419,2.7419,2.7369,2.7281,2.7281,2.714,2.6826,2.66,2.6499,2.6499,2.6499,2.6499,2.6499,2.6499,2.6555,2.6624,2.6521,2.6499,2.6499,2.6499,2.6555,2.6624,2.6624,2.6705,2.6807,2.6875,2.6943,2.7024,2.7146,2.7248,2.7302,2.7403,2.7436,2.7436,2.749,2.749,2.749,2.749,2.749,2.749,2.749,2.749,2.749,2.749,2.749,2.749,2.749,2.749,2.749,2.749,2.749,2.749,2.749,2.7745,2.7994,2.8242,2.8033,2.7889,2.7889,2.7754,2.7723,2.7809,2.7901,2.8066,2.8216,2.8268,2.8365,2.8476,2.8554,2.8587,2.8587,2.8587,2.8329,1.7799,1.743,1.7145,1.7873,1.7662,1.7474,1.8198,1.8175,1.8191,1.8833,1.9136,1.9339,1.9471,1.998,2.0426,2.056,2.1,2.13,2.13,2.1778,2.2138,2.2138,2.2138,2.2365,2.2927,2.3827,2.4432,2.4659,2.5004,2.5476,2.6129,2.6126,2.6282,2.6725,2.7218,2.7507,2.7507,2.7908,2.8109,2.8109,2.8109,2.7896,2.7507,2.7392,2.7102,2.6713,2.6562,2.6499,2.6499,2.6499,2.6499,2.6499,2.6521,2.6624,2.6679,2.6658,2.6636,2.6636,2.6636,2.6705,2.676,2.6726,2.6794,2.6909,2.6909,2.6943,2.7045,2.7248,2.7335,2.7369,2.7469,2.7607,2.7771,2.7771,2.7889,2.8007,2.8007,2.8007,2.8007,2.8007,2.8007,2.8007,2.8007,2.8007,2.8007,2.8007,2.8007,2.7868,2.7542,2.749,2.749,2.749,2.749,2.749,2.749,2.749,2.749,2.749,2.7656,2.7756,2.7888,2.7967,2.8118,2.8287,2.8287,2.8365,2.8522,2.8554,2.8587,2.8587,2.8587,2.8682,1.8214,1.8124,1.8057,1.7724,1.7809,1.7978,1.8008,1.8168,1.8293,1.8323,1.8593,1.8961,1.941,1.998,2.0529,2.0984,2.1487,2.1787,2.1787,2.2467,2.2964,2.2964,2.2964,2.2964,2.3001,2.2327,2.2214,2.3001,2.2365,2.2942,2.5194,2.5164,2.5729,2.722,2.7795,2.8084,2.8084,2.8097,2.8109,2.8109,2.8109,2.8097,2.8059,2.7532,2.7268,2.7266,2.6725,2.6499,2.6499,2.6499,2.6499,2.6499,2.6658,2.6679,2.6714,2.6909,2.6977,2.6977,2.6977,2.699,2.6943,2.676,2.6679,2.6714,2.6714,2.6841,2.7045,2.7248,2.7403,2.749,2.749,2.7941,2.8381,2.8381,2.8839,2.9258,2.9258,2.9258,2.9258,2.9258,2.9258,2.9258,2.9258,2.9258,2.9258,2.9258,2.9258,2.8817,2.7646,2.749,2.749,2.749,2.749,2.749,2.749,2.749,2.749,2.749,2.749,2.7669,2.8079,2.7901,2.7973,2.8287,2.8287,2.8287,2.832,2.8509,2.8587,2.8587,2.8587,2.8899,1.8238,1.8208,1.8265,1.8267,1.814,1.8008,1.8008,1.8042,1.8144,1.8269,1.9056,1.9813,2.0128,2.0679,2.1289,2.1677,2.1534,2.1455,2.1766,2.2025,2.2214,2.2214,2.2214,2.2214,2.2214,2.244,2.2916,2.3658,2.4294,2.5224,2.6569,2.6894,2.7299,2.7797,2.836,2.8612,2.8612,2.9026,2.9227,2.9214,2.8461,2.7908,2.7544,2.7014,2.6776,2.6763,2.6575,2.6555,2.6624,2.6624,2.6692,2.6807,2.6726,2.7011,2.7433,2.7401,2.7796,2.8177,2.7165,2.6909,2.699,2.6909,2.722,2.7653,2.779,2.8166,2.856,2.8595,2.8665,2.8686,2.8686,2.883,2.9009,2.9009,2.9131,2.931,2.931,2.931,2.931,2.931,2.931,2.931,2.931,2.931,2.931,2.931,2.931,2.9144,2.8739,2.8686,2.8686,2.8686,2.8333,2.8098,2.8098,2.7745,2.749,2.749,2.7623,2.7756,2.7901,2.7967,2.8085,2.8287,2.8287,2.8365,2.8509,2.8554,2.8587,2.86,2.8994,2.9325,1.8522,1.8463,1.84,1.8379,1.8178,1.8008,1.8076,1.811,1.8178,1.8337,1.9282,2.0163,2.0457,2.0919,2.149,2.2244,2.166,2.1331,2.1963,2.2129,2.2214,2.2214,2.2456,2.2708,2.2918,2.3429,2.3902,2.4395,2.5397,2.6456,2.7534,2.7828,2.8126,2.8361,2.895,2.9239,2.9239,2.9603,2.9691,2.9465,2.8348,2.762,2.7268,2.6751,2.6521,2.6555,2.6555,2.6772,2.7121,2.7121,2.7318,2.7613,2.7518,2.7806,2.8232,2.8222,2.8586,2.897,2.7905,2.7648,2.7799,2.7752,2.8031,2.8455,2.8595,2.889,2.9203,2.9274,2.931,2.931,2.931,2.9431,2.9588,2.9588,2.9745,2.9925,2.9925,2.9925,2.9925,2.9925,2.9925,2.9925,2.9925,2.9925,2.9925,2.9925,2.9925,2.9781,2.9362,2.931,2.931,2.931,2.897,2.8734,2.8734,2.8245,2.7917,2.7917,2.7841,2.7842,2.7973,2.8266,2.8411,2.8411,2.8614,2.8693,2.8587,2.8804,2.8912,2.8926,2.9536,2.9916,1.8939,1.8754,1.8481,1.8105,1.8008,1.8042,1.8236,1.8303,1.8337,1.8482,1.9241,2.0051,2.0505,2.0748,2.1319,2.2607,2.1829,2.1424,2.2335,2.2766,2.3012,2.3034,2.3703,2.4397,2.4964,2.5108,2.5131,2.5131,2.5607,2.6572,2.8074,2.7999,2.8217,2.8938,2.9503,2.9792,2.9792,2.9767,2.9453,2.88,2.7783,2.7304,2.7253,2.6725,2.6602,2.6764,2.6764,2.722,2.7965,2.7965,2.8251,2.8762,2.8928,2.9012,2.9038,2.9243,2.934,2.933,2.9165,2.9162,2.9239,2.9071,2.9012,2.9038,2.9038,2.91,2.9126,2.9317,2.9401,2.9401,2.9401,2.9771,3.014,3.014,3.0594,3.0986,3.0986,3.0986,3.0986,3.0986,3.0986,3.0986,3.0986,3.0986,3.0986,3.0986,3.0986,3.0594,2.9545,2.9401,2.9401,2.9401,2.9375,2.9327,2.9327,2.8965,2.8739,2.8739,2.8185,2.802,2.8348,2.8779,2.8933,2.8695,2.9238,2.9252,2.8682,2.9285,2.9556,2.957,3.0161,3.0758,1.8331,1.8208,1.8144,1.8037,1.8008,1.8042,1.8236,1.8303,1.8371,1.864,2.0049,2.1283,2.1495,2.1856,2.2355,2.3054,2.2009,2.1321,2.1901,2.2552,2.3159,2.3536,2.4284,2.4975,2.552,2.6488,2.7107,2.7107,2.7227,2.7694,2.8637,2.9061,2.9373,2.9566,2.9716,2.9792,2.9792,2.9365,2.8662,2.7695,2.7419,2.7138,2.686,2.6721,2.6989,2.7591,2.7591,2.8017,2.8708,2.8708,2.8883,2.9132,2.9035,2.9259,2.9598,2.9501,2.9822,3.0345,3.0271,2.9738,2.9071,2.9035,2.9284,2.9634,2.9757,3.0129,3.0505,3.0555,3.0555,3.0555,3.0555,3.066,3.0764,3.0764,3.0882,3.0986,3.0986,3.0986,3.0986,3.0986,3.0986,3.0986,3.0986,3.0986,3.0986,3.0986,3.0986,3.0919,3.0581,3.0555,3.0555,3.0555,3.0163,2.9879,2.9879,2.9428,2.9158,2.9158,2.9153,2.9164,2.9268,2.9518,2.9703,2.9713,2.9861,2.9943,2.9944,3.0106,3.0174,3.0188,3.0785,3.1151,1.8266,1.812,1.8047,1.8336,1.8281,1.8251,1.8723,1.8496,1.8481,1.9484,2.0248,2.1109,2.2186,2.2113,2.2273,2.3441,2.2208,2.1352,2.2014,2.2303,2.2648,2.3174,2.3957,2.472,2.5481,2.6858,2.783,2.8071,2.8458,2.8869,2.9264,2.9616,2.9792,2.9792,2.9792,2.9792,2.9792,2.8737,2.8009,2.7645,2.719,2.6858,2.6692,2.6967,2.7433,2.7996,0.0,2.8786,2.9496,2.9496,2.9725,3.0019,2.991,3.0056,3.0305,3.0193,3.0451,3.0849,3.0849,3.042,2.9861,2.9861,3.0082,3.0342,3.0466,3.0725,3.0986,3.0986,3.0986,3.0986,3.0986,3.0986,3.0986,3.0986,3.0986,3.0986,3.0986,3.0986,3.0986,3.0986,3.0986,3.0986,3.0986,3.0986,3.0986,3.0986,3.0986,3.0986,3.0986,3.0986,3.0986,3.0986,3.0699,3.0503,3.0503,3.0053,2.9797,2.9797,2.9654,2.9649,2.9824,3.0099,3.0253,3.0219,3.0497,3.0545,3.0405,3.0676,3.0798,3.0812,3.1395,3.168,1.849,1.8295,1.814,1.877,1.8587,1.8504,1.9342,1.8836,1.8696,2.0401,2.0256,2.0444,2.2399,2.1803,2.1624,2.352,2.2241,2.1342,2.2273,2.2133,2.2164,2.278,2.359,2.4553,2.5596,2.7042,2.8101,2.8636,2.9378,2.9792,2.9792,2.9792,2.9792,2.9792,2.9792,2.9716,2.9578,2.8122,2.7557,2.7871,2.6952,2.6627,2.6887,2.744,2.7908,2.8368,2.8909,2.9561,3.0181,3.0218,3.0542,3.0986,3.0986,3.0986,3.0986,3.0986,3.0986,3.0986,3.0986,3.0986,3.0986,3.0986,3.0986,3.0986,3.0986,3.0986,3.0986,3.0986,3.0986,3.0986,3.0986,3.0986,3.0986,3.0986,3.0986,3.0986,3.0986,3.0986,3.1013,3.1091,3.1104,3.1104,3.1104,3.1104,3.1065,3.0999,3.0986,3.0986,3.0986,3.0986,3.0986,3.0986,3.0986,3.0986,3.0986,3.0677,3.0497,3.0497,3.0023,2.9923,3.0247,3.0615,3.0762,3.0593,3.1116,3.1129,3.0649,3.1151,3.1409,3.1422,3.1938,3.2218,1.849,1.8295,1.814,1.877,1.8587,1.8549,1.9524,1.9286,1.9146,2.016,2.0717,2.1123,2.1518,2.13,2.1449,2.2582,2.149,2.0829,2.1797,2.2418,2.324,2.4431,2.5622,2.6846,2.8145,2.8957,2.9473,2.9573,2.9702,2.9792,2.9792,2.9792,2.9792,2.9792,2.9792,2.9352,2.8411,2.8109,2.7557,2.6776,2.6712,2.7036,2.7703,2.7932,2.8557,2.952,2.9783,0.0,3.0631,3.0768,3.0895,3.0986,3.0986,3.0986,3.0986,3.0986,3.0986,3.0986,3.0986,3.0986,3.0986,3.0986,3.0986,3.0986,3.0986,3.0986,3.0986,3.0986,3.0986,3.0986,3.0986,3.0986,3.0986,3.0986,3.0986,3.0986,3.0986,3.0986,3.1117,3.1562,3.1654,3.1654,3.1654,3.1654,3.1497,3.1052,3.0986,3.0986,3.0986,3.0986,3.0986,3.0986,3.0986,3.0986,3.0986,3.0932,3.0917,3.0917,3.0961,3.1006,3.1079,3.1309,3.1506,3.1631,3.1725,3.1834,3.187,3.2001,3.2055,3.2069,3.2164,3.2218,1.8799,1.8566,1.836,1.9163,1.8963,1.8808,1.9715,1.9317,1.9096,2.0095,1.9949,1.9908,2.0814,2.0602,2.0701,2.2016,2.1835,2.1601,2.1924,2.2889,2.3775,2.4269,2.5197,2.6266,2.7418,2.8208,2.8811,2.9106,2.9546,2.9792,2.9792,2.9792,2.9792,2.9792,2.9214,2.88,2.8536,2.7682,2.7165,2.6927,2.7088,2.7436,2.7905,2.866,2.9336,2.9991,3.0401,3.0664,3.0836,3.0949,3.0986,3.0986,3.0986,3.0986,3.0986,3.0986,3.0986,3.0986,3.0986,3.0986,3.0986,3.0986,3.0986,3.0986,3.0986,3.0986,3.0986,3.0986,3.0986,3.0986,3.0986,3.0986,3.0986,3.0986,3.0986,3.0986,3.0986,3.1222,3.1471,3.1745,3.2032,3.228,3.228,3.228,3.2189,3.1914,3.1875,3.1875,3.1875,3.1614,3.1313,3.1013,3.0986,3.0986,3.0986,3.0986,3.0986,3.0986,3.1099,3.1198,3.131,3.1397,3.1559,3.1743,3.1743,3.1853,3.2036,3.2036,3.2109,3.2218,3.2218,3.2218,1.8971,1.8759,1.8526,1.949,1.9261,1.9011,1.989,1.9324,1.8944,1.997,1.9115,1.857,1.9922,1.9656,1.9706,2.123,2.1789,2.2015,2.1925,2.3066,2.3888,2.38,2.4559,2.5509,2.6582,2.743,2.8118,2.8715,2.9417,2.9792,2.9792,2.9792,2.9729,2.9616,2.8863,2.8499,2.8574,2.7406,2.7002,2.7387,2.7551,2.7889,2.8347,2.9367,3.0006,3.0272,3.079,3.0986,3.0949,3.0986,3.0986,3.0986,3.0986,3.0986,3.0986,3.0986,3.0986,3.0986,3.0986,3.0986,3.0986,3.0986,3.0986,3.0986,3.0986,3.0986,3.0986,3.0986,3.0986,3.0986,3.0986,3.0986,3.0986,3.0986,3.0986,3.1013,3.1143,3.1484,3.1876,3.2124,3.2581,3.2881,3.2881,3.2881,3.2842,3.2712,3.2685,3.2685,3.2685,3.2306,3.181,3.1392,3.113,3.0986,3.0986,3.0986,3.0986,3.0986,3.0986,3.1061,3.1235,3.1235,3.1376,3.1708,3.1588,3.1686,3.2005,3.1884,3.1927,3.2146,3.2146,3.2146,1.8774,1.8626,1.849,1.9327,1.9175,1.905,2.0053,1.9506,1.899,1.9709,1.9045,1.8387,1.8405,1.8313,1.8544,1.9583,2.0157,2.0696,2.1279,2.2527,2.3544,2.4022,2.5201,2.6505,2.7816,2.8438,2.905,2.9625,2.9753,2.9792,2.9792,2.9792,2.9553,2.8988,2.9415,2.8925,2.7444,2.777,2.7828,2.7586,2.7774,2.8489,2.9626,2.9939,3.0277,3.0658,3.0898,3.0911,0.0,3.0911,3.0986,3.0986,3.0986,3.0986,3.0986,3.0986,3.0986,3.0986,3.0986,3.0986,3.0986,3.0986,3.0986,3.0986,3.0986,3.0986,3.0986,3.0986,3.0986,3.0986,3.0986,3.0986,3.0986,3.0986,3.0986,3.113,3.1615,3.1771,3.2111,3.3221,3.347,3.3509,3.3509,3.3509,3.3326,3.2777,3.2685,3.2685,3.2685,3.2646,3.2594,3.2542,3.1601,3.0986,3.0986,3.0986,3.0986,3.0986,3.0986,3.1024,3.1024,3.1024,3.1335,3.2051,3.1587,3.1686,3.2355,3.1849,3.172,3.1927,3.1927,3.2036,1.8944,1.8847,1.8914,2.0254,1.9834,1.9349,2.0279,1.9656,1.8737,1.8129,1.7702,1.7295,1.6835,1.7025,1.7672,1.9001,2.0278,2.1374,2.2115,2.4014,2.5222,2.4862,2.602,2.7159,2.8023,2.8298,2.8812,2.9729,2.9792,2.9792,2.9792,2.9792,2.9691,2.9453,2.9013,2.8461,2.7783,2.7801,2.7731,2.7621,2.8595,2.9233,2.9646,3.0329,3.0665,3.0698,3.0911,3.0949,0.0,3.0986,3.0986,3.0986,3.0986,3.0986,3.0986,3.0986,3.0986,3.0986,3.0986,3.0986,3.0986,3.0986,3.0986,3.0986,3.0986,3.0986,3.0986,3.0986,3.0986,3.0986,3.0986,3.0986,3.1065,3.1418,3.1496,3.1653,3.2228,3.2646,3.3038,3.3496,3.3849,3.4071,3.4071,3.4071,3.3992,3.3757,3.3718,3.3718,3.3718,3.343,3.3234,3.3234,3.2502,3.2006,3.2006,3.1692,3.1496,3.1496,3.1169,3.1143,3.1445,3.1637,3.2001,3.2645,3.2588,3.2543,3.2461,3.2235,3.1979,3.172,3.1853,3.1927,1.9097,1.9315,1.9622,2.0674,2.0303,1.9786,2.027,1.9455,1.8264,1.7048,1.6709,1.6458,1.5952,1.6346,1.72,1.8639,2.0384,2.1744,2.237,2.476,2.6183,2.5464,2.6643,2.7745,2.8298,2.8511,2.8938,2.9729,2.9792,2.9792,2.9792,2.9792,2.9716,2.9541,2.8925,2.8473,2.8182,2.8052,2.8045,2.8153,2.9162,2.9674,2.9792,3.0579,3.0849,3.0698,3.0911,3.0986,0.0,3.0986,3.0986,3.0986,3.0986,3.0986,3.0986,3.0986,3.0986,3.0986,3.0986,3.0986,3.0986,3.0986,3.0986,3.0986,3.0986,3.0986,3.0986,3.0986,3.1104,3.1248,3.1248,3.1365,3.1588,3.1993,3.2058,3.2215,3.2829,3.33,3.3639,3.3796,3.4136,3.4397,3.4397,3.4397,3.4397,3.4397,3.4397,3.4397,3.4397,3.4304,3.4217,3.4217,3.422,3.382,3.2777,3.2489,3.2319,3.2319,3.2136,3.2176,3.2541,3.2765,3.3146,3.3753,3.3993,3.3827,3.3237,3.3237,3.2847,3.2109,3.2246,3.2364,1.9212,2.0081,2.0585,2.0194,2.0306,2.0361,1.9917,1.8736,1.7537,1.6917,1.6476,1.6163,1.6023,1.6437,1.72,1.8413,2.0015,2.123,2.1553,2.4091,2.5824,2.5543,2.7036,2.831,2.8825,2.944,2.9779,2.9792,2.9792,0.0,2.9792,2.9792,2.9528,2.8913,2.9478,2.9353,2.8424,2.8711,2.91,2.9473,2.9287,2.9617,3.0394,3.0609,3.0698,3.0698,3.0911,3.0986,0.0,3.0986,3.0986,3.0986,3.0986,3.0986,3.0986,3.0986,3.0986,3.0986,3.0986,3.0986,3.0986,3.0986,3.0986,3.0986,3.0986,3.0986,3.0986,3.0986,3.1392,3.1797,3.1797,3.2241,3.2672,3.2685,3.2685,3.2842,3.3443,3.3587,3.3757,3.428,3.4397,3.4397,3.4397,3.4397,3.4397,3.4397,3.4397,3.4397,3.4397,3.5142,3.5696,3.5696,3.6979,3.6446,3.2988,3.3234,3.3574,3.3574,3.4071,3.4358,3.4371,3.4371,3.4758,3.5577,3.5709,3.5516,3.4956,3.4917,3.4342,3.327,3.3263,3.3482,1.952,1.9961,2.052,2.0846,2.0188,1.9585,1.9978,1.8577,1.696,1.608,1.5477,1.5185,1.5466,1.5666,1.6648,1.9334,2.0592,2.1732,2.318,2.528,2.6384,2.5638,2.7087,2.8172,2.8348,2.9227,2.9792,2.9792,2.9792,2.9792,2.9792,2.9792,2.9704,2.9528,2.9416,2.9164,2.8736,2.9136,2.93,2.9287,2.992,3.0566,3.1158,3.0973,3.1123,3.1418,3.1123,3.0986,3.0986,3.0986,3.0986,3.0986,3.0986,3.0986,3.0986,3.0986,3.1334,3.1736,3.1736,3.2101,3.2484,3.2484,3.216,3.1913,3.2905,3.2182,3.0986,3.0986,3.1405,3.1797,3.1797,3.2267,3.279,3.3208,3.3313,3.3456,3.4018,3.4149,3.4354,3.5156,3.5264,3.5454,3.5989,3.6108,3.6108,3.6108,3.6108,3.6108,3.6108,3.5883,3.5896,3.6464,3.628,3.5907,3.5317,3.556,3.5433,3.4792,3.4528,3.458,3.4999,3.5139,3.5798,3.7064,3.6705,3.6453,3.6346,3.5453,3.4538,3.3571,3.3165,3.3109,1.9639,2.0046,2.057,2.0767,2.0,1.9282,1.957,1.8155,1.6536,1.5683,1.5016,1.4763,1.5283,1.5536,1.6656,1.9634,2.081,2.2001,2.3803,2.5569,2.6612,2.6549,2.7645,2.8411,2.8411,2.9252,2.9792,2.9792,2.9792,2.9792,2.9792,2.9792,2.983,2.9895,2.9656,2.9542,2.9467,2.963,2.9693,2.9643,3.0215,3.081,3.1516,3.1344,3.1492,3.1796,3.1529,3.1259,0.0,3.0986,3.1161,3.1431,3.1431,3.1579,3.1823,3.1823,3.2137,3.2506,3.2506,3.2826,3.3178,3.3178,3.2897,3.2764,3.4153,3.3643,3.2593,3.2593,3.2987,3.3421,3.3421,3.3838,3.4376,3.4767,3.4861,3.4955,3.5251,3.5332,3.5494,3.6042,3.6162,3.632,3.6802,3.688,3.688,3.688,3.688,3.688,3.688,3.6464,3.6478,3.7295,3.7242,3.7139,3.7291,3.6995,3.6561,3.5983,3.5796,3.5887,3.6266,3.6398,3.6936,3.7939,3.7792,3.7731,3.7769,3.6502,3.5623,3.5099,3.4221,3.396,0.0,2.0184,2.0659,2.004,1.9635,1.925,1.8768,1.7471,0.0,1.567,1.5082,1.4846,1.5447,1.6042,1.7196,1.9603,2.0885,2.2162,2.3758,2.5185,2.6553,2.7894,2.8536,2.885,2.8888,2.9453,2.9792,2.9792,2.9792,2.9792,2.9792,2.9792,2.9895,3.0075,3.0151,3.0241,3.042,3.0241,3.0279,3.0496,3.0381,3.0836,3.1686,3.1873,3.1946,0.0,3.211,3.1736,0.0,3.1123,3.1579,3.2182,3.2182,3.2613,3.3178,3.3178,3.3213,3.3297,3.3339,3.3388,3.3423,3.3353,3.3445,3.3797,3.4935,3.521,3.5145,3.5187,3.5629,3.6099,3.6099,3.6483,3.688,3.688,3.688,3.688,3.688,3.688,3.6919,3.6972,3.6996,3.6996,3.7074,3.7074,3.7074,3.7074,3.7074,3.7074,3.7074,3.7049,3.7347,3.826,3.9334,3.9664,3.8819,3.7855,3.723,3.714,3.7677,3.8024,3.807,3.807,3.8194,3.8472,3.9091,3.9305,3.9047,3.7839,3.7356,3.7425,3.6057,3.5669,1.8554,0.0,1.9598,1.9004,1.8559,1.8248,0.0,1.7206,1.6349,1.6219,1.5696,1.5461,1.6075,1.7003,1.8584,2.1341,2.228,2.336,2.5332,2.5668,2.6164,2.7366,2.7959,2.8461,2.885,2.9453,2.9792,2.9792,2.9792,2.9792,2.9792,2.9934,3.0049,3.0113,3.0636,3.0905,3.0788,3.0904,3.1181,3.1625,3.2417,3.3018,3.3408,3.3584,3.3342,3.2861,3.2932,3.2506,3.1882,3.2448,3.2804,3.2932,3.2932,3.3038,3.3178,3.3178,3.3561,3.4099,3.4623,3.5205,3.5623,3.5018,3.5895,3.7037,3.6265,3.5289,3.4558,3.5074,3.5629,3.6099,3.6099,3.6483,3.688,3.688,3.688,3.688,3.688,3.688,3.7088,3.7758,3.791,3.8098,3.8708,3.8819,3.8819,3.8819,3.8819,3.8819,3.8819,3.83,3.8414,3.9728,3.9401,3.9449,4.0354,4.0041,3.9445,3.8741,3.8801,3.9224,3.9927,3.997,4.0317,4.1085,4.1393,4.09,3.9516,3.8585,3.7763,3.7011,3.5553,3.5003,1.789,1.8323,1.8732,1.8396,1.7946,1.7583,1.7583,1.6961,1.6388,1.6388,1.6336,1.6375,1.6702,1.8282,2.0054,2.1721,2.2922,2.4317,2.6281,2.6532,2.6842,2.7687,2.822,2.8562,0.0,2.9453,2.9792,2.9792,2.9792,2.9792,2.9792,2.9972,3.0113,3.0113,3.0725,3.1201,3.15,3.1635,3.2195,3.3198,3.356,3.4051,3.4611,3.4679,3.4319,3.3699,3.3699,3.3283,3.2648,3.3038,3.3388,3.3699,3.3699,3.3919,3.4254,3.4254,3.4714,3.5358,3.5712,3.6323,3.6828,3.6409,3.702,3.7918,3.7783,3.698,3.6251,3.6939,3.7353,3.7628,3.7628,3.7823,3.8032,3.8032,3.8032,3.8032,3.8032,3.8032,3.8196,3.8649,3.8738,3.8885,3.9301,3.9388,3.9388,3.9388,3.9388,3.9388,3.9388,3.8701,3.8647,3.9808,3.9586,3.9714,4.0474,4.0974,4.0859,3.9899,3.9855,4.0073,4.0589,4.0603,4.0859,4.1338,4.1671,4.1379,4.0427,3.9569,3.873,3.7923,3.6502,3.5788,1.7716,1.7998,1.8214,1.8031,1.7664,1.7342,1.7342,1.712,1.6885,1.6794,1.729,1.7721,1.7678,1.9707,2.1523,2.1915,2.3583,2.5269,2.659,2.724,2.7744,2.8276,2.8698,0.0,2.9013,2.9503,2.9792,2.9792,2.983,2.9869,2.9869,3.0088,3.019,3.0202,3.093,3.1747,3.2635,3.2593,3.3403,3.4943,3.466,3.4882,3.5492,3.558,3.5146,3.4312,0.0,0.0,3.3388,3.3506,3.3919,3.4495,3.4495,3.4905,3.5504,3.5504,3.5923,3.6492,3.6596,3.7105,3.7674,3.7479,3.7554,3.7913,3.8945,3.8931,3.8661,3.926,3.9388,3.9388,3.9388,3.9388,3.9388,3.9388,3.9388,3.9388,3.9388,3.9388,3.9388,3.9388,3.9388,3.9388,3.9388,3.9388,3.9388,3.9388,3.9388,3.9388,3.9388,3.8811,3.8693,3.9486,4.0005,4.0339,4.0348,4.1511,4.1852,4.1071,4.0901,4.0859,4.1029,4.1014,4.0972,4.0929,4.132,4.1449,4.1244,4.0372,3.9681,3.9086,3.7854,3.7006,1.8643,1.8989,1.8719,1.7745,1.7733,1.7957,1.7957,1.8649,1.9133,1.8623,1.9392,2.0102,1.9943,2.1173,2.2659,2.3998,2.5556,2.6404,2.5895,2.6697,2.7566,2.807,0.0,2.9076,2.9616,2.9741,2.9792,2.9792,2.9972,3.0049,3.0049,3.0394,3.065,3.0773,3.2319,3.3651,3.4656,3.4151,3.4784,3.647,3.7207,3.7109,3.6343,3.6831,3.6045,3.4346,0.0,3.4872,3.4177,3.4887,3.5213,3.5326,3.5326,3.5392,3.5504,3.5504,3.5923,3.6552,3.709,3.8078,3.8931,3.7778,3.8182,3.905,3.8661,3.8886,3.929,3.9394,3.9388,3.9388,3.9388,3.9388,3.9388,3.9388,3.9388,3.9388,3.9388,3.9388,3.9388,3.9388,3.9388,3.9388,3.9388,3.9388,3.9388,3.9388,3.9388,3.9388,3.9388,3.9301,3.9473,4.0187,4.0808,4.1441,4.1993,4.2684,4.3036,4.29,4.2196,4.2114,4.286,4.29,4.2743,4.2389,4.2455,4.2009,4.1029,4.019,3.942,3.8756,3.7971,3.7376,1.8319,1.8639,1.8671,1.8468,1.8978,1.9588,1.9865,2.0348,2.0557,1.9993,2.104,2.1929,2.1563,2.2901,2.4477,2.5724,2.6452,2.6982,2.7374,2.7771,2.8361,2.9224,0.0,2.9503,2.9767,2.9792,2.9869,2.9934,3.0049,3.0152,3.0254,3.0533,3.0982,3.1591,3.2902,3.4366,3.5967,3.6085,3.6796,3.804,3.8237,3.7829,3.7,3.7285,3.6518,3.4986,0.0,3.5279,3.4986,3.5359,3.5714,3.5998,3.5639,3.5729,3.6073,3.6417,3.6731,3.7075,3.7719,3.8586,3.926,3.8257,3.8616,3.9328,3.9035,3.917,3.9388,3.9388,3.9388,3.9388,3.9388,3.9388,3.9388,3.9388,3.9388,3.9388,3.9388,3.9388,3.9388,3.9388,3.9388,3.9388,3.9388,3.9388,3.9388,3.9388,3.9388,3.9388,3.9388,3.9388,3.9529,3.9843,4.0771,4.1542,4.1841,4.2746,4.329,4.329,4.2915,4.2875,4.329,4.3,4.271,4.2541,4.1934,4.1383,4.0837,4.0172,3.9506,3.8841,3.8553,3.814,1.8597,1.8882,1.9306,2.0573,2.0894,2.1027,2.1577,2.2021,2.2152,2.1616,2.2622,2.3509,2.3206,2.4663,2.6129,2.6771,2.6965,2.7436,2.8588,2.8774,2.9153,3.0023,2.9961,2.9869,2.9869,3.0037,3.0216,3.0406,3.0646,3.0822,3.0959,3.1172,3.1763,3.2745,3.372,3.5119,3.6946,3.7786,3.8509,3.9177,3.8814,3.8272,3.7644,3.7644,3.6941,3.5729,3.5729,3.5729,3.5729,3.5564,3.5983,3.6641,3.5983,3.6133,3.6761,3.724,3.7509,3.7719,3.8212,3.8841,3.9305,3.8616,3.8856,3.9388,3.9388,3.9388,3.9388,3.9388,3.9388,3.9388,3.9388,3.9388,3.9388,3.9388,3.9388,3.9388,3.9388,3.9388,3.9388,3.9388,3.9388,3.9388,3.9388,3.9388,3.9388,3.9388,3.9388,3.9388,3.9388,3.9388,3.9388,3.9388,4.0457,4.1205,4.1407,4.2297,4.288,4.288,4.3015,4.3105,4.3105,4.2476,4.2096,4.1946,4.1055,4.0564,4.0377,4.0024,3.9597,3.9098,3.9132,3.8857,2.067,2.1076,2.1592,2.4806,2.3513,2.1603,2.2205,2.3579,2.4586,2.3981,2.4387,2.4958,2.5242,2.6311,2.6997,2.6524,2.7312,2.801,2.8,0.0,2.9386,2.9301,2.9758,3.0075,3.0075,3.0696,3.1193,3.1368,3.2191,3.2713,3.2713,3.2918,3.3475,3.4497,3.5552,3.662,3.7719,3.8767,3.9301,3.9388,3.9328,3.899,3.8317,3.8317,3.7629,3.6417,3.6417,3.6417,3.6372,3.5759,3.6237,3.7285,3.6656,3.6791,3.7345,3.7389,3.7793,3.8317,3.8377,3.8841,3.9305,3.8616,3.8856,3.9388,3.9388,3.9388,3.9388,3.9388,3.9388,3.9388,3.9388,3.9388,3.9388,3.9388,3.9388,3.9388,3.9388,3.9388,3.9388,3.9388,3.9388,3.9388,3.9388,3.9388,3.9388,3.9388,3.9388,3.9388,3.9388,3.9388,3.9388,3.9388,4.0053,4.0711,4.1324,4.1474,4.1519,4.1519,4.2126,4.247,4.247,4.1841,4.116,4.0546,4.0442,4.0098,3.9484,3.9439,3.943,3.9385,3.955,3.9295,2.1013,2.2238,2.3558,2.4904,2.5391,2.5396,2.4821,2.4919,2.5047,2.4717,2.5428,2.6381,2.7312,2.7461,2.7609,2.816,2.8302,2.8508,2.9165,2.951,2.9799,3.0098,3.0629,3.0972,3.0972,3.1623,3.2141,3.2371,3.2713,3.2961,3.3094,3.3143,3.3896,3.5465,3.6028,3.7062,3.8568,3.9141,3.9388,3.9388,3.9388,3.905,3.8392,3.8392,3.7689,3.6492,3.6492,3.6252,3.5863,3.5609,3.6252,3.7419,3.7599,3.7569,3.7464,3.7868,3.8182,3.8452,3.8886,3.92,3.9379,3.911,3.92,3.9388,3.9388,3.9388,3.9388,3.9388,3.9388,3.9388,3.9388,3.9388,3.9388,3.9388,3.9388,3.9388,3.9388,3.9388,3.9388,3.9388,3.9388,3.9388,3.9388,3.9388,3.9388,3.9388,3.9388,3.9388,3.9388,3.9388,3.9388,3.9388,4.0008,4.0666,4.1324,4.1422,4.1422,4.1422,4.1647,4.1796,4.1796,4.1115,4.0651,4.0397,3.9993,3.9664,3.9388,3.9517,3.9589,3.9589,3.9768,3.9824,2.158,2.3141,2.4755,2.5284,2.6625,2.7583,2.684,2.6651,2.6533,2.6193,2.6912,2.7783,2.8299,2.8206,2.8375,2.9301,2.9348,2.964,3.0664,3.0846,3.099,3.1328,3.1723,3.1928,3.1928,3.2621,3.3136,3.3345,3.3567,3.3768,3.3934,3.3934,3.4681,3.6391,3.6576,3.747,3.9177,3.9337,3.9388,3.9388,3.9388,3.917,3.8721,3.8721,3.8003,3.6776,3.6776,3.6417,3.5804,3.5594,3.6252,3.7494,3.8377,3.8437,3.8093,3.8556,3.8721,3.8781,3.926,3.9388,3.9388,3.9388,3.9388,3.9388,3.9388,3.9388,3.9388,3.9388,3.9388,3.9388,3.9388,3.9388,3.9388,3.9388,3.9574,3.9723,3.9723,3.9888,3.9978,3.9768,3.9723,3.9664,3.9454,3.9388,3.9388,3.9388,3.9388,3.9388,3.9388,3.9388,3.9388,3.9388,3.9828,4.0277,4.0726,4.0756,4.0756,4.0756,4.0756,4.0846,4.107,4.0442,4.0083,4.0083,3.9649,3.9388,3.9388,3.9553,3.9661,3.9681,3.9839,4.0031,2.2672,2.3911,2.511,2.6645,2.7174,2.7421,2.7826,2.8889,2.9521,2.8693,2.8975,2.9075,2.7958,2.8592,2.9359,2.9503,3.0466,3.1472,3.228,3.2868,3.3143,3.2925,3.2925,3.2925,3.2925,3.3602,3.4095,3.4312,0.0,0.0,0.0,3.5504,3.6103,3.7375,3.7419,3.8063,3.9373,3.9388,3.9388,3.9388,3.9388,3.9388,3.9388,3.9388,3.8691,3.7404,3.7419,3.706,3.6432,3.5789,3.6267,3.7554,3.8901,3.9388,3.9388,3.9388,3.9388,3.9388,3.9388,3.9388,3.9388,3.9388,3.9388,3.9388,3.9388,3.9388,3.9388,3.9388,3.9388,3.9388,3.9388,3.9388,3.9388,3.9388,3.9933,4.0412,4.0412,4.092,4.1227,4.0531,4.0412,4.0202,3.9508,3.9388,3.9388,3.9388,3.9388,3.9388,3.9388,3.9388,3.9388,3.9388,3.9388,3.9388,3.9388,3.9388,3.9388,3.9388,3.9388,3.9709,4.0367,3.9768,3.9388,3.9388,3.9388,3.9388,3.9388,3.9388,3.9517,3.9681,3.9681,3.9803,2.4508,2.6137,2.787,2.8531,2.924,2.9567,2.8832,2.8282,2.8181,2.9123,2.9809,3.0351,3.0958,3.0952,3.1138,3.2089,3.2129,3.2249,3.289,3.3101,3.3178,3.3129,3.3581,3.3876,3.3876,3.4576,0.0,0.0,0.0,0.0,0.0,3.5953,3.6567,3.7375,3.7853,3.8527,3.9373,3.9388,3.9388,3.9388,3.9388,3.9388,3.9388,3.9388,3.8691,3.7434,3.7898,3.7225,3.5848,3.6552,3.7345,3.8182,3.9065,3.9388,3.9388,3.9388,3.9388,3.9388,3.9388,3.9388,3.9388,3.9388,3.9388,3.9514,3.9963,4.0113,4.0113,4.0113,4.0113,4.0113,4.0113,4.0113,4.0113,4.0113,4.0718,4.1272,4.1123,4.1385,4.1498,4.1168,4.1085,4.1025,4.0831,4.0412,4.0113,4.0113,3.9709,3.9388,3.9388,3.9388,3.9388,3.9388,3.9388,3.9388,3.9388,3.9388,3.9388,3.9388,3.9388,3.9514,3.9709,3.9529,3.9388,3.9388,3.9388,3.9388,3.9388,3.9553,3.9661,3.9681,3.9839,4.0031,2.5846,2.7543,2.9139,2.922,2.9901,3.0416,2.9841,2.9068,2.8915,3.0499,3.1042,3.1499,3.2339,3.2328,3.2463,3.3285,3.3269,3.3373,3.4013,3.4104,3.4104,3.4104,3.4524,3.4791,0.0,0.0,0.0,0.0,0.0,0.0,0.0,3.5878,3.6507,3.7375,3.7793,3.8452,3.9373,3.9388,3.9388,3.9388,3.9388,3.9388,3.9388,3.9388,3.8826,3.7793,3.7689,3.6971,3.5968,3.6985,3.7644,3.8123,3.9334,3.9649,3.9418,3.9709,3.9649,3.9388,3.9388,3.9388,3.9388,3.9388,3.9388,3.9499,3.9888,4.0008,4.0008,4.0008,4.0261,4.0507,4.0507,4.0972,4.134,4.0995,4.152,4.2078,4.1926,4.2212,4.2356,4.1895,4.1811,4.1722,4.1467,4.1055,4.0786,4.0786,4.0442,4.0113,3.9843,3.9813,3.9709,3.9454,3.9388,3.9388,3.9388,3.9388,3.9388,3.9388,3.9388,3.9388,3.9388,3.9388,3.9388,3.9388,3.9388,3.9388,3.9388,3.9517,3.961,3.9681,3.9803,3.9996,2.6626,2.8183,2.9265,2.9152,2.9668,3.035,3.087,3.0849,3.1056,3.2258,3.2501,3.2533,3.2672,3.3068,3.3459,3.3667,3.4097,3.4643,3.5392,3.5504,3.5504,3.5504,3.5504,0.0,0.0,0.0,0.0,0.0,0.0,0.0,0.0,3.5564,3.6148,3.7375,3.7464,3.8123,3.9373,3.9388,3.9388,3.9388,3.9388,3.9388,3.9388,3.9388,3.9035,3.8317,3.7045,3.6522,3.6611,3.718,3.7449,3.7689,3.9574,3.9948,3.9448,4.0083,3.9933,3.9388,3.9388,3.9388,3.9388,3.9388,3.9388,3.9388,3.9448,3.9514,3.9514,3.9574,4.0205,4.0818,4.0878,4.1948,4.2796,4.2025,4.2327,4.2824,4.2801,4.3268,4.347,4.2644,4.2485,4.2344,4.1707,4.158,4.152,4.1422,4.1422,4.116,4.0561,4.0487,4.0262,3.9664,3.9568,3.9568,3.9568,3.9544,3.9514,3.9514,3.9418,3.9388,3.9388,3.9388,3.9388,3.9388,3.9388,3.9388,3.9388,3.9388,3.9517,3.9681,3.9681,3.9803,2.6378,2.7898,2.9367,2.995,3.0149,3.062,3.2163,3.2388,3.2273,3.2452,3.2914,3.3432,3.3969,3.4584,3.5037,3.5068,3.5157,3.5311,3.5472,3.5504,3.5504,0.0,0.0,0.0,0.0,0.0,0.0,0.0,0.0,0.0,3.5504,3.5998,3.6626,3.7389,3.7913,3.8571,3.9373,3.9388,3.9388,0.0,3.9388,3.9388,3.9388,3.9388,3.9035,3.8317,3.7045,3.6761,3.7225,3.736,3.7719,3.8272,3.9245,3.9544,3.9439,3.9574,3.9508,3.9388,3.9388,3.9388,3.9388,3.9388,3.9388,3.9514,4.0038,4.0297,4.0534,4.1061,4.1465,4.1856,4.2387,4.2735,4.2955,4.2766,4.3236,4.3659,4.3518,4.3585,4.3591,4.3189,4.3268,4.338,4.3244,4.2893,4.244,4.1746,4.1483,4.1324,4.119,4.1175,4.1115,4.098,4.0965,4.0965,4.0965,4.0487,4.0187,4.0187,3.9709,3.9388,3.9388,3.9388,3.9388,3.9388,3.9388,3.9388,3.9388,3.9388,3.9517,3.9681,3.9681,3.991,2.6437,2.7889,2.9202,3.0551,3.0591,3.07,3.2259,3.2798,3.2971,3.3051,3.3561,3.4173,3.4846,3.5265,3.5504,3.5504,3.5504,3.5504,3.5504,3.5504,0.0,0.0,0.0,0.0,0.0,0.0,0.0,0.0,0.0,3.5504,3.5504,3.5833,3.6447,3.7375,3.7749,3.8407,3.9373,3.9388,3.9388,3.9388,3.9388,3.9388,3.9388,3.9388,3.9035,3.8332,3.736,3.7154,3.7522,3.7522,3.7946,3.8607,3.9283,3.9481,3.9388,3.9388,3.9388,3.9388,3.9388,3.9388,3.9424,3.9517,3.9553,3.9613,4.0082,4.0296,4.0429,4.0777,4.1255,4.1736,4.1991,4.2421,4.2777,4.2702,4.3092,4.3479,4.3401,4.3363,4.3415,4.36,4.3754,4.3832,4.3832,4.3622,4.3297,4.2872,4.2712,4.2515,4.2198,4.2168,4.2032,4.1716,4.1686,4.1686,4.1686,4.1369,4.1121,4.101,4.0768,4.0609,4.0499,4.0499,4.0162,3.9388,3.9388,3.9388,3.9388,3.9388,3.9445,3.9553,3.9661,3.9803,2.6147,2.7837,2.9104,3.0792,3.0812,3.0714,3.194,3.2739,3.3326,3.3834,3.4269,3.4745,3.537,3.5504,3.5504,3.5522,3.5537,3.5504,3.5522,0.0,0.0,0.0,0.0,0.0,0.0,0.0,0.0,0.0,0.0,3.5504,3.5504,3.5609,3.6207,3.7375,3.7524,3.8167,3.9373,3.9388,3.9388,3.9388,3.9388,3.9388,3.9388,3.9388,3.8975,3.8197,3.7764,3.7567,3.7541,3.7748,3.817,3.8762,3.939,3.9553,3.9388,3.9388,3.9409,3.9445,3.9445,3.9445,3.9532,3.9696,3.9768,3.9768,3.996,4.0031,4.0061,4.0168,4.0787,4.1352,4.1294,4.201,4.2704,4.2383,4.2687,4.3062,4.3062,4.3115,4.332,4.3881,4.4026,4.4065,4.4065,4.4065,4.4026,4.4026,4.3988,4.3752,4.319,4.313,4.2879,4.2281,4.2258,4.2258,4.2221,4.2115,4.2002,4.1836,4.1896,4.1873,4.1671,4.1693,4.1121,3.9805,3.9685,3.9565,3.9496,3.9496,3.9532,3.9553,3.9732,3.9839,2.4382,2.7268,2.9648,3.0361,3.0463,3.074,3.2062,3.278,3.3551,3.4744,3.4834,3.4825,3.5417,3.5504,3.5554,3.5638,3.5572,3.5554,0.0,0.0,0.0,0.0,0.0,0.0,0.0,0.0,0.0,0.0,3.5504,3.5504,3.5504,3.6043,3.6671,3.7389,3.7958,3.8631,3.9373,3.9388,3.9388,3.9388,3.9388,3.9388,3.9388,3.9388,3.8736,3.7569,3.8048,3.7717,3.6908,3.7897,3.8457,3.8727,3.9262,3.9409,3.9388,3.9388,3.9517,3.9646,3.9646,3.9768,3.9925,3.996,3.996,3.996,3.9996,4.0101,4.0399,4.0944,4.1331,4.1704,4.2237,4.2919,4.3257,4.249,4.2799,4.3235,4.3235,4.3594,4.3881,4.3972,4.4127,4.4243,4.4243,4.4243,4.4205,4.4026,4.3832,4.3699,4.3609,4.3594,4.347,4.3169,4.3326,4.338,4.3154,4.2629,4.2353,4.2314,4.1949,4.1633,4.146,4.1596,4.1618,4.1399,4.0842,4.0341,3.9925,3.9925,3.9996,4.0172,4.0207,4.0296,2.4349,2.7052,2.9068,3.0582,3.0689,3.0648,3.1613,3.2296,3.3115,3.4391,3.4805,3.5138,3.5676,3.5701,3.5686,3.5831,3.5814,0.0,0.0,0.0,0.0,0.0,0.0,0.0,0.0,0.0,0.0,0.0,3.5504,3.5504,3.5504,3.6133,3.6776,3.7389,3.8048,3.8721,3.9373,3.9388,3.9388,3.9388,3.9517,3.9517,3.9409,3.9517,3.8977,3.7973,3.8377,3.8355,3.8061,3.8652,3.9087,3.9446,3.9677,3.9676,3.9553,3.9553,3.9696,3.9889,3.9889,3.9925,4.0011,4.0137,4.0172,4.0172,4.0261,4.0331,4.0462,4.0754,4.1208,4.1627,4.1832,4.2452,4.2919,4.2429,4.2895,4.346,4.346,4.354,4.3762,4.4243,4.432,4.4281,4.4281,4.4205,4.4089,4.4026,4.391,4.3871,4.3871,4.3871,4.3832,4.3699,4.3793,4.3832,4.3699,4.3443,4.3238,4.3121,4.3144,4.3016,4.2685,4.2863,4.2887,4.2605,4.1714,4.1209,4.1119,4.1119,4.1155,4.1264,4.1372,4.1464,2.4191,2.6368,2.7955,3.0208,3.0546,3.0459,3.1008,3.1797,3.2662,0.0,3.4253,3.4972,3.5922,3.5931,3.5831,3.6037,0.0,0.0,0.0,0.0,0.0,0.0,0.0,0.0,0.0,0.0,0.0,0.0,3.5554,3.5554,3.5554,3.6301,3.6941,3.7404,3.8212,3.8901,3.9388,3.9388,3.9424,3.9496,3.9625,3.9661,3.9568,3.9696,3.941,3.8802,3.8908,3.8992,3.9097,3.9383,3.968,4.0011,4.0011,3.9889,3.9717,3.9768,3.991,4.0081,4.0081,4.0101,4.0137,4.0296,4.0331,4.0366,4.047,4.0628,4.0766,4.0766,4.1309,4.1812,4.1653,4.2232,4.2811,4.2686,4.3267,4.3855,4.3855,4.3758,4.3799,4.4403,4.4396,4.4281,4.4181,4.4065,4.3988,4.3949,4.391,4.391,4.391,4.391,4.391,4.3832,4.3949,4.3949,4.3817,4.3871,4.3832,4.3596,4.3934,4.3972,4.3596,4.3793,4.3783,4.3472,4.269,4.2243,4.2147,4.2147,4.2147,4.2147,4.2294,4.2498,2.3046,2.4707,2.6345,2.8566,2.9627,3.0177,3.0408,3.1474,3.2413,3.249,3.2946,3.3921,3.6012,3.6167,3.6037,0.0,0.0,0.0,0.0,0.0,0.0,0.0,0.0,0.0,0.0,0.0,0.0,0.0,3.5688,3.5688,3.5688,3.6757,3.7375,3.7404,3.8691,3.9343,3.9388,3.9388,3.9481,3.9681,3.9696,3.9803,3.9975,3.996,3.9945,3.9915,3.9722,3.9501,3.9314,3.9797,3.9965,4.0011,4.0011,3.9889,3.9732,3.9925,4.0101,4.0277,4.0277,4.0366,4.0489,4.0489,4.0489,4.0489,4.0489,4.1001,4.154,4.154,4.2032,4.2556,4.2556,4.3033,4.3562,4.351,4.4033,4.4564,4.4564,4.4526,4.4503,4.4343,4.432,4.4166,4.3808,4.3871,4.3949,4.3729,4.3729,4.3729,4.3729,4.3729,4.3596,4.3369,4.3738,4.3817,4.3369,4.3557,4.3596,4.3329,4.3596,4.3596,4.3329,4.3557,4.3778,4.3966,4.3897,4.3465,4.2565,4.2565,4.2565,4.2565,4.2565,4.2951,2.1867,2.3457,2.5165,2.757,2.9042,3.0041,3.06,3.1437,3.2326,3.3206,3.3535,3.4335,3.6517,3.6461,0.0,0.0,0.0,0.0,0.0,0.0,0.0,0.0,0.0,0.0,0.0,0.0,0.0,0.0,0.0,3.6006,3.6259,3.7104,3.776,3.8098,3.9409,4.0126,4.0126,3.9753,3.9625,3.9681,3.998,4.0066,3.9996,4.0137,4.0207,4.0172,4.0137,4.0034,3.9975,4.0205,4.0261,4.0207,4.0207,4.0137,4.0086,4.0172,4.0296,4.0436,4.0436,4.047,4.0566,4.1063,4.1217,4.1294,4.1724,4.2048,4.2248,4.2248,4.2709,4.3217,4.3217,4.3762,4.4255,4.4255,4.444,4.461,4.461,4.4511,4.4396,4.432,4.4205,4.4065,4.391,4.3949,4.3988,4.391,4.391,4.391,4.391,4.391,4.3871,4.3738,4.3793,4.3793,4.3738,4.3714,4.3934,4.4412,4.4677,4.4909,4.5143,4.5358,4.5536,4.5608,4.5608,4.5023,4.3864,4.4351,4.4606,4.459,4.5077,4.5448,2.046,2.1821,2.3439,2.6153,2.8125,2.9623,3.0678,3.1635,3.2473,3.3096,3.3605,3.4431,3.6082,3.6217,0.0,0.0,0.0,0.0,0.0,0.0,0.0,0.0,0.0,0.0,0.0,0.0,0.0,0.0,0.0,0.0,3.698,3.7837,3.8712,3.9554,4.0391,4.0737,4.0566,4.02,3.995,3.9803,4.0385,4.0578,4.0509,4.0854,4.0938,4.0715,4.0715,4.0593,4.0366,4.047,4.0436,4.0296,4.0347,4.0331,4.0312,4.0331,4.0436,4.0536,4.0766,4.0858,4.1001,4.1709,4.194,4.2032,4.2463,4.2756,4.2925,4.2925,4.3402,4.3985,4.4251,4.4629,4.4896,4.4648,4.461,4.4685,4.4933,4.4685,4.4396,4.432,4.4205,4.4089,4.4026,4.3988,4.3988,4.3988,4.4189,4.4266,4.4011,4.4243,4.4266,4.4026,4.3949,4.391,4.3988,4.3949,4.4228,4.5036,4.5221,4.5556,4.6189,4.6346,4.6432,4.6483,4.6483,4.6111,4.5348,4.5841,4.6076,4.6092,4.6569,4.6914,0.0,0.0,0.0,2.4275,2.6749,2.886,3.0517,3.2052,3.2892,3.2099,3.308,3.421,3.4721,0.0,0.0,0.0,0.0,0.0,0.0,0.0,0.0,0.0,0.0,0.0,0.0,0.0,0.0,0.0,3.7161,3.7354,3.7822,3.8968,4.0276,4.1676,4.1592,4.1295,4.0777,4.074,4.0528,4.0066,4.0922,4.1393,4.1558,4.2205,4.2141,4.1492,4.1525,4.1158,4.0524,4.0524,4.0455,4.0366,4.0489,4.047,4.0347,4.047,4.0505,4.0628,4.1355,4.1617,4.174,4.2417,4.2633,4.2633,4.2663,4.3146,4.3676,4.3676,4.4139,4.4821,4.5531,4.5697,4.5567,4.4821,4.4648,4.4858,4.5604,4.5179,4.461,4.4396,4.432,4.4281,4.405,4.4065,4.4065,4.4089,4.4692,4.4902,4.4166,4.4692,4.4827,4.4127,4.4205,4.4205,4.4011,4.4205,4.4556,4.511,4.5184,4.5504,4.6244,4.6279,4.6365,4.6588,4.6588,4.6657,4.6846,4.6846,4.6846,4.6846,4.6846,4.7254,1.839,0.0,0.0,0.0,0.0,0.0,2.9989,3.2127,3.3465,3.3189,3.4275,3.5322,0.0,0.0,0.0,0.0,0.0,0.0,0.0,0.0,0.0,0.0,0.0,0.0,0.0,0.0,0.0,0.0,3.8222,3.8149,3.858,3.9838,4.1121,4.2441,4.2536,4.2519,4.2378,4.2029,4.1788,4.1673,4.2013,4.2173,4.2237,4.2426,4.2141,4.1525,4.2013,4.1836,4.1209,4.1209,4.1492,4.1836,4.1393,4.1209,4.1109,4.0681,4.0828,4.1324,4.1524,4.1925,4.2432,4.3094,4.331,4.3387,4.3879,4.4536,4.5138,4.5138,4.5627,4.6127,4.5769,4.6076,4.6324,4.5551,4.5805,4.6253,4.6464,4.634,4.5969,4.5237,4.5089,4.5089,4.5014,4.5126,4.5405,4.5933,4.6218,4.6253,4.604,4.5717,4.5442,4.5237,4.467,4.4358,4.4435,4.4843,4.5442,4.6288,4.6813,4.7473,4.8193,4.8225,4.8257,4.8306,4.8306,4.8354,4.8386,4.7869,4.7589,4.7622,4.8145,4.8482,1.82,1.851,1.9407,2.1802,0.0,0.0,2.9281,3.1656,3.3369,0.0,3.5174,3.5983,0.0,0.0,0.0,0.0,0.0,0.0,0.0,0.0,0.0,0.0,0.0,0.0,0.0,3.8463,3.8546,3.9152,3.8876,3.9007,3.9727,4.0746,4.1819,4.2947,4.3291,4.3333,4.3136,4.2831,4.2599,4.23,4.2738,4.2923,4.2923,4.3259,4.3,4.2363,4.2738,4.2707,4.2332,4.2332,4.2395,4.2458,4.2078,4.1933,4.19,4.1857,4.2118,4.2506,4.279,4.3152,4.3531,4.3883,4.4233,4.4553,4.4943,4.5551,4.6147,4.6147,4.6708,4.7069,4.6359,4.6708,4.7069,4.6324,4.6499,4.688,4.7187,4.7254,4.7001,4.6147,4.5969,4.5969,4.5969,4.6076,4.6288,4.6742,4.7051,4.7153,4.6846,4.6692,4.6483,4.6182,4.566,4.5369,4.5531,4.5789,4.6343,4.7204,4.7655,4.8242,4.897,4.9001,4.9001,4.9001,4.9001,4.9001,4.9001,4.8576,4.837,4.837,4.8798,4.9001,1.8407,1.8321,1.8666,2.005,2.2526,0.0,2.8203,3.056,3.2502,0.0,3.5282,3.5909,0.0,0.0,0.0,0.0,0.0,0.0,0.0,0.0,0.0,0.0,0.0,0.0,3.8987,3.8564,3.8499,3.9126,3.9236,3.9794,4.0925,4.1611,4.2322,4.3171,4.3826,4.3935,4.3456,4.3426,4.3139,4.2552,4.3273,4.3601,4.363,4.431,4.4207,4.3495,4.3571,4.3638,4.3645,4.3704,4.3339,4.2738,4.2645,4.2663,4.2809,4.3474,4.3783,4.401,4.461,4.4878,4.4911,4.4865,4.5274,4.5841,4.5841,4.6324,4.6949,4.7017,4.7522,4.7852,4.7119,4.7489,4.7819,4.7085,4.6983,4.7221,4.7885,4.8015,4.7819,4.7153,4.6983,4.6914,4.6914,4.6914,4.6949,4.7017,4.7589,4.7787,4.7119,4.7556,4.7655,4.6983,4.6846,4.6811,4.6811,4.688,4.7221,4.7852,4.7999,4.8306,4.897,4.9001,4.9001,4.9001,4.9001,4.9001,4.9001,4.9001,4.9001,4.9001,4.9001,4.9001,1.9751,1.9096,1.9303,2.017,2.1337,0.0,2.6031,2.801,2.9609,0.0,3.2515,3.3282,0.0,0.0,0.0,0.0,0.0,0.0,0.0,0.0,0.0,0.0,0.0,0.0,3.8141,3.8043,3.8278,3.9008,3.9581,4.0229,4.0951,4.1782,4.2523,4.3171,4.4041,4.4457,4.4355,4.4355,4.4281,4.415,4.431,4.4384,4.4384,4.4542,4.4207,4.3542,4.4133,4.4415,4.4517,4.5056,4.482,4.4121,4.3529,4.3713,4.4212,4.3828,4.4415,4.542,4.5561,4.5927,4.6392,4.6381,4.6464,4.6569,4.6569,4.7119,4.7819,4.8386,4.8656,4.8625,4.7901,4.8242,4.8593,4.7852,4.8145,4.8625,4.875,4.8798,4.8719,4.8593,4.8096,4.7688,4.7688,4.7688,4.7901,4.8482,4.8688,4.8719,4.8593,4.8161,4.7852,4.7688,4.7153,4.6811,4.6811,4.7355,4.7754,4.7885,4.845,4.8861,4.9001,4.9001,4.9001,4.9001,4.9001,4.9001,4.9001,4.9001,4.9001,4.9001,4.9001,4.9001,2.163,2.0246,1.9636,2.0407,2.0952,0.0,0.0,2.5999,2.7276,2.8956,3.0531,3.1473,3.0986,0.0,0.0,0.0,0.0,0.0,0.0,0.0,0.0,0.0,0.0,0.0,0.0,3.7686,3.821,3.8937,3.9326,3.9842,4.0509,4.1668,4.2446,4.2753,4.395,4.4615,4.4615,4.4615,4.4615,4.4615,4.4615,4.4615,4.4615,4.4615,4.4614,4.4629,4.4997,4.5378,4.5734,4.5722,4.5703,4.564,4.5299,4.5169,4.5256,4.5637,4.6243,4.6859,4.6832,4.7094,4.7288,4.6914,4.7051,4.7355,4.7355,4.7852,4.8513,4.8909,4.9001,4.8892,4.8545,4.8719,4.8909,4.8545,4.8719,4.9001,4.9001,4.9001,4.9001,4.9001,4.8688,4.845,4.845,4.845,4.8576,4.894,4.9001,4.9001,4.9001,4.8688,4.845,4.845,4.8113,4.7901,4.7901,4.8242,4.845,4.845,4.8798,4.9001,4.9001,4.9001,4.9001,4.9001,4.9001,4.9001,4.9001,4.9001,4.9001,4.9001,4.9001,4.9001,2.378,2.1986,2.0789,2.1035,2.1292,2.1881,0.0,0.0,0.0,0.0,0.0,0.0,0.0,0.0,0.0,0.0,0.0,0.0,0.0,0.0,0.0,0.0,0.0,0.0,0.0,3.7794,3.8548,3.8565,3.936,3.9851,3.9893,4.1433,4.2286,4.2286,4.3819,4.4615,4.4615,4.4615,4.4615,4.4615,4.4615,4.4615,4.4615,4.475,4.5128,4.572,4.5855,4.6244,4.6752,4.6312,4.6397,4.6786,4.6633,4.6397,4.6278,4.7449,4.7973,4.8115,4.8105,4.8129,4.8032,4.7422,4.7622,4.8129,4.8129,4.8513,4.9001,4.9001,4.9001,4.9001,4.9001,4.9001,4.9001,4.9001,4.9001,4.9001,4.9001,4.9001,4.9001,4.9001,4.9001,4.9001,4.9001,4.9001,4.9001,4.9001,4.9001,4.9001,4.9001,4.9001,4.9001,4.9001,4.9001,4.9001,4.9001,4.9001,4.9001,4.9001,4.9001,4.9001,4.9001,4.9001,4.9001,4.9001,4.9001,4.9001,4.9001,4.9001,4.9001,4.9001,4.9001,4.9001,2.6166,2.491,2.4332,2.2631,2.2733,2.3075,2.2529,0.0,2.2792,2.3659,0.0,0.0,0.0,0.0,0.0,0.0,0.0,0.0,2.9215,0.0,0.0,0.0,0.0,0.0,0.0,0.0,3.9783,3.7252,4.0679,4.1813,3.9259,4.1136,4.2286,4.2286,4.3819,4.4615,4.4615,4.4615,4.4615,4.4615,4.4615,4.4615,4.4632,4.528,4.5618,4.5737,4.6397,4.6718,4.6836,4.7428,4.731,4.6735,4.6075,4.6583,4.7652,4.7821,4.8294,4.8869,4.8875,4.8861,4.8861,4.8767,4.8798,4.8861,4.8861,4.894,4.9001,4.9001,4.9001,4.9001,4.9001,4.9001,4.9001,4.9001,4.9001,4.9001,4.9001,4.9001,4.9001,4.9001,4.9001,4.9001,4.9001,4.9001,4.9001,4.9001,4.9001,4.9001,4.9001,4.9001,4.9001,4.9001,4.9001,4.9001,4.9001,4.9001,4.9001,4.9001,4.9001,4.9001,4.9001,4.9001,4.9001,4.9001,4.9001,4.9001,4.9001,4.9001,4.9001,4.9001,4.9001,4.9001,2.9328,2.8087,2.7343,2.6027,2.5149,2.4486,2.4035,0.0,2.1287,0.0,0.0,0.0,0.0,0.0,0.0,0.0,2.6308,0.0,0.0,0.0,0.0,0.0,0.0,0.0,0.0,0.0,0.0,0.0,0.0,4.1528,3.974,4.1348,4.2286,4.2286,4.3819,4.4615,4.4615,4.4615,4.4615,4.4615,4.4615,4.4835,4.5246,4.5568,4.6177,4.7005,4.731,4.7682,4.8071,4.7939,4.7986,4.8003,4.7276,4.7331,4.7939,4.8392,4.8748,4.9001,4.9001,4.9001,4.9001,4.9001,4.9001,4.9001,4.9001,4.9001,4.9001,4.9001,4.9001,4.9001,4.9001,4.9001,4.9001,4.9001,4.9001,4.9001,4.9001,4.9001,4.9001,4.9001,4.9001,4.9001,4.9001,4.9001,4.9001,4.9001,4.9001,4.9001,4.9001,4.9001,4.9001,4.9001,4.9001,4.9001,4.9001,4.9001,4.9001,4.9001,4.9001,4.9001,4.9001,4.9001,4.9001,4.9001,4.9001,4.9001,4.9001,4.9001,4.9001,4.9001,4.9001,4.9001,3.2284,0.0,0.0,0.0,0.0,0.0,0.0,0.0,0.0,0.0,0.0,0.0,0.0,0.0,0.0,0.0,0.0,2.4219,0.0,0.0,0.0,0.0,0.0,0.0,0.0,0.0,0.0,0.0,0.0,0.0,3.9588,4.1085,4.2083,4.2286,4.3819,4.4615,4.4615,4.4615,4.4615,4.4615,4.4615,4.4976,4.572,4.5906,4.6701,4.7906,4.8091,4.8409,4.868,4.8359,4.8409,4.868,4.8311,4.8206,4.8291,4.8798,4.9001,4.9001,4.9001,4.9001,4.9001,4.9001,4.9001,4.9001,4.9001,4.9001,4.9001,4.9001,4.9001,4.9001,4.9001,4.9001,4.9001,4.9001,4.9001,4.9001,4.9001,4.9001,4.9001,4.9001,4.9001,4.9001,4.9001,4.9001,4.9001,4.9001,4.9001,4.9001,4.9001,4.9001,4.9001,4.9001,4.9001,4.9001,4.9001,4.9001,4.9001,4.9001,4.9001,4.9001,4.9001,4.9001,4.9001,4.9001,4.9001,4.9001,4.9001,4.9001,4.9001,4.9001,4.9001,4.9001,0.0,0.0,0.0,3.373,0.0,0.0,0.0,0.0,2.6906,0.0,0.0,0.0,0.0,0.0,0.0,0.0,0.0,0.0,0.0,0.0,0.0,0.0,0.0,0.0,0.0,0.0,0.0,0.0,0.0,0.0,3.8176,4.0054,4.1559,4.2269,4.3819,4.4615,4.4615,4.4615,4.4615,4.4615,4.4615,4.4976,4.572,4.643,4.7175,4.7922,4.8663,4.8578,4.7973,4.8697,4.8578,4.799,4.8714,4.8968,4.8968,4.9001,4.9001,4.9001,4.9001,4.9001,4.9001,4.9001,4.9001,4.9001,4.9001,4.9001,4.9001,4.9001,4.9001,4.9001,4.9001,4.9001,4.9001,4.9001,4.9001,4.9001,4.9001,4.9001,4.9001,4.9001,4.9001,4.9001,4.9001,4.9001,4.9001,4.9001,4.9001,4.9001,4.9001,4.9001,4.9001,4.9001,4.9001,4.9001,4.9001,4.9001,4.9001,4.9001,4.9001,4.9001,4.9001,4.9001,4.9001,4.9001,4.9001,4.9001,4.9001,4.9001,4.9001,4.9001,4.9001,4.9001,0.0,0.0,3.6721,3.6084,0.0,0.0,0.0,0.0,0.0,0.0,0.0,0.0,0.0,0.0,0.0,0.0,0.0,0.0,0.0,0.0,0.0,0.0,0.0,0.0,0.0,0.0,0.0,0.0,0.0,0.0,0.0,4.0003,4.1322,4.1559,4.3031,4.4062,4.4598,4.4615,4.4615,4.4615,4.5077,4.5703,4.6447,4.7192,4.7936,4.8646,4.89,4.8866,4.8663,4.89,4.8849,4.8663,4.89,4.9001,4.9001,4.9001,4.9001,4.9001,4.9001,4.9001,4.9001,4.9001,4.9001,4.9001,4.9001,4.9001,4.9001,4.9001,4.9001,4.9001,4.9001,4.9001,4.9001,4.9001,4.9001,4.9001,4.9001,4.9001,4.9001,4.9001,4.9001,4.9001,4.9001,4.9001,4.9001,4.9001,4.9001,4.9001,4.9001,4.9001,4.9001,4.9001,4.9001,4.9001,4.9001,4.9001,4.9001,4.9001,4.9001,4.9001,4.9001,4.9001,4.9001,4.9001,4.9001,4.9001,4.9001,4.9001,4.9001,4.9001,4.9001,4.9001,3.9284,3.9185,0.0,3.8571,3.8402,0.0,3.7353,0.0,3.3183,0.0,0.0,0.0,0.0,0.0,0.0,0.0,0.0,0.0,0.0,1.8967,0.0,0.0,0.0,0.0,0.0,0.0,0.0,0.0,0.0,0.0,0.0,0.0,4.0544,4.0815,4.2479,4.3656,4.4164,4.4479,4.4615,4.4615,4.5077,4.5821,4.6802,4.7293,4.8054,4.9001,4.9001,4.9001,4.9001,4.9001,4.9001,4.9001,4.9001,4.9001,4.9001,4.9001,4.9001,4.9001,4.9001,4.9001,4.9001,4.9001,4.9001,4.9001,4.9001,4.9001,4.9001,4.9001,4.9001,4.9001,4.9001,4.9001,4.9001,4.9001,4.9001,4.9001,4.9001,4.9001,4.9001,4.9001,4.9001,4.9001,4.9001,4.9001,4.9001,4.9001,4.9001,4.9001,4.9001,4.9001,4.9001,4.9001,4.9001,4.9001,4.9001,4.9001,4.9001,4.9001,4.9001,4.9001,4.9001,4.9001,4.912,4.939,4.9137,4.9137,4.939,4.9137,4.9001,4.9001,4.9001,4.9001]}]]